     2.11           OBSERVATION DATA    G (GPS)             RINEX VERSION / TYPE
teqc 2010Oct21 OPUS Account 20111026 20:59:05UTC            PGM / RUN BY / DATE
M 1523                                                      MARKER NAME
1192                                                        MARKER NUMBER
CSMIDDLETON NGS                                             OBSERVER / AGENCY
0220379089 TRIMBLE R7 2.28                                  REC # / TYPE / VERS
60124975 TRM41249.00 NONE                                   ANT # / TYPE
  -750993.8346 -5513729.0504  3106695.7365                  APPROX POSITION XYZ
        2.0010        0.0000        0.0000                  ANTENNA: DELTA H/E/N
     1     1                                                WAVELENGTH FACT L1/2
     5    L1    L2    C1    P1    P2                        # / TYPES OF OBSERV
    15                                                      LEAP SECONDS
  2011     8    11     0     0   30.0000000     GPS         TIME OF FIRST OBS
                                                            END OF HEADER
 11  8 11  0  0 30.0000000  0  8G17G12G09G10G05G04G28G02
 -41377081.83257 -32223334.35255  22131656.6174                   22131653.8554
 -11457885.70357  -8909989.67255  23060486.9844                   23060484.0704
 -20916573.09057 -16278770.46555  22313375.7734                   22313374.2234
 -22870937.32457 -17803421.02055  21647759.2034                   21647757.0434
  -3190500.95356  -2468112.38153  24215070.3444                   24215072.6564
 -41419728.05958 -32254036.99657  20261379.2274                   20261376.7504
 -39847478.37956 -31043757.94154  23267256.0634                   23267255.1054
 -30098807.85258 -23433632.13756  20997233.2504                   20997228.6884
 11  8 11  0  1  0.0000000  0  8G17G12G09G10G05G04G28G02
 -41367908.76248 -32216186.53545  22133402.1484                   22133399.6134
 -11580235.57847  -9005327.17645  23037204.7034                   23037201.6564
 -20906959.12147 -16271279.09845  22315205.5164                   22315203.4884
 -22966820.50448 -17878135.13745  21629512.8594                   21629511.0434
  -3326709.69946  -2574248.70343  24189150.8524                   24189152.4654
 -41404956.52348 -32242526.72346  20264190.0864                   20264187.7894
 -39789380.33246 -30998486.82444  23278311.5314                   23278310.2194
 -30169247.74648 -23488520.33246  20983828.7344                   20983824.9534
 11  8 11  0  1 30.0000000  0  8G17G12G09G10G05G04G28G02
 -41358510.47348 -32208863.21546  22135190.7424                   22135187.8094
 -11702303.77747  -9100445.18045  23013975.4694                   23013973.0044
 -20896697.66047 -16263283.17645  22317157.8594                   22317156.0824
 -23062150.46148 -17952418.18445  21611372.6174                   21611370.2274
  -3462822.08246  -2680309.99244  24163249.1254                   24163251.0314
 -41389651.85248 -32230601.01246  20267102.6174                   20267100.4574
 -39730863.31646 -30952889.25044  23289447.6334                   23289446.0554
 -30239189.91448 -23543020.69946  20970519.3674                   20970514.6334
 11  8 11  0  2  0.0000000  0  8G17G12G09G10G05G04G28G02
 -41348899.52047 -32201374.18746  22137019.6094                   22137017.0634
 -11824099.91047  -9195351.21545  22990798.0784                   22990795.2504
 -20885802.78547 -16254793.69145  22319231.0234                   22319229.4694
 -23156935.65248 -18026276.73445  21593335.2504                   21593332.9774
  -3598846.90246  -2786303.02744  24137364.2114                   24137366.3204
 -41373828.29348 -32218270.97746  20270113.5164                   20270111.2034
 -39671940.61346 -30906975.55944  23300659.1174                   23300659.1174
 -30308645.93048 -23597142.23446  20957301.9694                   20957297.2384
 11  8 11  0  2 30.0000000  0  8G17G12G09G10G05G04G28G02
 -41339077.07447 -32193720.36345  22138888.5704                   22138885.8094
 -11945623.82447  -9290045.10945  22967673.3914                   22967670.3204
 -20874279.13347 -16245814.26645  22321424.4064                   22321422.5434
 -23251175.39148 -18099710.25845  21575402.1174                   21575400.1724
  -3734783.19947  -2892227.08644  24111496.0944                   24111497.8164
 -41357489.88748 -32205539.76246  20273222.8054                   20273220.1844
 -39612615.94546 -30860748.64144  23311948.8754                   23311947.6914
 -30377618.18748 -23650886.81646  20944177.0394                   20944172.1134
 11  8 11  0  3  0.0000000  0  8G17G12G09G10G05G04G28G02
 -41329038.89148 -32185898.43745  22140799.1724                   22140796.3794
 -12066869.73847  -9384522.41445  22944600.4454                   22944598.2424
 -20862125.87547 -16236344.25045  22323737.0704                   22323735.3794
 -23344863.44148 -18172713.89845  21557573.7664                   21557571.9064
  -3870625.54347  -2998077.93744  24085646.6094                   24085647.6094
 -41340636.07048 -32192406.91846  20276429.6884                   20276427.3984
 -39552887.71546 -30814207.26244  23323315.1174                   23323313.7974
 -30446103.54748 -23704251.99646  20931144.8834                   20931139.8714
 11  8 11  0  3 30.0000000  0  8G17G12G09G10G05G04G28G02
 -41318782.95748 -32177906.80945  22142750.4774                   22142747.6294
 -12187832.67247  -9478779.22345  22921582.6094                   22921579.2584
 -20849343.38347 -16226383.90245  22326169.2814                   22326167.9494
 -23437994.64547 -18245283.61745  21539851.6414                   21539849.3834
  -4006368.99247  -3103851.73444  24059815.0704                   24059816.1844
 -41323266.66048 -32178872.31646  20279735.0234                   20279732.8244
 -39492754.86347 -30767350.60244  23334758.3984                   23334756.9104
 -30514099.89848 -23757236.14146  20918205.6094                   20918201.2704
 11  8 11  0  4  0.0000000  0  8G17G12G09G10G05G04G28G02
 -41308306.99648 -32169743.73445  22144744.2584                   22144741.4614
 -12308508.92647  -9572812.65245  22898618.0784                   22898615.2194
 -20835932.48047 -16215933.89145  22328721.3364                   22328720.1604
 -23530564.32047 -18317415.79345  21522235.4384                   21522234.0864
  -4142008.85247  -3209544.82044  24034003.7194                   24034004.0594
 -41305382.12948 -32164936.33246  20283138.4454                   20283135.7504
 -39432217.90246 -30720179.01244  23346278.0004                   23346276.2544
 -30581605.77748 -23809838.09846  20905359.4144                   20905355.0744
 11  8 11  0  4 30.0000000  0  8G17G12G09G10G05G04G28G02
 -41297608.84848 -32161407.53145  22146779.5554                   22146777.4924
 -12428894.14147  -9666619.28945  22875709.1954                   22875706.2114
 -20821894.11747 -16204994.96945  22331392.8674                   22331391.4884
 -23622567.83647 -18389106.80145  21504728.2734                   21504726.4184
  -4277540.67647  -3315153.72744  24008211.8834                   24008213.0634
 -41286983.15248 -32150599.47346  20286639.7734                   20286637.7584
 -39371276.38347 -30672692.22744  23357875.1884                   23357873.5474
 -30648619.25848 -23862056.35946  20892607.3444                   20892602.5784
 11  8 11  0  5  0.0000000  0  8G17G12G09G10G05G04G28G02
 -41286684.38347 -32152894.98045  22148858.6094                   22148856.1954
 -12548983.05147  -9760195.06245  22852857.4384                   22852854.1804
 -20807228.07847 -16193566.90645  22334183.6724                   22334182.2274
 -23713999.53947 -18460352.25045  21487329.6024                   21487327.4844
  -4412958.75846  -3420674.00444  23982442.3444                   23982443.8204
 -41268069.02048 -32135861.19546  20290238.9694                   20290236.6214
 -39309929.15246 -30624889.27344  23369549.1024                   23369547.5554
 -30715137.64848 -23913888.84846  20879949.6254                   20879944.6884
 11  8 11  0  5 30.0000000  0  8G17G12G09G10G05G04G28G02
 -41275531.18448 -32144204.19545  22150981.0394                   22150978.4344
 -12668770.18047  -9853535.68745  22830062.7114                   22830059.6644
 -20791933.74247 -16181649.29345  22337094.4224                   22337093.1644
 -23804853.48447 -18531147.48445  21470040.1094                   21470038.3284
  -4548257.34446  -3526101.15244  23956696.3834                   23956697.4344
 -41248639.02348 -32120720.94946  20293936.2734                   20293933.8834
 -39248174.19146 -30576768.61744  23381300.2114                   23381299.1294
 -30781157.90648 -23965333.18046  20867386.0474                   20867381.1604
 11  8 11  0  6  0.0000000  0  8G17G12G09G10G05G04G28G02
 -41264146.67248 -32135333.16445  22153147.3444                   22153144.8984
 -12788251.00447  -9946637.58245  22807326.1024                   22807323.5004
 -20776012.06247 -16169242.83245  22340124.0704                   22340122.4694
 -23895124.86747 -18601488.79745  21452862.5704                   21452860.6954
  -4683432.10946  -3631431.82444  23930972.9454                   23930974.1764
 -41228693.36748 -32105178.87946  20297732.0944                   20297729.3954
 -39186011.77346 -30528330.46544  23393129.6414                   23393128.5084
 -30846678.48048 -24016388.14846  20854917.9774                   20854913.2774
 11  8 11  0  6 30.0000000  0  8G17G12G09G10G05G04G28G02
 -41252528.62547 -32126280.16445  22155358.2974                   22155355.6024
 -12907421.29747 -10039497.53145  22784648.6954                   22784646.0474
 -20759463.83247 -16156348.14545  22343273.3984                   22343272.1724
 -23984809.21147 -18671372.66846  21435796.1644                   21435794.2194
  -4818478.10246  -3736662.16844  23905274.4694                   23905275.7814
 -41208232.87548 -32089235.64846  20301625.4454                   20301622.9734
 -39123441.61746 -30479574.60544  23405036.7504                   23405035.5004
 -30911698.00048 -24067052.68446  20842545.0944                   20842540.0824
 11  8 11  0  7  0.0000000  0  8G17G12G09G10G05G04G28G02
 -41240673.25047 -32117042.23045  22157614.2734                   22157611.9844
 -13026276.01247 -10132111.54745  22762031.3674                   22762028.5904
 -20742289.11747 -16142965.30145  22346541.1334                   22346539.4574
 -24073901.10547 -18740794.89146  21418842.3284                   21418840.1134
  -4953389.98046  -3841787.97744  23879600.9384                   23879602.6604
 -41187257.11748 -32072890.90246  20305616.8834                   20305614.6174
 -39060462.74246 -30430500.25844  23417021.7894                   23417020.2304
 -30976213.94148 -24117324.82046  20830268.2664                   20830263.7384
 11  8 11  0  7 30.0000000  0  8G17G12G09G10G05G04G28G02
 -41228578.61748 -32107617.86345  22159916.1884                   22159913.2154
 -13144810.39547 -10224475.94545  22739475.3444                   22739472.7814
 -20724488.66447 -16129094.84445  22349928.5084                   22349927.0664
 -24162395.64847 -18809751.63745  21402002.5704                   21402000.2544
  -5088163.67246  -3946806.10944  23853954.3054                   23853954.9384
 -41165766.48448 -32056144.96146  20309706.6024                   20309703.9304
 -38997074.76246 -30381107.12944  23429083.0004                   23429082.8874
 -31040224.06648 -24167202.82046  20818087.2814                   20818082.5824
 11  8 11  0  8  0.0000000  0  8G17G12G09G10G05G04G28G02
 -41216244.37948 -32098006.79745  22162263.3364                   22162260.3014
 -13263022.35547 -10316589.09445  22716979.8674                   22716977.4884
 -20706065.17647 -16114738.93445  22353434.1644                   22353433.7194
 -24250289.98847 -18878240.69946  21385276.7974                   21385274.6414
  -5222795.49246  -4051713.75844  23828334.1954                   23828335.5124
 -41143763.27048 -32038999.60246  20313893.7194                   20313891.2974
 -38933279.46146 -30331396.59444  23441223.3914                   23441222.7304
 -31103729.02348 -24216687.17646  20806002.5314                   20805998.0434
 11  8 11  0  8 30.0000000  0  8G17G12G09G10G05G04G28G02
 -41203667.69548 -32088206.80145  22164656.3594                   22164653.5044
 -13380907.80947 -10408447.81645  22694546.8914                   22694544.6454
 -20687019.30947 -16099898.01645  22357058.8674                   22357057.2034
 -24337579.58647 -18946258.53146  21368665.7344                   21368663.5944
  -5357281.11747  -4156507.46944  23802742.7504                   23802743.5864
 -41121247.83248 -32021455.10946  20318178.6254                   20318175.8094
 -38869076.50846 -30281368.42244  23453441.2424                   23453440.1174
 -31166727.16448 -24265776.61346  20794014.8134                   20794009.7034
 11  8 11  0  9  0.0000000  0  8G17G12G09G10G05G04G28G02
 -41190848.28547 -32078217.66045  22167095.8204                   22167093.4614
 -13498463.55547 -10500049.62545  22672176.8054                   22672174.0474
 -20667353.73047 -16084574.23845  22360801.3204                   22360799.7774
 -24424261.57447 -19013802.89146  21352170.6954                   21352168.7544
  -5491617.38747  -4261184.84044  23777179.2974                   23777179.9654
 -41098222.21948 -32003513.07446  20322559.8674                   20322557.4454
 -38804467.19546 -30231023.61343  23465735.7894                   23465734.8554
 -31229218.20748 -24314470.90646  20782123.0634                   20782118.2074
 11  8 11  0  9 30.0000000  0  8G17G12G09G10G05G04G28G02
 -41177785.46148 -32068038.85945  22169581.6414                   22169579.4344
 -13615687.20747 -10591392.65645  22649870.4454                   22649867.2114
 -20647071.06647 -16068769.60945  22364660.7584                   22364659.7464
 -24510333.03147 -19080871.50445  21335791.5004                   21335789.3244
  -5625801.45347  -4365743.60244  23751644.1094                   23751645.1914
 -41074688.67248 -31985175.25046  20327038.0554                   20327035.6254
 -38739453.53146 -30180363.70743  23478107.2194                   23478106.2384
 -31291202.41048 -24362770.25446  20770327.2194                   20770322.8874
 11  8 11  0 10  0.0000000  0  8G17G12G09G10G05G04G28G02
 -41164478.89548 -32057670.12945  22172113.6334                   22172111.2894
 -13732576.23447 -10682474.93745  22627626.7274                   22627624.1954
 -20626174.43047 -16052486.55945  22368637.1024                   22368636.4264
 -24595791.38348 -19147462.38345  21319529.6094                   21319527.3324
  -5759830.73447  -4470181.78944  23726139.6254                   23726140.3404
 -41050649.64548 -31966443.55146  20331612.6724                   20331610.2154
 -38674037.28146 -30129390.10943  23490556.0314                   23490554.4734
 -31352680.39148 -24410675.15246  20758628.6024                   20758623.9964
 11  8 11  0 10 30.0000000  0  8G17G12G09G10G05G04G28G02
 -41150927.39847 -32047110.55145  22174692.4924                   22174689.9574
 -13849127.43447 -10773293.98845  22605447.8984                   22605445.2384
 -20604665.90647 -16035726.70345  22372730.1254                   22372729.8634
 -24680633.26647 -19213572.90246  21303384.7664                   21303382.6994
  -5893702.02047  -4574496.85544  23700664.1884                   23700664.8094
 -41026107.14548 -31947319.53546  20336282.8204                   20336280.3874
 -38608219.34846 -30078103.50443  23503080.5474                   23503079.8634
 -31413651.72348 -24458185.25846  20747026.0394                   20747021.3324
 11  8 11  0 11  0.0000000  0  8G17G12G09G10G05G04G28G02
 -41137131.11347 -32036360.22345  22177318.3444                   22177315.3054
 -13965339.77047 -10863848.99245  22583333.6414                   22583330.3794
 -20582549.29747 -16018493.03145  22376939.0554                   22376937.8714
 -24764856.88748 -19279201.64846  21287357.5704                   21287355.3094
  -6027412.77047  -4678686.80944  23675220.4144                   23675220.7424
 -41001064.16048 -31927805.53146  20341048.4144                   20341045.8094
 -38542002.36746 -30026505.97743  23515681.2034                   23515680.0314
 -31474117.30148 -24505301.26246  20735520.0004                   20735515.4144
 11  8 11  0 11 30.0000000  0  8G17G12G09G10G05G04G28G02
 -41123090.50047 -32025419.50845  22179989.9774                   22179987.0164
 -14081211.06247 -10954138.25445  22561283.7344                   22561280.9924
 -20559827.88347 -16000788.07445  22381262.8524                   22381261.6604
 -24848460.17648 -19344347.02346  21271448.2194                   21271446.0944
  -6160961.46547  -4782750.52044  23649806.3674                   23649806.2464
 -40975523.62148 -31907903.81646  20345908.5634                   20345906.2854
 -38475388.85546 -29974599.46143  23528357.1254                   23528355.9304
 -31534078.25848 -24552024.06246  20724109.5554                   20724104.9224
 11  8 11  0 12  0.0000000  0  8G17G12G09G10G05G04G28G02
 -39533387.32847 -30786689.79745  22482501.0004                   22482498.1094
 -12621316.51247  -9816558.04745  22839092.5944                   22839089.9344
 -18961087.22747 -14755016.17645  22685492.9694                   22685491.7664
 -23356019.52748 -18181406.21946  21555450.4614                   21555448.0514
  -4718922.34047  -3659083.45344  23924216.7344                   23924217.1994
 -39374070.48848 -30660018.27046  20650655.1094                   20650652.0204
 -36832964.64146 -28694788.45343  23840901.1954                   23840899.4614
 -30018114.89548 -23370753.89146  21012588.2274                   21012583.3714
 11  8 11  0 12 30.0000000  0  8G17G12G09G10G05G04G28G02
 -39518862.59447 -30775371.85245  22485264.0704                   22485261.6644
 -12736504.10247  -9906314.56645  22817172.6414                   22817170.5004
 -18937171.14147 -14736380.29345  22690043.7344                   22690042.7774
 -23438380.21948 -18245583.35246  21539777.4384                   21539775.4184
  -4852143.91447  -3762892.25444  23898865.7584                   23898865.7114
 -39347548.00848 -30639351.41446  20655702.1094                   20655699.7384
 -36765569.33646 -28642272.75843  23853725.4844                   23853724.0314
 -30077073.77348 -23416695.85246  21001368.5554                   21001363.8634
 11  8 11  0 13  0.0000000  0  8G17G12G09G10G05G04G28G02
 -39504099.17648 -30763867.92245  22488073.7114                   22488071.3284
 -12851350.21947  -9995805.00845  22795318.1094                   22795315.9494
 -18912665.92647 -14717285.33245  22694707.3984                   22694706.1644
 -23520119.34848 -18309276.15246  21524222.9534                   21524221.0514
  -4985201.79347  -3866573.49244  23873545.2734                   23873544.8444
 -39320542.30948 -30618308.01646  20660840.8364                   20660838.4224
 -36697789.93746 -28589457.73443  23866623.3284                   23866622.4774
 -30135535.97348 -23462250.79346  20990243.2504                   20990238.8674
 11  8 11  0 13 30.0000000  0  8G17G12G09G10G05G04G28G02
 -39489101.07447 -30752181.10945  22490928.1644                   22490925.5164
 -12965857.48447 -10085031.42245  22773528.1644                   22773525.7974
 -18887579.57447 -14697737.56245  22699481.0784                   22699479.9024
 -23601239.77748 -18372486.85246  21508786.3444                   21508784.2774
  -5118098.25447  -3970128.96144  23848255.8754                   23848256.3324
 -39293060.64148 -30596893.74246  20666070.4614                   20666068.3094
 -36629633.33246 -28536348.81243  23879593.4924                   23879592.5354
 -30193507.03548 -23507423.02746  20979211.9924                   20979207.2704
 11  8 11  0 14  0.0000000  0  8G17G12G09G10G05G04G28G02
 -39473873.74247 -30740315.68445  22493825.5234                   22493823.0824
 -13080028.43047 -10173995.78545  22751802.1254                   22751799.7774
 -18861920.19147 -14677743.27745  22704364.2114                   22704362.5944
 -23681744.25448 -18435217.58646  21493467.0314                   21493464.7304
  -5250835.18046  -4073560.11744  23822996.1174                   23822996.5124
 -39265110.65248 -30575114.53946  20671389.4454                   20671387.0044
 -36561106.25446 -28482951.19943  23892633.9844                   23892633.4804
 -30250992.37948 -23552216.78946  20968272.7814                   20968268.2424
 11  8 11  0 14 30.0000000  0  8G17G12G09G10G05G04G28G02
 -39458424.59448 -30728277.42245  22496765.4384                   22496762.6954
 -13193868.56247 -10262702.37945  22730139.1884                   22730136.6094
 -18835698.70747 -14657310.99645  22709354.0234                   22709352.7734
 -23761638.12948 -18497472.53146  21478263.4064                   21478261.2974
  -5383418.46547  -4176871.55144  23797766.5944                   23797767.1414
 -39236702.75848 -30552978.53546  20676795.1884                   20676792.5594
 -36492218.38346 -28429272.43444  23905743.3594                   23905742.5394
 -30308000.62948 -23596638.79346  20957424.1254                   20957419.7734
 11  8 11  0 15  0.0000000  0  8G17G12G09G10G05G04G28G02
 -39442762.74247 -30716073.40645  22499745.7114                   22499743.0784
 -13307385.73447 -10351157.29345  22708537.6174                   22708534.5084
 -18808928.32447 -14636450.99645  22714448.1884                   22714447.2194
 -23840929.12148 -18559257.69946  21463174.7194                   21463172.6054
  -5515855.09847  -4280068.69944  23772564.8524                   23772565.1414
 -39207849.28948 -30530495.32846  20682285.8754                   20682283.5554
 -36422982.13746 -28375322.24644  23918918.7734                   23918917.7734
 -30364542.26248 -23640697.18046  20946664.8444                   20946660.3714
 11  8 11  0 15 30.0000000  0  8G17G12G09G10G05G04G28G02
 -39426900.57047 -30703713.31645  22502764.4534                   22502761.5124
 -13420589.62147 -10439368.10245  22686995.6644                   22686992.5234
 -18781624.63747 -14615175.43445  22719643.8754                   22719642.9614
 -23919626.93748 -18620580.64846  21448199.0084                   21448197.3834
  -5648154.80147  -4383159.14145  23747388.3754                   23747388.6994
 -39178565.21948 -30507676.58646  20687858.7034                   20687856.0864
 -36353411.76246 -28321111.67643  23932157.4064                   23932156.8834
 -30420629.95348 -23684401.85946  20935991.7344                   20935986.9614
 11  8 11  0 16  0.0000000  0  8G17G12G09G10G05G04G28G02
 -39410853.35947 -30691209.03145  22505817.9304                   22505814.8794
 -13533493.25047 -10527344.94945  22665510.8134                   22665508.0314
 -18753806.14547 -14593498.73845  22724937.8204                   22724936.8674
 -23997745.12148 -18681451.93746  21433333.7734                   21433331.8484
  -5780330.19547  -4486152.73845  23722236.5554                   23722236.6094
 -39148868.68048 -30484536.44546  20693509.8984                   20693507.4924
 -36283524.69946 -28266654.34443  23945455.8524                   23945455.5864
 -30476280.18748 -23727765.65646  20925401.7894                   20925396.7704
 11  8 11  0 16 30.0000000  0  8G17G12G09G10G05G04G28G02
 -39394643.50047 -30678577.99645  22508902.8364                   22508899.8204
 -13646117.69147 -10615104.24645  22644079.5004                   22644076.7664
 -18725498.95347 -14571441.19545  22730324.1484                   22730322.9574
 -24075304.17648 -18741887.55146  21418574.8054                   21418572.4144
  -5912401.98447  -4589065.60945  23697104.2584                   23697103.9344
 -39118785.21148 -30461094.78946  20699234.4924                   20699232.1214
 -36213345.86346 -28211969.64543  23958810.7894                   23958810.3674
 -30531516.44148 -23770806.87146  20914890.9144                   20914885.9924
 11  8 11  0 17  0.0000000  0  8G17G12G09G10G05G04G28G02
 -39378295.22347 -30665839.09845  22512013.4454                   22512010.8984
 -13758484.98847 -10702663.16845  22622695.8754                   22622693.7114
 -18696731.10247 -14549024.73845  22735798.7894                   22735797.8674
 -24152326.58648 -18801904.98446  21403918.0084                   21403915.7234
  -6044391.72747  -4691914.55545  23671987.0164                   23671987.1024
 -39088342.10548 -30437372.89846  20705027.4924                   20705024.8244
 -36142902.23446 -28157078.62543  23972215.8594                   23972214.5474
 -30586363.89548 -23813545.13346  20904453.6094                   20904448.9844
 11  8 11  0 17 30.0000000  0  8G17G12G09G10G05G04G28G02
 -39361839.25847 -30653016.28945  22515145.4144                   22515142.5394
 -13870623.41047 -10790043.73845  22601356.4454                   22601354.1454
 -18667536.35947 -14526275.63745  22741354.5864                   22741353.2894
 -24228840.45748 -18861526.16046  21389357.8364                   21389355.6884
  -6176327.55547  -4794721.51245  23646880.5864                   23646879.8134
 -39057572.44548 -30413396.55146  20710882.6644                   20710880.3054
 -36072226.29746 -28102006.59843  23985665.2274                   23985664.3634
 -30640853.71148 -23856004.71546  20894084.6564                   20894079.4654
 11  8 11  0 18  0.0000000  0  8G17G12G09G10G05G04G28G02
 -39345306.12547 -30640133.34045  22518291.0704                   22518288.7624
 -13982561.87947 -10877268.47745  22580055.4224                   22580053.2704
 -18637949.11347 -14503220.67245  22746984.3054                   22746983.8914
 -24304874.87148 -18920773.73446  21374888.6644                   21374886.9844
  -6308238.05547  -4897508.73844  23621778.5704                   23621777.8874
 -39026509.61348 -30389191.76246  20716793.8674                   20716791.4694
 -36001351.21146 -28046779.37943  23999153.0784                   23999152.4144
 -30695017.87548 -23898210.54746  20883777.6724                   20883772.5204
 11  8 11  0 18 30.0000000  0  8G17G12G09G10G05G04G28G02
 -39328729.55147 -30627216.55545  22521445.3284                   22521443.3444
 -14094332.37547 -10964362.32445  22558786.8524                   22558784.3014
 -18608007.09847 -14479889.29745  22752681.8984                   22752681.0204
 -24380462.03147 -18979672.79346  21360504.9924                   21360503.0944
  -6440154.96147  -5000300.96144  23596675.0164                   23596675.4574
 -38995191.07048 -30364787.71946  20722753.5164                   20722751.0664
 -35930313.67646 -27991425.59443  24012670.6094                   24012669.1724
 -30748891.62148 -23940190.06246  20873525.8834                   20873520.5944
 11  8 11  0 19  0.0000000  0  8G17G12G09G10G05G04G28G02
 -39312148.34447 -30614296.17245  22524601.0234                   22524598.2814
 -14205971.18747 -11051353.55545  22537541.9844                   22537540.1334
 -18577751.74247 -14456313.75045  22758439.9694                   22758438.8954
 -24455638.06648 -19038251.50046  21346199.1564                   21346197.6334
  -6572113.80947  -5103125.85244  23571563.6174                   23571564.0744
 -38963657.77348 -30340216.34046  20728753.8204                   20728751.4774
 -35859154.07046 -27935976.67643  24026212.0394                   24026210.6804
 -30802513.54748 -23981973.36346  20863322.1094                   20863316.9144
 11  8 11  0 19 30.0000000  0  8G17G12G09G10G05G04G28G02
 -39295596.96947 -30601399.03945  22527750.9454                   22527748.2624
 -14317510.71147 -11138267.42645  22516317.0164                   22516314.8284
 -18547221.51247 -14432524.00445  22764249.3054                   22764248.8484
 -24530436.00848 -19096535.57846  21331966.3834                   21331964.3014
  -6704146.98847  -5206008.66844  23546438.4844                   23546438.5944
 -38931947.21148 -30315506.83246  20734788.6954                   20734785.9574
 -35787909.42646 -27880461.48443  24039769.1484                   24039768.5824
 -30855919.71548 -24023588.53946  20853158.7734                   20853153.6914
 11  8 11  0 20  0.0000000  0  8G17G12G09G10G05G04G28G02
 -39279109.97347 -30588552.05945  22530887.6564                   22530885.3204
 -14428983.93047 -11225129.61745  22495104.3054                   22495101.9384
 -18516454.97347 -14408550.12545  22770103.7664                   22770103.4964
 -24604888.65248 -19154550.58646  21317797.8444                   21317795.9734
  -6836287.04347  -5308974.77044  23521292.6174                   23521292.8914
 -38900097.05948 -30290688.55546  20740849.1884                   20740847.4774
 -35716617.11746 -27824909.19543  24053335.8524                   24053335.3444
 -30909145.98848 -24065063.53146  20843030.2814                   20843025.3794
 11  8 11  0 20 30.0000000  0  8G17G12G09G10G05G04G28G02
 -39262716.41047 -30575777.88745  22534007.7504                   22534005.0554
 -14540417.31647 -11311960.76245  22473899.1804                   22473896.9304
 -18485484.45747 -14384417.31644  22775997.3204                   22775996.9304
 -24679023.13348 -19212317.68746  21303690.7974                   21303688.8634
  -6968560.40647  -5412044.78544  23496122.1954                   23496121.3094
 -38868139.15248 -30265786.30946  20746930.7274                   20746928.2544
 -35645308.37146 -27769344.02043  24066905.4534                   24066904.9964
 -30962222.32848 -24106421.69146  20832930.1644                   20832925.1764
 11  8 11  0 21  0.0000000  0  8G17G12G09G10G05G04G28G02
 -39246444.80147 -30563098.73845  22537103.8204                   22537101.8054
 -14651837.79347 -11398781.87145  22452696.5314                   22452693.9144
 -18454342.03947 -14360150.54345  22781923.6484                   22781923.4144
 -24752866.30148 -19269857.78546  21289639.0234                   21289637.0164
  -7100993.44147  -5515239.20744  23470921.2114                   23470920.6094
 -38836105.11348 -30240824.73846  20753026.5084                   20753024.6134
 -35574014.24246 -27713790.31243  24080472.2504                   24080471.9614
 -31015178.07048 -24147685.88746  20822853.1254                   20822848.2114
 11  8 11  0 21 30.0000000  0  8G17G12G09G10G05G04G28G02
 -39230315.37547 -30550530.37945  22540173.7114                   22540170.8674
 -14763263.80547 -11485607.28945  22431492.6484                   22431489.8674
 -18423051.74247 -14335768.55144  22787878.4774                   22787877.1954
 -24826436.68748 -19327185.32046  21275638.6644                   21275636.6644
  -7233603.98447  -5618571.96544  23445686.2894                   23445686.1564
 -38804018.15648 -30215821.94146  20759132.7734                   20759130.4654
 -35502757.44546 -27658265.66843  24094032.3524                   24094031.9064
 -31068034.71948 -24188872.85946  20812794.7734                   20812790.0354
 11  8 11  0 22  0.0000000  0  8G17G12G09G10G05G04G28G02
 -39214339.03547 -30538081.30145  22543213.5164                   22543211.2854
 -14874703.69547 -11572443.52045  22410286.4774                   22410283.8324
 -18391627.93747 -14311282.50045  22793858.1254                   22793857.3094
 -24899743.28948 -19384307.32046  21261688.7894                   21261686.8054
  -7366400.41447  -5722049.57845  23420415.6804                   23420415.6054
 -38771891.63348 -30190788.30146  20765246.0704                   20765244.3754
 -35431551.41046 -27602780.55943  24107581.8914                   24107582.1134
 -31120804.10948 -24229991.84046  20802752.9924                   20802747.7664
 11  8 11  0 22 30.0000000  0  8G17G12G09G10G05G04G28G02
 -39198517.89147 -30525753.16445  22546224.3524                   22546221.9494
 -14986157.79747 -11659290.81645  22389077.4224                   22389075.0744
 -18360076.50047 -14286697.04344  22799861.8204                   22799861.6684
 -24972786.56648 -19441224.12946  21247789.2664                   21247787.2664
  -7499382.48447  -5825671.83645  23395110.6094                   23395110.3794
 -38739731.07848 -30165728.14846  20771366.0634                   20771364.1214
 -35360400.87546 -27547338.69543  24121122.2274                   24121122.4064
 -31173489.79748 -24271045.60547  20792727.3364                   20792722.7734
 11  8 11  0 23  0.0000000  0  8G17G12G09G10G05G04G28G02
 -39182845.38747 -30513540.85245  22549207.0234                   22549204.4024
 -15097617.60247 -11746142.57445  22367867.3914                   22367864.3444
 -18328394.93747 -14262010.16445  22805891.0394                   22805890.1484
 -25045558.64148 -19497929.60946  21233941.1804                   21233938.9414
  -7632541.32847  -5929431.85245  23369770.4144                   23369770.7624
 -38707532.42648 -30140638.31246  20777493.2424                   20777491.2304
 -35289301.52346 -27491936.71143  24134651.2504                   24134651.7734
 -31226085.87548 -24312029.55146  20782718.2034                   20782713.6414
 11  8 11  0 23 30.0000000  0  8G17G12G09G10G05G04G28G02
 -39167306.83647 -30501432.92245  22552163.8674                   22552161.3094
 -15209066.00047 -11832985.45345  22346659.4614                   22346656.4924
 -18296571.81247 -14237212.96945  22811946.8364                   22811946.2704
 -25118042.71948 -19554410.68046  21220147.9384                   21220146.1414
  -7765859.58647  -6033316.08245  23344401.8444                   23344400.8594
 -38675284.05948 -30115509.73046  20783629.9304                   20783627.6884
 -35218241.25446 -27436565.21943  24148173.7344                   24148173.8284
 -31278578.82448 -24352933.13746  20772729.1804                   20772724.3634
 11  8 11  0 24  0.0000000  0  8G17G12G09G10G05G04G28G02
 -39151881.87947 -30489413.50045  22555098.8594                   22555096.5474
 -15320481.28547 -11919802.52345  22325457.7814                   22325455.1604
 -18264590.85547 -14212292.80145  22818032.7584                   22818032.3164
 -25190216.90248 -19610650.27746  21206413.9454                   21206411.6024
  -7899315.23047  -6137307.36745  23319005.5784                   23319005.3134
 -38642968.60548 -30090328.88746  20789779.2034                   20789777.1174
 -35147202.22346 -27381210.24643  24161692.7584                   24161692.5514
 -31330949.62948 -24393741.53947  20762763.6564                   20762759.0944
 11  8 11  0 24 30.0000000  0  8G17G12G09G10G05G04G28G02
 -39136542.80947 -30477461.00845  22558017.6334                   22558015.4574
 -15431833.55547 -12006570.50445  22304268.2504                   22304265.1374
 -18232428.15247 -14187231.01245  22824153.0704                   22824152.2894
 -25262052.04748 -19666625.67646  21192743.8444                   21192741.5354
  -8032877.79747  -6241381.96545  23293589.0944                   23293588.5004
 -38610561.55548 -30065076.65646  20795946.4694                   20795943.7424
 -35076159.55946 -27325852.45343  24175211.8054                   24175211.9224
 -31383172.15248 -24434434.39847  20752825.8594                   20752821.3094
 11  8 11  0 25  0.0000000  0  8G17G12G09G10G05G04G28G02
 -39121258.19547 -30465550.94545  22560926.6174                   22560923.9024
 -15543089.23847 -12093263.22746  22283096.8284                   22283094.3324
 -18200055.39847 -14162005.54345  22830313.2424                   22830312.5864
 -25333515.01648 -19722311.08246  21179144.8914                   21179142.3914
  -8166513.28947  -6345513.38345  23268159.0784                   23268158.6684
 -38578033.86748 -30039730.42246  20802136.4144                   20802133.3914
 -35005083.78146 -27270468.87143  24188737.2504                   24188737.9734
 -31435215.48848 -24474987.63346  20742922.5864                   20742917.6374
 11  8 11  0 25 30.0000000  0  8G17G12G09G10G05G04G28G02
 -39105993.02347 -30453656.02345  22563831.4614                   22563828.8554
 -15654210.88748 -12179851.50445  22261951.0164                   22261948.4734
 -18167441.76647 -14136592.35945  22836519.5004                   22836519.0944
 -25404569.02748 -19777677.82446  21165623.5634                   21165621.0864
  -8300184.55947  -6449672.66045  23242722.4304                   23242720.9844
 -38545353.63348 -30014265.32446  20808355.2114                   20808352.7234
 -34933942.80946 -27215034.52743  24202274.8204                   24202275.5314
 -31487045.90248 -24515374.96147  20733059.2974                   20733054.6994
 11  8 11  0 26  0.0000000  0  8G17G12G09G10G05G04G28G02
 -39090713.59847 -30441750.00045  22566739.2974                   22566736.8874
 -15765163.35547 -12266307.94545  22240837.1254                   22240834.7934
 -18134557.43747 -14110968.26645  22842777.5394                   22842776.6524
 -25475179.19948 -19832698.71146  21152187.1564                   21152184.7234
  -8433855.50447  -6553831.71145  23217285.2504                   23217284.5824
 -38512490.39548 -29988657.61346  20814608.5164                   20814606.3914
 -34862705.57846 -27159525.14843  24215830.9694                   24215831.2344
 -31538631.07448 -24555571.18046  20723243.1804                   20723238.1094
 11  8 11  0 26 30.0000000  0  8G17G12G09G10G05G04G28G02
 -39075385.22347 -30429805.82045  22569655.8914                   22569653.5004
 -15875909.88347 -12352603.91046  22219762.9774                   22219760.6454
 -18101371.60947 -14085109.23845  22849092.8364                   22849092.2274
 -25545309.41848 -19887345.60946  21138841.9694                   21138839.4304
  -8567489.15647  -6657961.69545  23191855.0474                   23191854.6954
 -38479412.33248 -29962882.51246  20820903.1644                   20820900.7464
 -34791339.66446 -27103915.49243  24229412.0084                   24229412.3244
 -31589937.55548 -24595550.25046  20713479.6334                   20713474.8714
 11  8 11  0 27  0.0000000  0  8G17G12G09G10G05G04G28G02
 -39059976.55547 -30417799.09845  22572588.7194                   22572585.6524
 -15986416.96947 -12438713.30946  22198734.1724                   22198731.8164
 -18067856.60547 -14058993.70745  22855470.4144                   22855469.5864
 -25614926.65648 -19941592.78546  21125593.8754                   21125591.6884
  -8701051.62547  -6762036.21945  23166439.1174                   23166438.4064
 -38446090.60548 -29936917.53146  20827244.3054                   20827241.8014
 -34719816.47746 -27048183.31643  24243022.1724                   24243022.4734
 -31640934.93448 -24635288.44147  20703775.0634                   20703770.4964
 11  8 11  0 27 30.0000000  0  8G17G12G09G10G05G04G28G02
 -39044457.31247 -30405706.20745  22575540.7584                   22575539.1414
 -16096652.18447 -12524610.84846  22177757.2194                   22177754.9654
 -18033985.63347 -14032600.80945  22861915.9304                   22861915.0234
 -25683999.21548 -19995415.53146  21112449.9454                   21112447.8204
  -8834510.09847  -6866029.70345  23141042.7504                   23141041.7194
 -38412498.02348 -29910741.50046  20833636.6804                   20833634.1374
 -34648108.20746 -26992306.89543  24256668.1174                   24256668.1214
 -31691593.93448 -24674762.96947  20694135.2274                   20694130.8634
 11  8 11  0 28  0.0000000  0  8G17G12G09G10G05G04G28G02
 -39028800.35947 -30393506.02345  22578521.2274                   22578518.3594
 -16206586.29748 -12610273.75446  22156837.5554                   22156835.0664
 -17999735.21147 -14005912.22745  22868433.5234                   22868432.5744
 -25752498.35248 -20048791.45346  21099415.2814                   21099412.9184
  -8967835.15647  -6969919.22345  23115671.7894                   23115671.4884
 -38378610.37548 -29884335.55146  20840084.9454                   20840082.8954
 -34576190.10546 -26936266.98043  24270353.3284                   24270353.5314
 -31741888.85248 -24713953.79747  20684564.3204                   20684559.3634
 11  8 11  0 28 30.0000000  0  8G17G12G09G10G05G04G28G02
 -39012981.54347 -30381179.71945  22581531.5704                   22581528.5474
 -16316193.54347 -12695681.96146  22135980.0634                   22135977.1214
 -17965085.62147 -13978912.61345  22875027.3674                   22875026.3014
 -25820398.71948 -20101700.81246  21086493.7194                   21086491.6564
  -9101000.55147  -7073684.34045  23090331.5164                   23090329.8524
 -38344406.59448 -29857683.25846  20846593.9454                   20846591.4344
 -34504041.35546 -26880047.31643  24284083.3204                   24284083.4574
 -31791797.14848 -24752843.35946  20675066.9924                   20675062.3714
 11  8 11  0 29  0.0000000  0  7G17G12G09G10G05G04G02
 -38996979.86347 -30368710.91445  22584576.1724                   22584573.3874
 -16425450.98048 -12780817.59446  22115188.8594                   22115185.8874
 -17930019.59447 -13951588.49245  22881700.0784                   22881699.6374
 -25887677.98448 -20154126.19546  21073690.7034                   21073688.6724
  -9233983.03147  -7177306.93745  23065025.5554                   23065024.0944
 -38309868.78548 -29830770.68446  20853166.3364                   20853163.8364
 -31841299.01248 -24791416.23046  20665647.0864                   20665642.0944
 11  8 11  0 29 30.0000000  0  7G17G12G09G10G05G04G02
 -38980778.08247 -30356086.19945  22587659.3594                   22587656.5004
 -16534338.95347 -12865665.33646  22094467.9534                   22094465.2584
 -17894523.37147 -13923929.14545  22888454.6724                   22888454.4184
 -25954317.21948 -20206052.85946  21061009.9694                   21061007.8914
  -9366761.92647  -7280770.89845  23039758.6414                   23039757.3834
 -38274982.16848 -29803586.30946  20859804.8754                   20859802.9264
 -31890378.09048 -24829659.65646  20656307.6254                   20656303.1724
 11  8 11  0 30  0.0000000  0  7G17G12G09G10G05G04G02
 -38964356.26647 -30343290.01645  22590784.3134                   22590781.5204
 -16642835.69148 -12950208.21946  22073821.9694                   22073819.2464
 -17858581.10947 -13895922.25445  22895294.2734                   22895293.6724
 -26020295.49248 -20257464.48846  21048454.7274                   21048452.4024
  -9499315.98847  -7384059.66845  23014533.6024                   23014532.9104
 -38239729.69548 -29776116.85546  20866513.3054                   20866511.1054
 -31939015.73848 -24867559.12146  20647052.2114                   20647047.3874
 11  8 11  0 30 30.0000000  0  7G17G12G09G10G05G04G02
 -38947698.27047 -30330309.79345  22593953.8914                   22593951.5824
 -16750922.81248 -13034431.93446  22053253.5004                   22053250.3524
 -17822180.53547 -13867558.21944  22902221.6484                   22902220.0044
 -26085595.25848 -20308347.41046  21036028.6254                   21036026.7074
  -9631626.34847  -7487158.54345  22989356.0164                   22989355.1564
 -38204098.53948 -29748352.33246  20873293.7504                   20873291.1484
 -31987197.25848 -24905103.15246  20637883.7664                   20637878.6334
 11  8 11  0 31  0.0000000  0  7G17G12G09G10G05G04G02
 -38930792.11747 -30317136.21145  22597171.1024                   22597169.0944
 -16858587.05948 -13118326.14846  22032765.5084                   22032762.9574
 -17785313.88347 -13838831.01244  22909236.9064                   22909235.8984
 -26150203.11348 -20358691.17246  21023733.9694                   21023732.0124
  -9763678.62147  -7590056.31245  22964227.2974                   22964226.2234
 -38168079.66448 -29720285.68446  20880148.1334                   20880145.7234
 -32034912.16048 -24942283.58246  20628803.7664                   20628798.9344
 11  8 11  0 31 30.0000000  0  7G17G12G09G10G05G04G02
 -38913632.56247 -30303765.16445  22600437.0164                   22600434.2854
 -16965820.66048 -13201884.78546  22012359.9614                   22012356.3634
 -17747979.43047 -13809739.29344  22916341.3054                   22916340.5904
 -26214112.52348 -20408490.69546  21011572.4454                   21011570.6214
  -9895465.20747  -7692747.05545  22939149.0164                   22939147.9734
 -38131670.43448 -29691914.86746  20887076.0314                   20887074.0984
 -32082156.33648 -24979097.21946  20619813.4454                   20619808.6564
 11  8 11  0 32  0.0000000  0  7G17G12G09G10G05G04G02
 -38896214.31247 -30290192.53945  22603750.9614                   22603748.9144
 -17072615.78948 -13285101.74646  21992037.2504                   21992034.1414
 -17710175.53147 -13780281.78544  22923534.8594                   22923534.7034
 -26277317.00048 -20457740.92246  20999544.9694                   20999542.9454
 -10026978.27347  -7795224.66045  22914122.8134                   22914122.0904
 -38094868.46148 -29663238.02346  20894079.4064                   20894077.1054
 -32128925.49648 -25015540.71947  20610913.5864                   20610908.8404
 11  8 11  0 32 30.0000000  0  7G17G12G09G10G05G04G02
 -38878530.80547 -30276413.23845  22607116.5234                   22607114.2624
 -17178964.89848 -13367971.17246  21971799.6804                   21971796.6454
 -17671899.67647 -13750456.48844  22930818.6564                   22930818.4614
 -26339808.78948 -20506435.79746  20987653.0944                   20987650.9694
 -10158208.94147  -7897482.22745  22889150.5004                   22889149.8594
 -38057670.13748 -29634252.32846  20901158.0314                   20901156.0634
 -32175214.76248 -25051610.25846  20602105.3134                   20602100.5164
 11  8 11  0 33  0.0000000  0  7G17G12G09G10G05G04G02
 -38860581.62147 -30262426.89845  22610531.5944                   22610529.4844
 -17284865.03548 -13450490.75446  21951647.8444                   21951644.8484
 -17633155.48447 -13720266.27744  22938191.4534                   22938191.2814
 -26401586.42648 -20554574.20346  20975897.0474                   20975895.0704
 -10289154.54747  -7999517.66845  22864232.4144                   22864230.9574
 -38020078.07048 -29604959.82046  20908311.8594                   20908309.7074
 -32221025.04748 -25087306.57447  20593387.6334                   20593382.8594
 11  8 11  0 33 30.0000000  0  7G17G12G09G10G05G04G02
 -38842364.74247 -30248231.98445  22613998.6724                   22613996.2814
 -17390312.39848 -13532657.52746  21931581.8134                   21931578.4534
 -17593944.63347 -13689712.41445  22945653.7814                   22945653.3594
 -26462646.48448 -20602153.45746  20964277.8444                   20964275.5664
 -10419810.45347  -8101327.35545  22839369.2894                   22839368.2234
 -37982092.87548 -29575360.98846  20915540.1884                   20915537.6764
 -32266355.24648 -25122628.79747  20584761.4064                   20584756.7234
 11  8 11  0 34  0.0000000  0  7G17G12G09G10G05G04G02
 -38823879.73447 -30233828.13745  22617516.2034                   22617513.9144
 -17495304.62547 -13614469.64546  21911602.8134                   21911599.2894
 -17554271.00447 -13658797.93744  22953203.5704                   22953202.6604
 -26522987.61348 -20649172.51246  20952795.4384                   20952793.1414
 -10550174.00447  -8202909.25045  22814562.0234                   22814560.3484
 -37943717.72748 -29545458.29346  20922842.6174                   20922840.3754
 -32311206.91048 -25157578.12547  20576226.4774                   20576221.8954
 11  8 11  0 34 30.0000000  0  7G17G12G09G10G05G04G02
 -38805125.56247 -30219214.53145  22621085.2584                   22621082.9384
 -17599838.37948 -13695924.50046  21891710.3594                   21891707.2464
 -17514136.82047 -13627524.62144  22960840.2344                   22960840.3014
 -26582607.22747 -20695629.32446  20941450.2584                   20941448.2814
 -10680241.68447  -8304260.59445  22789810.4694                   22789808.9924
 -37904953.72348 -29515252.59046  20930219.2424                   20930216.7504
 -32355579.60548 -25192154.23847  20567782.8054                   20567777.9384
 11  8 11  0 35  0.0000000  0  7G17G12G09G10G05G04G02
 -38786102.51247 -30204391.41445  22624705.0704                   22624702.6914
 -17703912.05148 -13777020.85246  21871905.3984                   21871902.5004
 -17473546.46947 -13595895.81245  22968563.8524                   22968564.4144
 -26641504.88348 -20741523.59046  20930242.4534                   20930240.2894
 -10810011.42647  -8405379.77045  22765116.0554                   22765115.1954
 -37865804.19148 -29484746.48446  20937669.0944                   20937666.6454
 -32399475.48048 -25226358.80546  20559429.8284                   20559424.8674
 11  8 11  0 35 30.0000000  0  7G17G12G09G10G05G04G02
 -38766808.88747 -30189357.45345  22628376.2974                   22628374.3674
 -17807521.89848 -13857755.76646  21852189.1724                   21852186.5004
 -17432502.53147 -13563913.57845  22976375.2344                   22976375.2934
 -26699677.80948 -20786853.12546  20919172.3594                   20919170.0594
 -10939479.14547  -8506263.60245  22740479.5554                   22740477.8794
 -37826270.49248 -29453941.02346  20945191.9614                   20945189.5634
 -32442894.39548 -25260191.70747  20551167.3364                   20551162.3794
 11  8 11  0 36  0.0000000  0  7G17G12G09G10G05G04G02
 -38747244.35247 -30174112.39145  22632099.5784                   22632097.2504
 -17910665.59447 -13938127.45346  21832561.1954                   21832558.6724
 -17391008.34847 -13531580.48845  22984270.8134                   22984270.5784
 -26757124.98448 -20831617.13746  20908240.3284                   20908238.2814
 -11068642.14147  -8606909.98845  22715900.3524                   22715898.9454
 -37786355.23848 -29422838.25846  20952787.9144                   20952785.7234
 -32485837.35948 -25293653.75047  20542995.5084                   20542990.4734
 11  8 11  0 36 30.0000000  0  7G17G12G09G10G05G04G02
 -38727410.23447 -30158657.25845  22635874.2894                   22635871.7074
 -18013342.45348 -14018135.36346  21813022.7504                   21813020.1334
 -17349069.13346 -13498900.62944  22992251.9224                   22992251.8164
 -26813846.03148 -20875815.32846  20897446.5704                   20897444.7504
 -11197499.05547  -8707317.86345  22691379.5234                   22691378.3794
 -37746062.32048 -29391441.19946  20960455.0394                   20960453.1564
 -32528306.59048 -25326746.65247  20534913.9224                   20534909.3164
 11  8 11  0 37  0.0000000  0  7G17G12G09G10G05G04G02
 -38707306.25847 -30142991.85245  22639699.5084                   22639697.2344
 -18115550.44948 -14097777.92646  21793573.6954                   21793570.7584
 -17306688.50847 -13465876.81645  23000316.7584                   23000316.1914
 -26869839.87948 -20919446.87146  20886791.4924                   20886789.4454
 -11326047.45347  -8807485.34045  22666917.8054                   22666916.2664
 -37705394.54748 -29359752.04746  20968194.1334                   20968192.0554
 -32570303.21948 -25359471.28547  20526922.5474                   20526917.4414
 11  8 11  0 37 30.0000000  0  7G17G12G09G10G05G04G02
 -38686932.57847 -30127116.28145  22643576.9064                   22643574.5204
 -18217287.77048 -14177053.73046  21774213.4304                   21774210.4024
 -17263871.00047 -13432512.58244  23008464.4454                   23008464.5044
 -26925106.18748 -20962511.50046  20876274.8134                   20876272.3444
 -11454285.20747  -8907410.75045  22642514.9694                   22642513.3874
 -37664354.99648 -29327773.20346  20976003.8674                   20976001.7074
 -32611829.32848 -25391829.28547  20519019.8754                   20519015.1374
 11  8 11  0 38  0.0000000  0  7G17G12G09G10G05G04G02
 -38666290.31247 -30111031.44145  22647504.2114                   22647502.4534
 -18318553.27348 -14255961.88346  21754943.2814                   21754939.9654
 -17220621.27347 -13398811.56645  23016694.7034                   23016694.5784
 -26979644.87148 -21005009.14846  20865896.3284                   20865894.0824
 -11582210.69947  -9007092.83645  22618171.3524                   22618169.9104
 -37622947.38748 -29295507.56646  20983883.3674                   20983881.1174
 -32652887.10548 -25423822.35547  20511206.9144                   20511202.2194
 11  8 11  0 38 30.0000000  0  7G17G12G09G10G05G04G02
 -38645380.59447 -30094738.17645  22651483.8364                   22651481.3594
 -18419346.68447 -14334502.17646  21735762.8444                   21735759.5704
 -17176944.84447 -13364778.03544  23025006.7114                   23025005.4844
 -27033456.04348 -21046939.90246  20855656.4534                   20855654.2274
 -11709822.94147  -9106530.84045  22593887.3524                   22593885.5474
 -37581176.24248 -29262958.64146  20991832.0784                   20991830.1644
 -32693479.62148 -25455452.86347  20503482.2894                   20503477.7664
 11  8 11  0 39  0.0000000  0  7G17G12G09G10G05G04G02
 -38624205.02347 -30078237.75845  22655513.0944                   22655511.1564
 -18519667.34847 -14412674.08246  21716672.4534                   21716669.1524
 -17132847.16847 -13330416.27044  23033397.4144                   23033397.3954
 -27086540.52748 -21088304.41046  20845554.6174                   20845552.8244
 -11837121.21947  -9205724.20345  22569662.8914                   22569661.9574
 -37539045.50848 -29230129.51646  20999849.3984                   20999847.2344
 -32733609.39548 -25486722.80147  20495846.1484                   20495841.5354
 11  8 11  0 39 30.0000000  0  7G17G12G09G10G05G04G02
 -38602764.79347 -30061531.09045  22659593.3284                   22659591.0084
 -18619514.37947 -14490476.93446  21697672.4924                   21697669.1024
 -17088333.19147 -13295730.10545  23041868.1254                   23041867.9304
 -27138898.70748 -21129102.95746  20835591.2894                   20835588.9144
 -11964104.24247  -9304671.91445  22545498.9064                   22545497.5944
 -37496559.61348 -29197023.65246  21007934.1484                   21007932.2894
 -32773279.33648 -25517634.43447  20488296.9454                   20488291.9614
 11  8 11  0 40  0.0000000  0  7G17G12G09G10G05G04G02
 -37005642.04347 -28817019.86745  22963515.9144                   22963513.4614
 -17143463.71148 -13340307.56646  21978555.2664                   21978551.9494
 -15467989.85547 -12033124.97344  23350209.8754                   23350208.3874
 -25615109.44548 -19941734.68046  21125558.5784                   21125556.2544
 -10515346.57447  -8175769.74245  22821188.2114                   22821186.8714
 -35878303.77748 -27936045.09046  21315878.1094                   21315875.6884
 -31237070.78548 -24320588.80947  20780627.8054                   20780622.8674
 11  8 11  0 40 30.0000000  0  7G17G12G09G10G05G04G02
 -36983675.46547 -28799903.07845  22967695.2734                   22967693.0984
 -17242360.27347 -13417369.80546  21959735.8054                   21959732.4774
 -15422658.22747 -11997801.67644  23358836.0394                   23358835.2974
 -25666015.47748 -19981401.68746  21115871.8754                   21115869.3834
 -10641694.43447  -8274222.52345  22797144.8364                   22797143.7464
 -35835118.18448 -27902394.00446  21324095.8054                   21324093.7814
 -31275827.53548 -24350788.87147  20773252.8594                   20773248.1094
 11  8 11  0 41  0.0000000  0  7G17G12G09G10G05G04G02
 -36961447.57847 -28782582.67645  22971925.0944                   22971923.6254
 -17340781.03147 -13494061.28946  21941007.0474                   21941003.7194
 -15376925.88747 -11962166.18444  23367538.3444                   23367538.3054
 -25716196.55148 -20020503.80146  21106321.9924                   21106320.2504
 -10767723.44147  -8372426.85545  22773162.5234                   22773161.1054
 -35791589.43048 -27868475.50846  21332379.3674                   21332377.4224
 -31314132.34848 -24380636.77047  20765963.5554                   20765958.7774
 11  8 11  0 41 30.0000000  0  7G17G12G09G10G05G04G02
 -36938960.12147 -28765060.01645  22976204.7424                   22976202.8164
 -17438725.36348 -13570381.53146  21922368.7584                   21922366.2114
 -15330798.08647 -11926222.49644  23376316.3444                   23376315.8014
 -25765653.09448 -20059041.34446  21096911.0554                   21096908.5554
 -10893432.34447  -8470381.75445  22749241.1094                   22749239.5044
 -35747721.35248 -27834292.60546  21340727.0474                   21340724.9454
 -31351988.10548 -24410134.76247  20758760.0084                   20758755.0984
 11  8 11  0 42  0.0000000  0  7G17G12G09G10G05G04G02
 -36916213.54747 -28747335.46945  22980533.5554                   22980530.9774
 -17536191.75048 -13646329.35546  21903821.7114                   21903818.3164
 -15284279.12147 -11889974.04744  23385168.5164                   23385168.0124
 -25814384.91848 -20097014.17646  21087637.6954                   21087635.8594
 -11018818.99247  -8568085.55145  22725380.2424                   22725379.3484
 -35703517.78948 -27799848.30146  21349138.6954                   21349136.7384
 -31389396.55148 -24439284.19146  20751641.2114                   20751636.5984
 11  8 11  0 42 30.0000000  0  7G17G12G09G10G05G04G02
 -36893210.47747 -28729411.03945  22984910.9534                   22984908.5664
 -17633180.68048 -13721905.13746  21885365.3054                   21885362.5164
 -15237375.96147 -11853426.17644  23394093.9774                   23394093.9024
 -25862393.76648 -20134423.66446  21078501.9534                   21078499.6844
 -11143884.21147  -8665538.86745  22701581.1174                   22701579.7894
 -35658983.64848 -27765146.39146  21357613.3754                   21357610.9774
 -31426361.71548 -24468088.20747  20744606.8754                   20744602.3914
 11  8 11  0 43  0.0000000  0  8G17G12G09G10G05G04G25G02
 -36869952.21147 -28711287.75845  22989336.6414                   22989334.4964
 -17729691.75847 -13797108.55946  21866999.1954                   21866996.7344
 -15190093.98047 -11816583.15244  23403091.5314                   23403091.3054
 -25909680.56248 -20171270.49646  21069503.6024                   21069501.1484
 -11268626.84447  -8762740.82845  22677843.1564                   22677842.0434
 -35614123.46948 -27730190.42246  21366150.0864                   21366147.5434
   2961103.16856   2321218.27053  24767623.9694                   24767624.4844
 -31462886.78948 -24496549.29347  20737656.7194                   20737651.9774
 11  8 11  0 43 30.0000000  0  8G17G12G09G10G05G04G25G02
 -36846442.35547 -28692968.43045  22993810.4304                   22993808.3164
 -17825726.92648 -13871941.14546  21848724.4064                   21848721.3204
 -15142440.64147 -11779450.74644  23412159.6954                   23412159.2034
 -25956248.34848 -20207557.07046  21060641.9844                   21060639.3754
 -11393047.98847  -8859692.26645  22654166.5554                   22654165.4104
 -35568943.53148 -27694985.29346  21374747.5164                   21374745.6884
   2831673.16846   2220363.76243  24742994.8674                   24742994.7854
 -31498976.65648 -24524671.27347  20730788.9694                   20730784.3634
 11  8 11  0 44  0.0000000  0  8G17G12G09G10G05G04G25G02
 -36822687.10947 -28674457.88745  22998331.3204                   22998328.5434
 -17921290.27048 -13946406.07846  21830539.8674                   21830536.8164
 -15094426.04347 -11742036.84844  23421296.9614                   23421296.1954
 -26002102.72348 -20243287.74246  21051916.0084                   21051913.7814
 -11517151.49247  -8956396.21145  22630550.6094                   22630548.9844
 -35523453.00848 -27659538.14546  21383404.1954                   21383402.1524
   2702453.77746   2119673.36343  24718405.0474                   24718405.7424
 -31534638.95748 -24552460.08647  20724002.3834                   20723998.0704
 11  8 11  0 44 30.0000000  0  8G17G12G09G10G05G04G25G02
 -36798689.21147 -28655758.25445  23002897.6024                   23002895.2814
 -18016382.62547 -14020504.00446  21812444.0394                   21812440.9654
 -15046056.96947 -11704346.73044  23430501.4304                   23430500.9654
 -26047245.83648 -20278464.18446  21043325.7894                   21043323.3834
 -11640937.67647  -9052852.89845  22606994.3984                   22606993.3014
 -35477657.01648 -27623852.98446  21392118.5474                   21392116.6214
   2573444.20346   2019146.46643  24693855.1954                   24693855.4774
 -31569877.86748 -24579918.96147  20717296.8674                   20717291.9264
 11  8 11  0 45  0.0000000  0  8G17G12G09G10G05G04G25G02
 -36774447.04747 -28636868.28145  23007510.9774                   23007508.6844
 -18111000.53147 -14094232.22346  21794438.7664                   21794436.2274
 -14997335.83647 -11666382.28944  23439772.7734                   23439772.0664
 -26091675.27048 -20313084.51246  21034870.9454                   21034868.9804
 -11764402.54747  -9149059.19545  22583499.7114                   22583498.6414
 -35431557.06648 -27587930.96546  21400891.0394                   21400889.0354
   2444647.98847   1918785.81343  24669345.8444                   24669346.7424
 -31604693.67648 -24607048.16047  20710671.5784                   20710666.6604
 11  8 11  0 45 30.0000000  0  8G17G12G09G10G05G04G25G02
 -36749960.84047 -28617788.14845  23012170.6804                   23012168.0984
 -18205141.96947 -14167589.17246  21776524.3134                   21776521.7894
 -14948266.87947 -11628146.79344  23449109.9614                   23449110.1914
 -26135390.96548 -20347148.68046  21026552.1644                   21026550.1094
 -11887543.68047  -9245013.24245  22560066.9924                   22560065.8134
 -35385155.96548 -27551774.28546  21409721.0004                   21409718.6764
   2316066.73447   1818592.65644  24644877.7504                   24644878.7234
 -31639087.84448 -24633848.80947  20704126.7344                   20704121.6724
 11  8 11  0 46  0.0000000  0  8G17G12G09G10G05G04G25G02
 -36725230.02047 -28598517.42645  23016876.4534                   23016874.4734
 -18298804.29347 -14240572.79746  21758700.9844                   21758698.2974
 -14898853.38747 -11589642.85544  23458513.4614                   23458513.0824
 -26178391.77048 -20380655.79346  21018369.6884                   21018366.9614
 -12010357.96147  -9340712.59445  22536695.8284                   22536694.5514
 -35338456.02048 -27515384.75446  21418607.7584                   21418605.7234
   2187703.13747   1718569.17244  24620450.5394                   24620451.6914
 -31673061.15248 -24660321.51247  20697661.7664                   20697656.8364
 11  8 11  0 46 30.0000000  0  8G17G12G09G10G05G04G25G02
 -36700254.81247 -28579056.27045  23021629.5234                   23021627.5704
 -18391986.34048 -14313182.16846  21740969.1804                   21740965.9964
 -14849099.78546 -11550873.87144  23467981.2894                   23467980.9024
 -26220677.41448 -20413605.64146  21010322.9924                   21010320.4494
 -12132843.41847  -9436155.72345  22513387.7734                   22513386.3404
 -35291460.06248 -27478764.55146  21427550.9844                   21427548.9184
   2059558.69147   1618716.44943  24596065.4224                   24596066.9064
 -31706615.44948 -24686467.69947  20691276.2584                   20691271.2424
 11  8 11  0 47  0.0000000  0  8G17G12G09G10G05G04G25G02
 -36675034.58247 -28559404.18745  23026428.7344                   23026426.6294
 -18484685.35947 -14385415.15246  21723328.8284                   21723325.7734
 -14799009.36347 -11511842.43744  23477513.2974                   23477513.0984
 -26262246.71148 -20445997.30146  21002412.3444                   21002410.0904
 -12254997.41847  -9531340.57845  22490142.5704                   22490141.1994
 -35244170.41848 -27441915.50046  21436550.0004                   21436547.6214
   1931635.90247   1519036.43443  24571722.7344                   24571723.0634
 -31739752.02048 -24712288.39546  20684970.7274                   20684966.1094
 11  8 11  0 47 30.0000000  0  8G17G12G09G10G05G04G25G02
 -36649568.13747 -28539560.25045  23031274.5314                   23031272.6334
 -18576898.23448 -14457269.33246  21705781.4844                   21705778.4734
 -14748584.80947 -11472550.64844  23487109.1174                   23487108.7774
 -26303098.20348 -20477829.62146  20994638.5474                   20994636.2274
 -12376816.15647  -9626264.20345  22466961.0234                   22466959.7424
 -35196588.52048 -27404838.71946  21445604.3754                   21445602.1254
   1803937.91847   1419531.56643  24547422.7664                   24547423.1094
 -31772471.07448 -24737783.75847  20678744.6094                   20678739.6564
 11  8 11  0 48  0.0000000  0  8G17G12G09G10G05G04G25G02
 -36623856.35247 -28519525.13745  23036167.5944                   23036165.5204
 -18668623.85548 -14528743.81646  21688326.7344                   21688323.7304
 -14697831.11747 -11433002.37944  23496767.3984                   23496766.2704
 -26343232.45748 -20509103.04746  20987001.3984                   20986998.9654
 -12498298.12947  -9720925.39545  22443843.9774                   22443842.5864
 -35148717.95348 -27367536.99646  21454713.9064                   21454711.8244
   1676465.87947   1320202.80543  24523166.1484                   24523165.3524
 -31804774.71548 -24762955.41847  20672597.3914                   20672592.1604
 11  8 11  0 48 30.0000000  0  8G17G12G09G10G05G04G25G02
 -36597897.86747 -28499297.78145  23041106.9774                   23041105.3324
 -18759859.10247 -14599836.20346  21670965.4304                   21670962.4104
 -14646750.50047 -11393199.37544  23506487.1174                   23506486.7234
 -26382647.70748 -20539816.21546  20979501.0634                   20979498.7154
 -12619439.14547  -9815320.92645  22420791.5634                   22420789.5984
 -35100560.05548 -27330011.39146  21463878.2504                   21463876.0944
   1549223.09846   1221052.66043  24498952.0394                   24498951.3244
 -31836663.43048 -24787803.75447  20666529.1334                   20666524.4574
 11  8 11  0 49  0.0000000  0  8G17G12G09G10G05G04G25G02
 -36571693.55547 -28478878.86745  23046094.1884                   23046091.8014
 -18850602.91448 -14670545.64546  21653697.3524                   21653693.9534
 -14595347.98447 -11353145.54344  23516268.5474                   23516268.7194
 -26421344.31248 -20569969.40246  20972137.0784                   20972134.9184
 -12740237.72347  -9909449.62145  22397804.1174                   22397803.1914
 -35052118.24248 -27292264.54346  21473096.1804                   21473094.0354
   1422210.69546   1122082.05943  24474781.7894                   24474781.0204
 -31868139.18448 -24812330.30547  20660539.4064                   20660534.5164
 11  8 11  0 49 30.0000000  0  8G17G12G09G10G05G04G25G02
 -36545242.23847 -28458267.49645  23051127.6804                   23051125.4024
 -18940852.46548 -14740869.94946  21636523.4454                   21636520.2704
 -14543626.64547 -11312843.26244  23526111.3054                   23526110.6484
 -26459321.23448 -20599561.79346  20964910.6094                   20964908.1564
 -12860690.92647 -10003309.18746  22374882.8054                   22374880.6564
 -35003394.62948 -27254298.10946  21482368.1724                   21482366.2154
   1295431.43446   1023293.09043  24450656.8674                   24450655.9694
 -31899203.05548 -24836535.91447  20654628.1174                   20654623.3594
 11  8 11  0 50  0.0000000  0  8G17G12G09G10G05G04G25G02
 -36518544.62547 -28437464.19145  23056207.5164                   23056205.8554
 -19030606.25848 -14810807.96546  21619443.4844                   21619440.4574
 -14491590.90647 -11272296.01244  23536013.1024                   23536013.0864
 -26496578.36348 -20628593.30546  20957820.7274                   20957818.2384
 -12980796.52047 -10096897.90245  22352027.5554                   22352025.6884
 -34954391.94148 -27216114.21946  21491693.2034                   21491690.8484
   1168886.97346    924687.09044  24426575.8754                   24426575.6414
 -31929856.72348 -24860421.87147  20648795.1414                   20648790.3484
 11  8 11  0 50 30.0000000  0  8G17G12G09G10G05G04G25G02
 -36491600.01647 -28416468.44145  23061335.1254                   23061333.3484
 -19119862.02347 -14880357.89546  21602459.2194                   21602456.0474
 -14439244.41047 -11231506.59844  23545975.0234                   23545974.6414
 -26533114.82848 -20657063.27046  20950868.1724                   20950865.7034
 -13100551.83647 -10190213.64845  22329238.2734                   22329237.5084
 -34905112.62148 -27177714.77746  21501070.5784                   21501068.3554
   1042579.74646    826265.96944  24402540.4614                   24402541.1684
 -31960101.14848 -24883988.94947  20643039.7424                   20643034.8324
 11  8 11  0 51  0.0000000  0  8G17G12G09G10G05G04G25G02
 -36464409.15647 -28395280.79745  23066509.7974                   23066507.2194
 -19208618.56247 -14949518.80946  21585569.1804                   21585566.1334
 -14386591.89847 -11190478.71944  23555993.7734                   23555994.1174
 -26568931.62148 -20684972.44546  20944052.4774                   20944049.6844
 -13219955.27047 -10283255.21545  22306516.9534                   22306514.7734
 -34855560.10948 -27139102.44546  21510500.0634                   21510497.5164
    916511.03946    728030.66844  24378550.2894                   24378550.7464
 -31989938.87548 -24907239.11747  20637361.7274                   20637356.7814
 11  8 11  0 51 30.0000000  0  8G17G12G09G10G05G04G25G02
 -36436971.87147 -28373901.14145  23071730.6804                   23071728.5594
 -19296873.24647 -15018288.68046  21568775.0944                   21568771.8874
 -14333636.53547 -11149214.87144  23566070.3444                   23566070.9884
 -26604027.52348 -20712319.88746  20937373.9064                   20937371.4454
 -13339003.53547 -10376020.03146  22283862.8444                   22283861.4844
 -34805736.52348 -27100278.89846  21519981.3594                   21519978.9804
    790683.35946    629983.13344  24354607.1564                   24354607.0204
 -32019370.96948 -24930173.21147  20631760.9064                   20631756.2544
 11  8 11  0 52  0.0000000  0  8G17G12G09G10G05G04G25G02
 -36409287.82447 -28352329.20745  23076998.9844                   23076996.6024
 -19384624.54747 -15086666.30546  21552076.1804                   21552073.3014
 -14280382.35946 -11107718.19144  23576205.0394                   23576205.1454
 -26638402.52748 -20739105.59446  20930832.4694                   20930830.0634
 -13457694.28947 -10468506.27346  22261277.0004                   22261275.2894
 -34755644.41848 -27061246.11746  21529513.6804                   21529511.1564
    665098.71547    532124.99644  24330708.4694                   24330709.1684
 -32048398.86348 -24952792.33647  20626237.0634                   20626232.5164
 11  8 11  0 52 30.0000000  0  8G17G12G09G10G05G04G25G02
 -36381357.64547 -28330565.45745  23082313.9774                   23082312.1414
 -19471871.06247 -15154650.59046  21535473.8914                   21535470.4964
 -14226834.02346 -11065992.29743  23586394.7034                   23586394.5824
 -26672057.25448 -20765330.03546  20924427.8984                   20924425.5594
 -13576025.75847 -10560712.54746  22238758.8364                   22238756.9344
 -34705287.02348 -27022006.60946  21539096.3054                   21539093.7624
    539758.48047    434457.28944  24306857.5394                   24306857.7034
 -32077024.86348 -24975098.29747  20620790.1094                   20620784.9884
 11  8 11  0 53  0.0000000  0  8G17G12G09G10G05G04G25G02
 -36353180.69947 -28308609.44145  23087675.1724                   23087673.7624
 -19558610.10547 -15222239.44946  21518967.8594                   21518964.4804
 -14172994.77046 -11024039.70344  23596639.7974                   23596640.5824
 -26704990.73848 -20790992.48046  20918161.0474                   20918158.7234
 -13693995.17647 -10652636.69546  22216309.9064                   22216308.0204
 -34654666.34448 -26982561.94546  21548729.1644                   21548727.0744
    414665.42647    336982.19144  24283052.4144                   24283053.7114
 -32105249.62948 -24997091.61347  20615418.9384                   20615413.9304
 11  8 11  0 53 30.0000000  0  8G17G12G09G10G05G04G25G02
 -36324756.91047 -28286461.07045  23093084.8834                   23093082.7774
 -19644840.04347 -15289431.59846  21502559.0084                   21502555.8404
 -14118868.57047 -10981863.53144  23606940.4454                   23606939.8524
 -26737202.80948 -20816092.79346  20912031.3754                   20912029.1374
 -13811599.73447 -10744276.54746  22193930.6414                   22193928.8444
 -34603784.91448 -26942914.10246  21558411.5944                   21558409.2464
    289821.64147    239701.34044  24259295.2424                   24259296.5084
 -32133074.96948 -25018773.68047  20610123.7894                   20610119.0314
 11  8 11  0 54  0.0000000  0  8G17G12G09G10G05G04G25G02
 -36296086.04347 -28264120.16845  23098540.5004                   23098538.4844
 -19730558.84447 -15356225.45746  21486247.4304                   21486244.1334
 -14064458.91847 -10939466.46544  23617294.1954                   23617294.1054
 -26768693.15248 -20840630.71546  20906038.5944                   20906036.7584
 -13928837.01647 -10835630.21946  22171620.9614                   22171619.2234
 -34552645.05548 -26903064.87946  21568143.2114                   21568140.9734
    165229.33247    142616.42644  24235586.1724                   24235587.0594
 -32160502.11748 -25040145.47347  20604904.2734                   20604899.7624
 11  8 11  0 54 30.0000000  0  8G17G12G09G10G05G04G25G02
 -36267169.01247 -28241587.45345  23104042.8594                   23104041.4264
 -19815765.68447 -15422620.37146  21470032.7734                   21470029.7074
 -14009771.07447 -10896852.61344  23627700.5784                   23627701.0514
 -26799463.07848 -20864607.27046  20900183.2114                   20900181.1724
 -14045705.63347 -10926696.60546  22149381.3284                   22149379.7464
 -34501250.56248 -26863017.23446  21577922.9774                   21577921.3054
     40889.52747     45728.28943  24211924.5864                   24211925.7894
 -32187533.53548 -25061208.90247  20599760.5784                   20599755.5434
 11  8 11  0 55  0.0000000  0  8G17G12G09G10G05G04G25G02
 -36238006.59847 -28218863.53545  23109593.0554                   23109590.5474
 -19900459.13747 -15488615.25046  21453916.3444                   21453912.9344
 -13954809.12947 -10854025.21544  23638160.1094                   23638160.1954
 -26829512.87548 -20888022.69146  20894464.9454                   20894462.8134
 -14162203.67247 -11017474.24246  22127212.7034                   22127211.2304
 -34449604.63348 -26822773.68445  21587750.9064                   21587748.9304
    -83196.25846    -50961.90643  24188312.5164                   24188312.3094
 -32214171.61748 -25081965.84447  20594691.7194                   20594686.8484
 11  8 11  0 55 30.0000000  0  8G17G12G09G10G05G04G25G02
 -36208598.07447 -28195947.85245  23115189.2584                   23115187.4264
 -19984636.82048 -15554208.22346  21437897.7344                   21437894.5274
 -13899576.73447 -10810987.05944  23648670.1094                   23648670.4964
 -26858841.97748 -20910876.53146  20888884.2274                   20888881.5234
 -14278328.13347 -11107960.77746  22105114.5784                   22105112.6524
 -34397709.04348 -26782335.57846  21597626.2424                   21597624.3754
   -207025.39846   -147452.10943  24164747.9534                   24164748.4144
 -32240417.21548 -25102416.95347  20589697.1884                   20589692.2234
 11  8 11  0 56  0.0000000  0  8G17G12G09G10G05G04G25G02
 -36178945.17247 -28172841.74245  23120832.2664                   23120830.1374
 -20068298.93448 -15619399.46546  21421977.3364                   21421974.2274
 -13844079.94547 -10767742.87944  23659231.2034                   23659231.0474
 -26887452.46148 -20933170.40246  20883439.9144                   20883437.5274
 -14394078.66047 -11198155.93446  22083088.2894                   22083086.5634
 -34345568.28548 -26741706.44946  21607548.5004                   21607546.3284
   -330597.56647   -243742.09044  24141233.0314                   24141233.2034
 -32266273.85948 -25122564.97747  20584777.0234                   20584771.8914
 11  8 11  0 56 30.0000000  0  8G17G12G09G10G05G04G25G02
 -36149048.38347 -28149545.56645  23126520.6644                   23126518.9804
 -20151443.91047 -15684187.74246  21406155.4774                   21406152.0164
 -13788323.00047 -10724295.97744  23669841.3984                   23669841.9694
 -26915344.44548 -20954904.40646  20878132.0784                   20878129.7544
 -14509453.03947 -11288058.00046  22061133.2664                   22061131.6454
 -34293185.44148 -26700888.67245  21617516.7814                   21617514.2664
   -453911.20346   -339830.59043  24117767.3524                   24117767.9064
 -32291743.27748 -25142411.25447  20579930.1724                   20579925.6134
 11  8 11  0 57  0.0000000  0  8G17G12G09G10G05G04G25G02
 -36118908.62147 -28126060.07045  23132256.0394                   23132254.1094
 -20234070.63748 -15748572.19946  21390431.9774                   21390429.0554
 -13732310.45347 -10680649.91444  23680500.7344                   23680500.0044
 -26942519.07448 -20976079.42646  20872960.7974                   20872958.5204
 -14624450.01247 -11377665.97746  22039250.0164                   22039248.3134
 -34240563.90248 -26659884.90246  21627530.5704                   21627528.1524
   -576965.11747   -435716.68744  24094351.3134                   24094352.4494
 -32316828.36748 -25161958.07447  20575156.5634                   20575151.7114
 11  8 11  0 57 30.0000000  0  8G17G12G09G10G05G04G25G02
 -36088525.98047 -28102385.30945  23138038.2504                   23138036.2234
 -20316177.79748 -15812551.79346  21374807.5234                   21374804.2894
 -13676046.10947 -10636807.63344  23691206.7584                   23691206.5204
 -26968976.05948 -20996695.24646  20867926.2274                   20867923.7934
 -14739067.00047 -11466977.87146  22017438.9534                   22017436.9264
 -34187705.88748 -26618696.86745  21637588.7194                   21637586.7814
   -699757.09847   -531398.71144  24070984.6884                   24070985.5274
 -32341530.48848 -25181206.47347  20570455.5554                   20570451.2154
 11  8 11  0 58  0.0000000  0  8G17G12G09G10G05G04G25G02
 -36057900.54747 -28078521.35945  23143866.3054                   23143864.1054
 -20397763.87548 -15876125.35246  21359282.1644                   21359279.0904
 -13619534.54747 -10592772.74244  23701960.7664                   23701961.5864
 -26994716.23448 -21016752.50846  20863028.0784                   20863026.0124
 -14853301.97347 -11555992.08646  21995700.8284                   21995699.4264
 -34134614.69548 -26577327.12945  21647691.7344                   21647689.5634
   -822285.57447   -626875.37944  24047667.7274                   24047669.1644
 -32365851.53948 -25200157.94547  20565827.7894                   20565822.8484
 11  8 11  0 58 30.0000000  0  8G17G12G09G10G05G04G25G02
 -36027034.43047 -28054469.87144  23149739.7114                   23149737.5314
 -20478828.61348 -15939292.68446  21343856.2344                   21343853.3284
 -13562781.56646 -10548549.73044  23712760.5314                   23712760.8404
 -27019741.60947 -21036252.78946  20858266.2584                   20858263.6684
 -14967154.45747 -11644708.24646  21974035.6564                   21974033.5864
 -34081294.58648 -26535779.03145  21657838.3984                   21657836.3984
   -944550.31247   -722146.57444  24024401.9844                   24024403.3404
 -32389795.07848 -25218815.23847  20561271.2894                   20561266.5234
 11  8 11  0 59  0.0000000  0  8G17G12G09G10G05G04G25G02
 -35995929.26647 -28030232.09044  23155658.8444                   23155656.4734
 -20559372.52048 -16002054.15246  21328528.9924                   21328525.8404
 -13505792.75847 -10504142.95744  23723605.8444                   23723605.3594
 -27044054.47348 -21055197.86346  20853639.3674                   20853636.9534
 -15080624.00047 -11733126.02046  21952443.0084                   21952440.7234
 -34027750.04748 -26494056.03545  21668027.4924                   21668025.5704
  -1066551.01247   -817211.98844  24001185.7424                   24001187.2384
 -32413364.52048 -25237181.03547  20556786.3984                   20556781.7114
 11  8 11  0 59 30.0000000  0  8G17G12G09G10G05G04G25G02
 -35964585.32047 -28005808.26244  23161623.1564                   23161621.1994
 -20639393.80148 -16064408.39846  21313301.5554                   21313298.3324
 -13448572.39547 -10459555.78144  23734494.1334                   23734494.4654
 -27067654.86348 -21073587.77346  20849148.1334                   20849146.4264
 -15193708.46947 -11821243.72746  21930923.5234                   21930921.9924
 -33973983.49248 -26452160.04745  21678259.2584                   21678256.8204
  -1188285.64847   -912070.06244  23978021.1094                   23978021.8324
 -32436561.72748 -25255256.77347  20552372.0164                   20552366.8834
 11  8 11  1  0  0.0000000  0  8G17G12G09G10G05G04G25G02
 -35933003.71947 -27981199.25845  23167633.0394                   23167631.3204
 -20718891.83248 -16126354.91046  21298173.7274                   21298170.3164
 -13391125.55547 -10414792.08244  23745426.0164                   23745425.7274
 -27090544.61748 -21091423.93046  20844792.2424                   20844790.0864
 -15306406.68447 -11909060.46546  21909477.8054                   21909475.9494
 -33919998.50048 -26410093.85245  21688531.7894                   21688529.7234
  -1309753.30147  -1006720.11344  23954906.2584                   23954906.9804
 -32459389.13748 -25273044.35247  20548028.2974                   20548023.3794
 11  8 11  1  0 30.0000000  0  8G17G12G09G10G05G04G25G02
 -35901184.77047 -27956405.32445  23173688.3444                   23173686.4694
 -20797864.89148 -16187892.35546  21283145.1414                   21283142.1054
 -13333455.80947 -10369854.72744  23756400.1024                   23756400.6134
 -27112723.73847 -21108706.34446  20840571.9454                   20840569.9344
 -15418716.09847 -11996574.23446  21888105.8524                   21888103.8484
 -33865797.77048 -26367859.53545  21698846.0084                   21698844.0204
  -1430951.89147  -1101160.45344  23931842.4534                   23931844.3444
 -32481848.60948 -25290545.23847  20543754.4064                   20543749.3444
 11  8 11  1  1  0.0000000  0  8G17G12G09G10G05G04G25G02
 -35869129.68747 -27931427.37545  23179788.4064                   23179786.5274
 -20876312.66448 -16249020.48446  21268217.4304                   21268213.8524
 -13275568.48846 -10324747.82843  23767415.9224                   23767415.5594
 -27134193.82047 -21125436.26246  20836486.4694                   20836483.9614
 -15530635.53547 -12083784.12546  21866808.0634                   21866806.1524
 -33811384.98448 -26325459.98445  21709200.3674                   21709198.3634
  -1551880.52047  -1195390.47344  23908830.7194                   23908831.0514
 -32503943.11748 -25307761.73847  20539550.1174                   20539544.7584
 11  8 11  1  1 30.0000000  0  8G17G12G09G10G05G04G25G02
 -35836839.20347 -27906265.99245  23185932.9844                   23185930.6024
 -20954234.38748 -16309738.70746  21253389.3674                   21253385.7624
 -13217468.47747 -10279475.18744  23778471.8134                   23778471.9344
 -27154956.35248 -21141614.84046  20832535.2894                   20832532.9774
 -15642164.07047 -12170689.43446  21845585.0864                   21845583.0354
 -33756763.84848 -26282898.08645  21719594.6094                   21719592.6684
  -1672538.13347  -1289409.28144  23885869.9614                   23885871.0394
 -32525675.05548 -25324695.71147  20535414.5164                   20535409.5864
 11  8 11  1  2  0.0000000  0  8G17G12G09G10G05G04G25G02
 -35804312.80147 -27880920.78145  23192122.1954                   23192120.0824
 -21031627.66448 -16370045.14146  21238661.6954                   21238658.1294
 -13159159.18447 -10234039.49244  23789568.5084                   23789568.4144
 -27175010.98048 -21157241.80946  20828719.0164                   20828716.4844
 -15753298.63747 -12257287.75446  21824436.2344                   21824434.6174
 -33701935.78948 -26240174.94945  21730027.6644                   21730025.8324
  -1792922.03147  -1383214.84444  23862961.8984                   23862962.1994
 -32547045.69948 -25341348.16447  20531347.7424                   20531343.0204
 11  8 11  1  2 30.0000000  0  8G17G12G09G10G05G04G25G02
 -35771549.81647 -27855391.19145  23198356.7974                   23198355.1374
 -21108489.78948 -16429937.69146  21224035.4144                   21224031.9184
 -13100643.85947 -10188443.24644  23800703.0314                   23800703.0124
 -27194357.47748 -21172316.98846  20825037.5784                   20825034.9694
 -15864036.18447 -12343576.71146  21803364.2814                   21803362.2424
 -33646902.77048 -26197292.09845  21740500.3134                   21740498.6804
  -1913029.31247  -1476804.85944  23840105.6484                   23840106.5784
 -32568055.92248 -25357719.75047  20527349.7734                   20527344.6914
 11  8 11  1  3  0.0000000  0  8G17G12G09G10G05G04G25G02
 -35738550.20747 -27829677.25445  23204637.0004                   23204634.9184
 -21184819.70748 -16489415.53946  21209510.3754                   21209507.6724
 -13041926.38747 -10142689.47344  23811876.8204                   23811877.6094
 -27212996.29347 -21186840.73046  20821490.2664                   20821488.0594
 -15974374.25047 -12429554.38746  21782367.5314                   21782365.4344
 -33591667.21148 -26154251.41845  21751011.5864                   21751009.9614
  -2032857.82847  -1570177.70344  23817303.7974                   23817303.8594
 -32588707.35548 -25373811.77747  20523419.5704                   20523415.2704
 11  8 11  1  3 30.0000000  0  8G17G12G09G10G05G04G25G02
 -35705312.57447 -27803777.82044  23210961.1954                   23210959.8634
 -21260613.89848 -16548475.93446  21195087.1484                   21195084.2934
 -12983008.74247 -10096779.70344  23823088.5864                   23823089.0984
 -27230926.37948 -21200812.21946  20818078.7274                   20818076.3164
 -16084309.10247 -12515217.85546  21761447.5164                   21761445.3324
 -33536230.01248 -26111053.63345  21761560.8834                   21761558.9024
  -2152403.90647  -1663330.43444  23794554.6174                   23794555.1024
 -32608999.91448 -25389624.15647  20519558.2344                   20519553.4534
 11  8 11  1  4  0.0000000  0  8G17G12G09G10G05G04G25G02
 -35671836.55147 -27777692.64145  23217332.0784                   23217330.4734
 -21335870.67648 -16607117.56246  21180766.4454                   21180762.8204
 -12923894.64147 -10050716.88344  23834337.4614                   23834338.9064
 -27248147.86748 -21214231.54746  20814801.3364                   20814799.4494
 -16193837.90647 -12600564.91446  21740604.6024                   21740602.8524
 -33480593.34048 -26067700.40645  21772147.9454                   21772146.5434
  -2271665.18747  -1756261.27744  23771859.6174                   23771860.0744
 -32628935.00448 -25405157.98447  20515764.2664                   20515759.9494
 11  8 11  1  4 30.0000000  0  8G17G12G09G10G05G04G25G02
 -35638121.15647 -27751420.94945  23223748.2814                   23223746.0554
 -21410586.96948 -16665338.03146  21166548.3754                   21166545.5274
 -12864586.98447 -10004503.23444  23845623.3524                   23845624.1564
 -27264660.21148 -21227098.30946  20811659.2664                   20811656.9924
 -16302957.44947 -12685593.08646  21719839.7974                   21719838.2424
 -33424758.41848 -26024192.70745  21782773.0784                   21782771.0004
  -2390638.37947  -1848967.63344  23749219.9924                   23749220.1644
 -32648513.12948 -25420413.66047  20512038.6804                   20512034.2544
 11  8 11  1  5  0.0000000  0  8G17G12G09G10G05G04G25G02
 -35604164.62947 -27724961.34044  23230208.9774                   23230207.5124
 -21484759.57848 -16723134.85246  21152433.7424                   21152430.3754
 -12805087.71947  -9958140.28544  23856946.3674                   23856946.5044
 -27280461.90648 -21239411.30946  20808652.3134                   20808649.6914
 -16411663.87547 -12770299.34046  21699153.7584                   21699151.9964
 -33368725.73448 -25980530.91045  21793436.0554                   21793433.6294
  -2509319.53547  -1941446.42644  23726635.7114                   23726635.1914
 -32667734.24248 -25435391.14847  20508381.3204                   20508376.2774
 11  8 11  1  5 30.0000000  0  8G17G12G09G10G05G04G25G02
 -35569966.71547 -27698313.64844  23236716.9774                   23236715.4144
 -21558386.69148 -16780506.60946  21138422.6954                   21138419.5084
 -12745400.93047  -9911631.18443  23868304.6334                   23868304.1914
 -27295553.88747 -21251171.28146  20805780.3054                   20805778.0084
 -16519954.42647 -12854681.55146  21678546.8134                   21678544.9654
 -33312497.66848 -25936716.87545  21804135.6414                   21804133.6334
  -2627706.39147  -2033695.90244  23704107.5394                   23704107.3754
 -32686599.90248 -25450091.65247  20504791.2584                   20504786.5784
 11  8 11  1  6  0.0000000  0  8G17G12G09G10G05G04G25G02
 -35535528.08647 -27671478.39544  23243270.8364                   23243268.8794
 -21631467.02048 -16837452.32046  21124516.3984                   21124512.7304
 -12685530.65247  -9864979.13743  23879696.8054                   23879697.2194
 -27309936.93748 -21262378.84846  20803043.4614                   20803040.8364
 -16627827.24647 -12938738.24246  21658019.2584                   21658017.2424
 -33256077.09848 -25892752.81645  21814871.9384                   21814870.0944
  -2745797.21547  -2125714.69144  23681634.9924                   23681635.2774
 -32705111.91048 -25464516.58247  20501268.8834                   20501263.5204
 11  8 11  1  6 30.0000000  0  8G17G12G09G10G05G04G25G02
 -35500848.06647 -27644455.03145  23249870.1414                   23249867.9104
 -21703998.55548 -16893970.38346  21110714.0314                   21110710.8714
 -12625480.09047  -9818186.57044  23891124.9064                   23891125.1254
 -27323611.34448 -21273034.22746  20800441.2114                   20800438.9884
 -16735279.87547 -13022467.50846  21637571.4454                   21637569.5904
 -33199465.98048 -25848640.28145  21825644.3204                   21825643.0394
  -2863589.45347  -2217500.84444  23659219.6804                   23659220.3954
 -32723271.52348 -25478666.91446  20497812.9534                   20497808.2154
 11  8 11  1  7  0.0000000  0  8G17G12G09G10G05G04G25G02
 -35465926.43047 -27617243.39544  23256515.3594                   23256513.8014
 -21775979.26648 -16950059.23046  21097016.4144                   21097012.6604
 -12565252.53947  -9771256.12144  23902584.8524                   23902586.0314
 -27336577.02347 -21283137.35546  20797973.8134                   20797971.4024
 -16842309.26647 -13105866.97746  21617204.5084                   21617202.4734
 -33142665.96148 -25804380.55145  21836453.6094                   21836452.1524
  -2981080.30547  -2309052.13344  23636862.7504                   23636862.9344
 -32741079.91848 -25492543.58246  20494424.2274                   20494418.9884
 11  8 11  1  7 30.0000000  0  8G17G12G09G10G05G04G25G02
 -35430763.99647 -27589844.12944  23263206.1884                   23263204.8444
 -21847408.38348 -17005718.28146  21083424.1414                   21083420.6254
 -12504852.71547  -9724191.46143  23914079.1174                   23914079.8754
 -27348835.69147 -21292689.56646  20795640.9614                   20795638.4924
 -16948914.00047 -13188935.53946  21596918.4694                   21596916.5204
 -33085680.23448 -25759976.11345  21847297.6334                   21847295.6454
  -3098268.34847  -2400367.48044  23614562.3674                   23614562.8524
 -32758539.48448 -25506148.44146  20491101.7734                   20491096.5354
 11  8 11  1  8  0.0000000  0  8G17G12G09G10G05G04G25G02
 -35395360.04747 -27562256.66844  23269943.3834                   23269941.8984
 -21918283.55548 -17060945.67646  21069936.6644                   21069933.4384
 -12444283.94547  -9676995.14543  23925605.1954                   23925606.0434
 -27360387.35548 -21301690.86346  20793442.9064                   20793440.4264
 -17055091.31647 -13271671.04346  21576713.6334                   21576711.6294
 -33028510.36748 -25715428.19545  21858176.7974                   21858174.7504
  -3215150.78147  -2491444.69144  23592320.6094                   23592320.1254
 -32775651.47348 -25519482.44946  20487845.4924                   20487840.6724
 11  8 11  1  8 30.0000000  0  8G17G12G09G10G05G04G25G02
 -35359713.75447 -27534480.36744  23276727.2734                   23276725.8754
 -21988602.30948 -17115739.50046  21056555.4844                   21056552.4104
 -12383549.06647  -9629669.39144  23937163.2114                   23937163.4064
 -27371231.50048 -21310140.84446  20791379.3984                   20791376.7854
 -17160837.79347 -13354070.84046  21556590.4844                   21556588.0634
 -32971157.76248 -25670737.88345  21869090.4694                   21869088.5354
  -3331724.37947  -2582281.25844  23570137.7194                   23570136.9964
 -32792416.35948 -25532545.99247  20484655.1564                   20484650.2624
 11  8 11  1  9  0.0000000  0  8G17G12G09G10G05G04G25G02
 -35323824.86347 -27506515.01644  23283556.8834                   23283554.6214
 -22058362.69948 -17170098.23846  21043280.4224                   21043277.2304
 -12322651.31646  -9582216.73044  23948751.1724                   23948752.0944
 -27381368.68748 -21318039.94946  20789450.4454                   20789447.8364
 -17266150.88347 -13436132.93746  21536549.9384                   21536547.6174
 -32913624.55147 -25625906.82445  21880038.6954                   21880036.9344
  -3447986.85547  -2672875.38344  23548012.9844                   23548013.0084
 -32808835.47348 -25545340.10947  20481531.0634                   20481526.0434
 11  8 11  1  9 30.0000000  0  8G17G12G09G10G05G04G25G02
 -35287692.37547 -27478359.87544  23290431.9454                   23290430.4844
 -22127562.29348 -17224019.99246  21030112.2114                   21030108.7344
 -12261593.80546  -9534639.57444  23960370.6564                   23960371.3094
 -27390799.07048 -21325388.28946  20787655.7734                   20787653.4024
 -17371027.34847 -13517854.80546  21516592.5004                   21516590.6454
 -32855911.91048 -25580935.95745  21891021.0864                   21891019.5004
  -3563934.98047  -2763224.56244  23525949.0234                   23525949.1054
 -32824909.28948 -25557865.16446  20478472.0164                   20478467.1804
 11  8 11  1 10  0.0000000  0  8G17G12G09G10G05G04G25G02
 -35251317.62147 -27450015.93444  23297354.1564                   23297352.2814
 -22196201.70348 -17277505.23846  21017050.3364                   21017047.5164
 -12200381.84847  -9486942.09844  23972019.0004                   23972019.5474
 -27399525.05948 -21332187.76246  20785995.4304                   20785992.9064
 -17475466.58647 -13599235.98446  21496718.3594                   21496716.2154
 -32798023.80948 -25535828.36745  21902036.7974                   21902035.2734
  -3679568.02747  -2853328.22744  23503944.2734                   23503944.7624
 -32840641.24648 -25570123.82047  20475478.2734                   20475473.5434
 11  8 11  1 10 30.0000000  0  8G17G12G09G10G05G04G25G02
 -35214701.30146 -27421483.76644  23304322.1644                   23304320.0554
 -22264279.09848 -17330552.55546  21004096.0704                   21004092.8914
 -12139019.30947  -9439127.26244  23983695.6174                   23983696.6174
 -27407547.48048 -21338438.99246  20784468.9694                   20784466.6134
 -17579466.80147 -13680275.05546  21476927.5704                   21476925.8524
 -32739962.59848 -25490585.88745  21913085.7344                   21913083.6684
  -3794884.09447  -2943184.87544  23482000.8054                   23482000.7074
 -32856033.05948 -25582117.43047  20472549.5474                   20472544.6994
 11  8 11  1 11  0.0000000  0  8G17G12G09G10G05G04G25G02
 -35177843.40646 -27392763.35244  23311335.6884                   23311334.3634
 -22331792.96948 -17383160.76246  20991248.4924                   20991245.1334
 -12077510.06647  -9391198.11744  23995400.7974                   23995401.8554
 -27414867.14148 -21344142.62146  20783075.8674                   20783073.4774
 -17683025.52347 -13760970.11346  21457221.3054                   21457219.5594
 -32681730.50848 -25445210.24645  21924167.2274                   21924164.5594
  -3909880.85947  -3032792.72344  23460117.0864                   23460117.6994
 -32871086.44148 -25593847.33647  20469684.7974                   20469679.9454
 11  8 11  1 11 30.0000000  0  8G17G12G09G10G05G04G25G02
 -35140742.69546 -27363853.73444  23318395.3284                   23318394.5124
 -22398740.60248 -17435327.73846  20978508.6414                   20978505.4344
 -12015856.41847  -9343156.45744  24007132.6564                   24007134.2974
 -27421483.72748 -21349298.39846  20781816.9534                   20781814.5594
 -17786139.31648 -13841318.46946  21437599.4694                   21437597.4454
 -32623328.56248 -25399702.25445  21935280.2504                   21935278.4454
  -4024554.93747  -3122149.10244  23438296.0554                   23438297.0044
 -32885801.67648 -25605313.75847  20466884.5704                   20466879.6134
 11  8 11  1 12  0.0000000  0  8G17G12G09G10G05G04G25G02
 -35103400.19547 -27334755.71144  23325501.8674                   23325500.3364
 -22465121.72348 -17487053.28946  20965876.8524                   20965873.6024
 -11954063.57847  -9295006.34844  24018891.5084                   24018893.3794
 -27427399.34048 -21353907.95746  20780690.9534                   20780688.3204
 -17888807.23047 -13921319.40646  21418062.1174                   21418060.0164
 -32564760.34847 -25354064.72345  21946425.5164                   21946424.1174
  -4138905.32847  -3211253.26244  23416535.5634                   23416536.3164
 -32900181.90648 -25616519.13347  20464148.2664                   20464143.3284
 11  8 11  1 12 30.0000000  0  8G17G12G09G10G05G04G25G02
 -35065816.20747 -27305469.51244  23332654.3284                   23332652.2074
 -22530934.94148 -17538336.30146  20953353.0634                   20953349.9184
 -11892135.35547  -9246750.73444  24030676.7114                   24030677.6844
 -27432615.09848 -21357972.18746  20779698.2974                   20779696.1134
 -17991027.00047 -14000971.11746  21398610.5864                   21398607.9774
 -32506028.03947 -25308299.30945  21957601.7814                   21957600.1884
  -4252929.82447  -3300103.48445  23394837.6094                   23394838.6604
 -32914228.45748 -25627464.50047  20461475.2274                   20461470.3054
 11  8 11  1 13  0.0000000  0  8G17G12G09G10G05G04G25G02
 -33452571.88746 -26048396.03144  23639644.2344                   23639642.6764
 -21020756.17248 -16361573.61346  21240730.6094                   21240727.4734
 -10254657.18047  -7970793.87944  24342278.6804                   24342279.9924
 -25861711.66048 -20133891.57846  21078631.5944                   21078629.0314
 -16517372.80948 -12852669.12146  21679037.5554                   21679035.3594
 -30871715.25447 -24034808.85945  22268601.1644                   22268600.1454
  -2791202.29747  -2161094.98444  23672994.3444                   23672994.9454
 -31352522.27348 -24410550.59847  20758657.8674                   20758652.6214
 11  8 11  1 13 30.0000000  0  8G17G12G09G10G05G04G25G02
 -33414503.83646 -26018732.66044  23646888.4924                   23646886.7344
 -21085428.27048 -16411967.43746  21228423.7034                   21228420.1994
 -10192468.43447  -7922335.24644  24354113.4614                   24354113.6644
 -25865529.94148 -20136866.84846  21077904.9924                   21077902.5124
 -16618688.97748 -12931616.73846  21659757.3674                   21659755.2274
 -30812660.15647 -23988791.93445  22279839.2274                   22279837.5514
  -2904567.55147  -2249431.50445  23651422.3134                   23651422.9344
 -31365905.59448 -24420979.16447  20756111.1174                   20756106.2624
 11  8 11  1 14  0.0000000  0  8G17G12G09G10G05G04G25G02
 -33376194.77746 -25988881.48044  23654178.2664                   23654176.8164
 -21149528.55548 -16461915.71946  21216225.7664                   21216222.6484
 -10130155.46147  -7873779.86344  24365970.9064                   24365971.9184
 -25868651.27348 -20139299.03946  21077310.9534                   21077308.9304
 -16719550.64548 -13010210.21146  21640564.2974                   21640562.0514
 -30753447.72747 -23942652.40645  22291106.7424                   22291105.2664
  -3017600.43047  -2337509.04745  23629912.8524                   23629912.9104
 -31378960.37948 -24431151.71947  20753626.6804                   20753621.9384
 11  8 11  1 14 30.0000000  0  8G17G12G09G10G05G04G25G02
 -33337644.76246 -25958842.52744  23661514.3444                   23661512.6454
 -21213055.58648 -16511417.28946  21204136.9304                   21204133.7664
 -10067722.21147  -7825130.74244  24377850.8204                   24377852.4654
 -25871076.77048 -20141189.02746  21076848.9454                   21076846.6174
 -16819955.42648 -13088447.66446  21621457.7894                   21621455.2074
 -30694080.05947 -23896391.90245  22302404.2974                   22302402.4844
  -3130298.78147  -2425325.93045  23608466.8364                   23608467.0784
 -31391688.05948 -24441069.39847  20751204.9694                   20751200.1724
 11  8 11  1 15  0.0000000  0  8G17G12G09G10G05G04G25G02
 -33298853.87146 -25928615.89544  23668895.8134                   23668894.5394
 -21276007.66848 -16560470.85546  21192157.7034                   21192154.4494
 -10005172.32847  -7776390.71144  24389754.2344                   24389755.3134
 -25872807.81647 -20142537.88346  21076519.9534                   21076517.5004
 -16919901.46548 -13166327.64546  21602438.7974                   21602436.9454
 -30634559.12947 -23850011.98045  22313731.3444                   22313728.8794
  -3242660.36347  -2512880.37545  23587084.7734                   23587085.8164
 -31404090.80148 -24450733.87547  20748844.6804                   20748839.9734
 11  8 11  1 15 30.0000000  0  8G17G12G09G10G05G04G25G02
 -33259821.80147 -25898201.30544  23676323.4304                   23676321.9574
 -21338383.40648 -16609075.32446  21180287.8134                   21180284.7424
  -9942509.30547  -7727562.56643  24401678.9144                   24401680.2894
 -25873845.27348 -20143346.28946  21076322.6024                   21076320.0204
 -17019386.42648 -13243848.34846  21583507.3204                   21583505.0984
 -30574887.16047 -23803514.36345  22325085.9304                   22325084.1454
  -3354682.66047  -2600170.46944  23565767.7424                   23565768.2934
 -31416169.53548 -24460145.87547  20746546.3054                   20746541.2584
 11  8 11  1 16  0.0000000  0  8G17G12G09G10G05G04G25G02
 -33220548.48447 -25867598.71944  23683797.2734                   23683795.2154
 -21400181.33248 -16657229.54746  21168528.1094                   21168524.8484
  -9879736.57847  -7678648.88343  24413624.3754                   24413625.2074
 -25874189.89547 -20143614.81646  21076256.7424                   21076254.0204
 -17118407.96148 -13321007.93746  21564663.9304                   21564661.9534
 -30515066.23047 -23756900.67245  22336469.5864                   22336468.0204
  -3466363.48447  -2687194.46545  23544515.5394                   23544515.7074
 -31427925.80948 -24469306.60547  20744309.5864                   20744304.4414
 11  8 11  1 16 30.0000000  0  8G17G12G09G10G05G04G25G02
 -33181033.83247 -25836808.08644  23691316.7194                   23691314.5664
 -21461400.14848 -16704932.51646  21156878.4384                   21156875.7854
  -9816857.73046  -7629652.53543  24425588.8364                   24425590.6054
 -25873842.79747 -20143344.33646  21076323.2274                   21076320.4964
 -17216963.59448 -13397804.48046  21545909.7114                   21545907.5514
 -30455098.00447 -23710172.21545  22347881.0704                   22347879.2154
  -3577700.25847  -2773950.38344  23523328.8754                   23523328.7464
 -31439361.35248 -24478217.41047  20742133.2664                   20742127.9654
 11  8 11  1 17  0.0000000  0  8G17G12G09G10G05G04G25G02
 -33141279.25447 -25805830.51244  23698881.3914                   23698878.9304
 -21522039.46548 -16752183.92246  21145339.3364                   21145336.2854
  -9753877.42246  -7580577.14143  24437573.8134                   24437574.8014
 -25872806.58647 -20142536.88346  21076520.2114                   21076517.5944
 -17315052.67248 -13474237.47346  21527243.6954                   21527241.4304
 -30394986.00447 -23663331.71945  22359320.1254                   22359318.3284
  -3688692.09847  -2860437.49244  23502207.9384                   23502207.6174
 -31450478.82848 -24486880.37547  20740017.3914                   20740012.6684
 11  8 11  1 17 30.0000000  0  8G17G12G09G10G05G04G25G02
 -33101284.56647 -25774665.84844  23706492.4384                   23706490.6024
 -21582097.85248 -16798982.65246  21133910.6334                   21133907.5434
  -9690799.37946  -7531425.55943  24449578.1804                   24449578.2854
 -25871082.21148 -20141193.19146  21076848.1804                   21076845.7154
 -17412672.72748 -13550305.00846  21508667.1564                   21508665.0784
 -30334732.00847 -23616380.58245  22370786.4304                   22370784.3164
  -3799336.50847  -2946653.90244  23481152.8524                   23481152.6684
 -31461279.70748 -24495296.64847  20737962.1724                   20737957.1884
 11  8 11  1 18  0.0000000  0  8G17G12G09G10G05G04G25G02
 -33061049.53946 -25743313.91444  23714148.2894                   23714146.9304
 -21641573.86748 -16845327.59446  21122592.6804                   21122589.3954
  -9627627.19546  -7482200.64543  24461599.4144                   24461599.8554
 -25868670.80148 -20139314.15646  21077307.2034                   21077304.9494
 -17509821.64548 -13626005.40646  21490180.3284                   21490178.0784
 -30274338.07447 -23569320.39145  22382279.2034                   22382276.9304
  -3909631.15647  -3032597.73044  23460164.2034                   23460164.3484
 -31471765.62948 -24503467.49247  20735966.5784                   20735961.7114
 11  8 11  1 18 30.0000000  0  8G17G12G09G10G05G04G25G02
 -33020574.25046 -25711774.75044  23721850.8754                   23721849.8484
 -21700465.82048 -16891217.41046  21111385.8204                   21111382.9924
  -9564364.10246  -7432904.86743  24473638.6024                   24473639.0594
 -25865573.07848 -20136900.32846  21077896.5084                   21077894.3164
 -17606496.81648 -13701336.65646  21471783.2194                   21471781.0554
 -30213805.65247 -23522152.28945  22393797.2814                   22393795.6764
  -4019573.30947  -3118266.87944  23439243.5554                   23439243.2464
 -31481937.41048 -24511393.54747  20734030.9144                   20734026.3594
 11  8 11  1 19  0.0000000  0  8G17G12G09G10G05G04G25G02
 -32979859.56246 -25680049.02344  23729598.5474                   23729597.1174
 -21758773.50448 -16936651.95746  21100290.4774                   21100287.5004
  -9501014.50846  -7383541.66843  24485692.4454                   24485695.1884
 -25861791.41048 -20133953.55546  21078616.1174                   21078613.7624
 -17702697.13348 -13776297.89146  21453477.3834                   21453475.2894
 -30153137.89547 -23474878.71945  22405342.1724                   22405340.8484
  -4129161.68047  -3203660.32845  23418389.0314                   23418389.3874
 -31491797.64548 -24519076.84847  20732154.4454                   20732150.0474
 11  8 11  1 19 30.0000000  0  8G17G12G09G10G05G04G25G02
 -32938905.63347 -25648136.89544  23737391.5394                   23737389.9884
 -21816495.78948 -16981630.35246  21089306.0234                   21089302.8954
  -9437581.91046  -7334113.84043  24497764.1884                   24497765.8794
 -25857326.93448 -20130474.73046  21079465.9144                   21079463.2304
 -17798420.72348 -13850887.65246  21435261.5864                   21435259.5864
 -30092336.88747 -23427501.32445  22416912.3204                   22416910.8714
  -4238394.17247  -3288776.50045  23397603.0704                   23397602.8554
 -31501348.43748 -24526519.02047  20730337.3134                   20730332.6454
 11  8 11  1 20  0.0000000  0  8G17G12G09G10G05G04G25G02
 -32897712.73046 -25616038.53544  23745230.6174                   23745229.0784
 -21873631.19548 -17026151.43046  21078433.7734                   21078430.4414
  -9374070.52746  -7284624.57443  24509850.0474                   24509851.3594
 -25852181.28948 -20126465.12946  21080445.1174                   21080442.5394
 -17893665.60248 -13925104.39146  21417137.1564                   21417134.7584
 -30031404.94147 -23380021.91045  22428507.2344                   22428505.3634
  -4347268.60547  -3373613.64844  23376884.8594                   23376884.5084
 -31510591.03948 -24533721.03546  20728578.5314                   20728573.2974
 11  8 11  1 20 30.0000000  0  8G17G12G09G10G05G04G25G02
 -32856281.39846 -25583754.39844  23753115.1334                   23753113.0704
 -21930179.33648 -17070214.89846  21067672.9614                   21067669.6564
  -9310484.19146  -7235076.96143  24521950.3284                   24521951.5234
 -25846356.44948 -20121926.27346  21081553.3834                   21081550.6644
 -17988430.23848 -13998946.91446  21399104.1724                   21399101.6174
 -29970344.23047 -23332442.16045  22440126.8054                   22440124.7664
  -4455783.28547  -3458170.48045  23356235.0704                   23356235.3284
 -31519527.80148 -24540684.74247  20726877.7974                   20726872.7774
 11  8 11  1 21  0.0000000  0  8G17G12G09G10G05G04G25G02
 -32814612.04346 -25551284.81644  23761044.4534                   23761042.4804
 -21986139.29348 -17113820.04346  21057024.2504                   21057021.2704
  -9246826.54346  -7185473.76643  24534063.9534                   24534066.1564
 -25839854.05948 -20116859.46946  21082790.9694                   21082788.3094
 -18082712.63748 -14072413.67246  21381162.6644                   21381160.1454
 -29909157.35547 -23284764.09845  22451770.2034                   22451768.6294
  -4563936.18747  -3542445.39145  23335654.2424                   23335654.6684
 -31528160.27048 -24547411.32846  20725235.0784                   20725230.2774
 11  8 11  1 21 30.0000000  0  8G17G12G09G10G05G04G25G02
 -32772704.61346 -25518629.69144  23769018.9304                   23769017.2274
 -22041509.38348 -17156965.54746  21046487.2894                   21046484.4184
  -9183101.50447  -7135818.03144  24546190.9224                   24546192.6374
 -25832675.47348 -20111265.76246  21084156.9144                   21084154.3244
 -18176510.70348 -14145503.03146  21363313.6414                   21363311.2664
 -29847846.05947 -23236989.09045  22463437.5314                   22463435.8754
  -4671725.02047  -3626436.62145  23315142.7424                   23315143.3164
 -31536490.48048 -24553902.39547  20723649.7274                   20723644.9064
 11  8 11  1 22  0.0000000  0  8G17G12G09G10G05G04G25G02
 -32730558.39846 -25485788.49644  23777039.2114                   23777037.4964
 -22096288.10248 -17199650.25446  21036063.4924                   21036060.2274
  -9119311.63746  -7086111.77044  24558329.8134                   24558330.9924
 -25824821.20348 -20105145.53546  21085651.2894                   21085648.7854
 -18269821.76648 -14218212.90246  21345556.9694                   21345554.5824
 -29786411.39547 -23189117.93745  22475127.6564                   22475126.1214
  -4779146.68747  -3710141.75445  23294700.9224                   23294701.6414
 -31544518.91848 -24560158.31247  20722122.0784                   20722117.2774
 11  8 11  1 22 30.0000000  0  8G17G12G09G10G05G04G25G02
 -32688174.07046 -25452761.78544  23785104.0784                   23785102.8554
 -22150474.64148 -17241873.51646  21025751.8524                   21025749.1484
  -9055461.00046  -7036358.18444  24570480.0234                   24570481.9774
 -25816293.04348 -20098500.20746  21087274.3594                   21087271.3444
 -18362644.17648 -14290542.00446  21327893.6724                   21327890.9844
 -29724856.05147 -23141152.75845  22486841.8444                   22486840.0124
  -4886199.55147  -3793559.50045  23274329.1094                   23274330.1564
 -31552247.78948 -24566180.79747  20720651.5704                   20720646.4494
 11  8 11  1 23  0.0000000  0  8G17G12G09G10G05G04G25G02
 -32645550.98446 -25419549.02044  23793215.3054                   23793214.4104
 -22204067.10248 -17283633.85946  21015553.7274                   21015550.6134
  -8991552.50847  -6986559.50444  24582641.8754                   24582644.2664
 -25807092.14148 -20091330.66046  21089024.9064                   21089022.7704
 -18454975.14548 -14362488.17646  21310323.5084                   21310320.5044
 -29663181.24647 -23093094.48045  22498578.5004                   22498576.6884
  -4992880.57447  -3876687.51245  23254028.7584                   23254028.8834
 -31559677.94148 -24571970.51247  20719237.4614                   20719232.4924
 11  8 11  1 23 30.0000000  0  8G17G12G09G10G05G04G25G02
 -32602688.63746 -25386149.81244  23801372.7664                   23801370.6294
 -22257063.84848 -17324930.01646  21005468.7194                   21005465.5234
  -8927588.95347  -6936717.93743  24594813.8674                   24594815.7894
 -25797218.92648 -20083637.25446  21090904.1024                   21090901.5204
 -18546812.16048 -14434049.44146  21292847.3444                   21292844.7734
 -29601387.89147 -23044943.83245  22510337.2584                   22510335.3984
  -5099186.77347  -3959523.46145  23233799.0474                   23233799.4844
 -31566810.09448 -24577528.02046  20717879.9384                   20717875.0164
 11  8 11  1 24  0.0000000  0  8G17G12G09G10G05G04G25G02
 -32559587.86746 -25352564.82844  23809573.8834                   23809572.4104
 -22309464.19148 -17365761.44946  20995497.4064                   20995494.1054
  -8863574.52746  -6886836.73043  24606995.2194                   24606997.6884
 -25786675.71548 -20075421.77046  21092910.2584                   21092907.6524
 -18638153.90248 -14505224.78146  21275465.7504                   21275462.8594
 -29539478.85947 -22996703.02045  22522118.2114                   22522116.4224
  -5205116.62547  -4042066.16044  23213640.9534                   23213641.6884
 -31573646.51248 -24582855.08646  20716579.3754                   20716574.5594
 11  8 11  1 24 30.0000000  0  8G17G12G09G10G05G04G25G02
 -32516247.04746 -25318792.79344  23817821.0634                   23817820.4264
 -22361265.82848 -17406126.35546  20985639.7034                   20985636.8754
  -8799511.47746  -6836917.65643  24619186.2814                   24619188.3164
 -25775462.65248 -20066684.32446  21095043.9614                   21095041.5634
 -18728996.89148 -14576011.49246  21258178.7344                   21258175.9804
 -29477454.82847 -22948372.62145  22533920.6884                   22533918.9654
  -5310666.43747  -4124312.73444  23193555.3674                   23193555.1454
 -31580187.43048 -24587951.89847  20715334.6954                   20715329.5944
 11  8 11  1 25  0.0000000  0  8G17G12G09G10G05G04G25G02
 -32472667.48447 -25284834.71944  23826114.1414                   23826113.3404
 -22412468.13748 -17446024.25446  20975896.2034                   20975892.9924
  -8735404.09446  -6786964.05143  24631385.4454                   24631388.0044
 -25763582.33248 -20057426.93446  21097304.6334                   21097302.1844
 -18819339.96548 -14646408.64846  21240986.9694                   21240984.1484
 -29415318.32847 -22899954.59845  22545744.7664                   22545743.4184
  -5415834.75847  -4206262.05145  23173542.7114                   23173542.5004
 -31586435.26648 -24592820.33647  20714145.7664                   20714141.0474
 11  8 11  1 25 30.0000000  0  8G17G12G09G10G05G04G25G02
 -32428848.59046 -25250690.12544  23834453.0634                   23834451.3914
 -22463069.99248 -17485454.27046  20966267.0234                   20966263.8164
  -8671255.03946  -6736977.96943  24643592.7114                   24643594.8794
 -25751035.60947 -20047650.27046  21099692.2974                   21099689.7854
 -18909180.49248 -14716414.21546  21223890.8134                   21223888.5204
 -29353070.54347 -22851449.83645  22557590.7814                   22557589.0824
  -5520618.77747  -4287911.93745  23153603.7344                   23153603.0944
 -31592391.01648 -24597461.18747  20713012.0634                   20713007.6604
 11  8 11  1 26  0.0000000  0  8G17G12G09G10G05G04G25G02
 -32384790.35946 -25216359.07044  23842837.0554                   23842835.6524
 -22513069.98048 -17524415.29746  20956752.6334                   20956749.0594
  -8607067.72346  -6686962.09843  24655806.7814                   24655809.7934
 -25737824.12948 -20037355.61746  21102206.1094                   21102204.0474
 -18998516.75448 -14786026.84846  21206890.6484                   21206887.8284
 -29290713.14847 -22802859.67245  22569456.2194                   22569454.7424
  -5625016.08647  -4369260.46545  23133737.5164                   23133737.5434
 -31598056.26248 -24601875.66446  20711934.1484                   20711929.5204
 11  8 11  1 26 30.0000000  0  8G17G12G09G10G05G04G25G02
 -32340494.02746 -25181842.48844  23851266.1024                   23851264.6484
 -22562468.34848 -17562907.53546  20947352.4304                   20947349.1564
  -8542847.04746  -6636920.20343  24668029.1884                   24668030.0204
 -25723950.53948 -20026545.02046  21104846.0784                   21104844.1094
 -19087347.57848 -14855245.62946  21189986.7274                   21189984.1604
 -29228249.23847 -22754186.49645  22581342.8364                   22581341.4964
  -5729025.59047  -4450306.82445  23113944.8984                   23113945.4574
 -31603433.46948 -24606065.69147  20710910.9694                   20710906.1684
 11  8 11  1 27  0.0000000  0  8G17G12G09G10G05G04G25G02
 -32295959.44146 -25147140.23444  23859740.8674                   23859739.9494
 -22611263.34848 -17600929.61346  20938066.7114                   20938063.4104
  -8478595.70746  -6586854.46543  24680254.8914                   24680256.7814
 -25709415.85948 -20015219.29746  21107612.0784                   21107609.8834
 -19175670.90648 -14924068.96546  21173179.1884                   21173176.9024
 -29165680.23047 -22705431.43445  22593249.3674                   22593247.7664
  -5832644.53547  -4531048.85945  23094226.9304                   23094227.2704
 -31608523.52748 -24610031.97346  20709942.2814                   20709937.5044
 11  8 11  1 27 30.0000000  0  8G17G12G09G10G05G04G25G02
 -32251188.00046 -25112253.42644  23868260.6334                   23868259.3754
 -22659455.74248 -17638482.13346  20928896.1804                   20928892.8244
  -8414318.36746  -6536768.45343  24692486.1724                   24692488.0124
 -25694223.45748 -20003381.04346  21110502.9614                   21110500.6564
 -19263486.10948 -14992496.35546  21156468.3204                   21156466.4264
 -29103009.43047 -22656597.05945  22605175.5944                   22605173.7114
  -5935872.17247  -4611485.97345  23074583.0164                   23074583.7424
 -31613329.90648 -24613777.18446  20709027.3834                   20709022.9224
 11  8 11  1 28  0.0000000  0  8G17G12G09G10G05G04G25G02
 -32206178.18046 -25077180.87944  23876825.6564                   23876824.4884
 -22707042.67248 -17675562.85246  20919840.8204                   20919837.7704
  -8350017.03146  -6486663.73843  24704723.4064                   24704724.8054
 -25678373.29748 -19991030.27046  21113519.2734                   21113516.9924
 -19350789.42648 -15060524.87146  21139855.2894                   21139852.8014
 -29040236.87547 -22607683.39145  22617120.5004                   22617118.4024
  -6038704.46147  -4691615.02045  23055014.6804                   23055014.8714
 -31617852.08248 -24617300.93746  20708166.9844                   20708162.2194
 11  8 11  1 28 30.0000000  0  8G17G12G09G10G05G04G25G02
 -32160931.00846 -25041923.36344  23885435.7584                   23885434.9534
 -22754023.95348 -17712171.64146  20910900.5784                   20910897.3014
  -8285695.84446  -6436543.54743  24716963.6254                   24716965.5164
 -25661867.93748 -19978168.94946  21116660.2274                   21116657.8484
 -19437580.10548 -15128153.93046  21123339.4384                   21123337.3914
 -28977365.21147 -22558692.50844  22629084.9774                   22629083.1764
  -6141140.03147  -4771434.91445  23035522.2344                   23035522.4614
 -31622092.54748 -24620605.18746  20707360.3984                   20707355.0864
 11  8 11  1 29  0.0000000  0  8G17G12G09G10G05G04G25G02
 -32115447.66446 -25006481.83244  23894091.1254                   23894090.0474
 -22800399.73048 -17748308.61346  20902075.3134                   20902071.8984
  -8221359.28546  -6386411.39843  24729206.3834                   24729208.2584
 -25644709.93448 -19964799.07446  21119925.1254                   21119923.1994
 -19523857.19148 -15195382.78146  21106921.5314                   21106919.1604
 -28914397.13347 -22509626.47344  22641066.7274                   22641065.1134
  -6243177.61747  -4850944.68045  23016105.0864                   23016105.5864
 -31626053.82848 -24623691.89146  20706606.1094                   20706601.5274
 11  8 11  1 29 30.0000000  0  8G17G12G09G10G05G04G25G02
 -32069727.95346 -24970856.12944  23902791.5394                   23902790.2194
 -22846168.52048 -17783972.60246  20893365.4614                   20893362.6214
  -8157010.69946  -6336269.87943  24741451.8284                   24741454.2974
 -25626900.81248 -19950921.84046  21123314.3364                   21123311.5944
 -19609618.32448 -15262209.59846  21090601.6484                   21090599.0204
 -28851334.15647 -22460486.50845  22653067.3284                   22653065.8524
  -6344814.69147  -4930142.34445  22996763.9844                   22996764.8164
 -31629737.07848 -24626561.94546  20705905.6174                   20705900.6484
 11  8 11  1 30  0.0000000  0  8G17G12G09G10G05G04G25G02
 -32023772.16846 -24935046.45744  23911536.4384                   23911535.2344
 -22891330.34448 -17819163.62946  20884771.8594                   20884768.8914
  -8092653.60246  -6286121.70343  24753699.4534                   24753700.7584
 -25608443.10548 -19936539.21146  21126826.6174                   21126824.0004
 -19694862.10948 -15328633.28546  21074380.2274                   21074377.5234
 -28788178.43447 -22411274.27345  22665085.5704                   22665083.7624
  -6446049.32847  -5009026.43045  22977499.3594                   22977500.1524
 -31633144.20748 -24629216.83247  20705257.4454                   20705252.2774
 11  8 11  1 30 30.0000000  0  8G17G12G09G10G05G04G25G02
 -31977580.85246 -24899053.27344  23920326.7664                   23920324.8324
 -22935884.52348 -17853881.16846  20876293.5234                   20876290.3444
  -8028291.58646  -6235969.73843  24765946.6484                   24765948.9654
 -25589338.62148 -19921652.59846  21130461.9614                   21130459.7344
 -19779587.37948 -15394652.93446  21058257.4064                   21058255.3324
 -28724932.28147 -22361991.57445  22677121.2894                   22677119.6174
  -6546879.68447  -5087595.50445  22958312.3284                   22958312.4184
 -31636277.27048 -24631658.17246  20704660.7734                   20704656.1764
 11  8 11  1 31  0.0000000  0  8G17G12G09G10G05G04G25G02
 -31931154.38746 -24862876.85244  23929161.8054                   23929160.1174
 -22979829.84448 -17888124.26246  20867930.9064                   20867927.9024
  -7963927.90246  -6185816.45343  24778194.7814                   24778196.5904
 -25569588.90248 -19906263.19946  21134220.2194                   21134217.8524
 -19863791.75448 -15460266.69946  21042233.8284                   21042231.5904
 -28661596.72747 -22312639.20345  22689173.4064                   22689171.9024
  -6647303.25447  -5165847.60545  22939202.7194                   22939202.8794
 -31639137.47348 -24633886.90246  20704116.6024                   20704112.0234
 11  8 11  1 31 30.0000000  0  8G17G12G09G10G05G04G25G02
 -31884492.41846 -24826516.91844  23938040.5784                   23938038.8054
 -23023165.27748 -17921892.12946  20859684.2274                   20859681.2814
  -7899565.81247  -6135664.39543  24790442.7034                   24790445.1454
 -25549195.75848 -19890372.44146  21138101.0784                   21138098.5944
 -19947473.49248 -15525473.20346  21026309.7194                   21026307.2734
 -28598173.64847 -22263218.62945  22701242.5164                   22701241.0944
  -6747317.62147  -5243780.84445  22920170.0314                   22920170.5514
 -31641725.98448 -24635903.92246  20703624.0314                   20703619.1254
 11  8 11  1 32  0.0000000  0  8G17G12G09G10G05G04G25G02
 -31837594.99646 -24789973.52744  23946965.3204                   23946963.8324
 -23065889.85548 -17955183.99246  20851554.3674                   20851551.2274
  -7835208.23047  -6085515.88343  24802689.3834                   24802692.7194
 -25528161.04348 -19873981.75446  21142103.7504                   21142101.6214
 -20030630.23448 -15590270.62946  21010485.5864                   21010482.9964
 -28534664.28147 -22213730.83245  22713328.2814                   22713326.4494
  -6846920.29747  -5321393.28145  22901216.4454                   22901216.2974
 -31644044.14148 -24637710.28146  20703183.0944                   20703178.2074
 11  8 11  1 32 30.0000000  0  8G17G12G09G10G05G04G25G02
 -31790463.11746 -24753247.41844  23955934.2584                   23955932.6564
 -23108003.78548 -17988000.02346  20843540.0474                   20843537.4734
  -7770859.68047  -6035374.38343  24814934.4924                   24814938.1174
 -25506487.53148 -19857093.31246  21146228.3204                   21146225.6994
 -20113261.41848 -15654658.52346  20994761.0394                   20994758.8834
 -28471071.54747 -22164178.06245  22725429.5004                   22725427.8524
  -6946110.15247  -5398684.03545  22882341.1724                   22882341.0394
 -31646094.76648 -24639308.16846  20702793.2584                   20702787.5314
 11  8 11  1 33  0.0000000  0  8G17G12G09G10G05G04G25G02
 -31743098.03546 -24716339.60944  23964947.1174                   23964946.3204
 -23149506.84048 -18020340.04346  20835642.0704                   20835639.3834
  -7706524.28546  -5985243.09443  24827177.6724                   24827180.9454
 -25484177.86748 -19839709.15646  21150473.5944                   21150471.2814
 -20195366.02348 -15718636.09846  20979137.1884                   20979134.4534
 -28407397.79347 -22114562.16444  22737545.7584                   22737544.1214
  -7044885.67647  -5475651.94145  22863544.9454                   22863544.1024
 -31647879.62948 -24640698.96946  20702453.6174                   20702448.3164
 11  8 11  1 33 30.0000000  0  8G17G12G09G10G05G04G25G02
 -31695498.91846 -24679249.40644  23974004.6954                   23974003.8554
 -23190397.50848 -18052202.89146  20827861.0474                   20827857.9414
  -7642204.32846  -5935123.92643  24839417.1884                   24839419.9224
 -25461233.25848 -19821830.24246  21154840.0314                   21154837.1294
 -20276941.49648 -15782201.35946  20963614.0164                   20963611.6454
 -28343643.94147 -22064883.87545  22749677.6804                   22749676.2424
  -7143243.89147  -5552294.69545  22844828.0634                   22844827.1604
 -31649399.61348 -24641883.37546  20702163.9924                   20702158.9694
 11  8 11  1 34  0.0000000  0  8G17G12G09G10G05G04G25G02
 -31647666.26646 -24641977.26644  23983107.1804                   23983105.9414
 -23230675.57848 -18083588.39546  20820196.5234                   20820193.8874
  -7577903.32446  -5885019.44143  24851653.7504                   24851656.5164
 -25437655.77348 -19803458.18046  21159326.5004                   21159323.9414
 -20357986.59048 -15845353.34046  20948191.6954                   20948189.5044
 -28279812.11747 -22015144.82045  22761824.6954                   22761823.4144
  -7241182.76647  -5628610.68045  22826190.5314                   22826190.5004
 -31650656.55948 -24642862.80546  20701924.7194                   20701919.6564
 11  8 11  1 34 30.0000000  0  7G17G12G10G05G04G25G02
 -31599599.60546 -24604522.76244  23992253.8914                   23992252.7464
 -23270339.84448 -18114495.60246  20812648.7814                   20812645.6484
 -25413447.08648 -19784594.25846  21163932.7584                   21163930.9804
 -20438499.01648 -15908090.25846  20932870.3364                   20932868.2894
 -28215903.28947 -21965345.77044  22773985.9224                   22773984.6024
  -7338699.75047  -5704597.91445  22807634.0164                   22807633.7814
 -31651651.53548 -24643638.10546  20701735.5554                   20701730.6454
 11  8 11  1 35  0.0000000  0  7G17G12G10G05G04G25G02
 -31551299.74646 -24566886.53143  24001444.9924                   24001443.7894
 -23309389.56648 -18144923.94946  20805217.6254                   20805214.8054
 -25388609.23048 -19765240.09046  21168659.9774                   21168657.8404
 -20518477.23848 -15970410.90646  20917651.4384                   20917648.8244
 -28151919.23847 -21915488.09444  22786162.2584                   22786160.2814
  -7435792.80947  -5780254.81245  22789157.7814                   22789157.5004
 -31652386.05948 -24644210.46546  20701595.7034                   20701590.5164
 11  8 11  1 35 30.0000000  0  7G17G12G10G05G04G25G02
 -31502764.94546 -24529067.24643  24010681.4844                   24010679.2894
 -23347822.57048 -18174871.73446  20797903.9224                   20797901.1724
 -25363142.76648 -19745396.08246  21173505.7894                   21173503.7584
 -20597917.60948 -16032312.44946  20902534.2974                   20902531.6604
 -28087859.78147 -21865571.66444  22798352.3054                   22798350.5234
  -7532457.83247  -5855578.19545  22770762.8284                   22770762.7544
 -31652859.94948 -24644579.72746  20701505.3524                   20701500.5824
 11  8 11  1 36  0.0000000  0  7G17G12G10G05G04G25G02
 -31453993.42246 -24491063.49643  24019961.5554                   24019960.8284
 -23385636.16848 -18204336.87546  20790708.3754                   20790705.5354
 -25337047.69548 -19725062.26246  21178471.9224                   21178469.4534
 -20676816.87148 -16093792.35546  20887520.0784                   20887517.6174
 -28023724.51647 -21815596.14144  22810556.3134                   22810554.9384
  -7628690.71147  -5930564.82045  22752450.3054                   22752449.8954
 -31653072.76248 -24644745.53946  20701464.9224                   20701459.8444
 11  8 11  1 36 30.0000000  0  7G17G12G10G05G04G25G02
 -31404983.55146 -24452874.01243  24029288.1644                   24029286.6844
 -23422827.71148 -18233317.28946  20783631.0944                   20783628.3094
 -25310324.07048 -19704238.65246  21183556.5474                   21183554.5314
 -20755171.26648 -16154847.68046  20872609.8204                   20872607.1914
 -27959513.41447 -21765561.55544  22822775.7114                   22822773.4534
  -7724487.37547  -6005211.57845  22734220.5944                   22734220.8444
 -31653024.07448 -24644707.59446  20701474.2344                   20701469.0434
 11  8 11  1 37  0.0000000  0  7G17G12G10G05G04G25G02
 -31355737.41446 -24414500.45343  24038658.6564                   24038658.1884
 -23459398.35548 -18261813.89546  20776671.7664                   20776669.3364
 -25282976.18448 -19682928.62146  21188761.1024                   21188758.6134
 -20832980.84448 -16215478.48046  20857802.7974                   20857800.2934
 -27895229.66047 -21715470.35544  22835008.2114                   22835006.4654
  -7819847.47747  -6079518.12545  22716074.4144                   22716074.7114
 -31652716.82048 -24644468.16046  20701532.8914                   20701527.8834
 11  8 11  1 37 30.0000000  0  7G17G12G10G05G04G25G02
 -31306255.85246 -24375943.44543  24048075.4534                   24048074.1644
 -23495348.48048 -18289826.97346  20769831.1024                   20769827.8484
 -25255006.40648 -19661134.00046  21194083.7894                   21194080.8554
 -20910244.94148 -16275684.22346  20843100.0864                   20843097.5124
 -27830875.91047 -21665324.60244  22847255.0004                   22847252.9144
  -7914769.63347  -6153483.42245  22698010.8364                   22698011.8404
 -31652153.47748 -24644029.18746  20701640.0084                   20701635.0124
 11  8 11  1 38  0.0000000  0  7G17G12G10G05G04G25G02
 -31256539.59046 -24337203.53143  24057536.4694                   24057534.9064
 -23530678.00048 -18317356.48046  20763107.8204                   20763104.7814
 -25226417.58648 -19638857.00046  21199524.0554                   21199521.1684
 -20986962.63348 -16335464.21146  20828501.4614                   20828498.7154
 -27766453.92647 -21615125.69945  22859513.6414                   22859512.4224
  -8009252.22747  -6227106.21545  22680032.2034                   22680032.4614
 -31651336.38348 -24643392.47746  20701795.4844                   20701790.4264
 11  8 11  1 38 30.0000000  0  7G17G12G10G05G04G25G02
 -31206588.96146 -24298281.01643  24067041.1724                   24067040.2424
 -23565386.20748 -18344401.84447  20756503.0634                   20756500.1414
 -25197211.55948 -19616099.05146  21205081.6094                   21205078.7664
 -21063132.00048 -16394816.91846  20814006.6954                   20814004.0554
 -27701965.07047 -21564874.66444  22871785.7114                   22871784.2774
  -8103292.77347  -6300384.55545  22662136.2424                   22662136.8524
 -31650266.38348 -24642558.71146  20701998.9774                   20701993.9064
 11  8 11  1 39  0.0000000  0  7G17G12G10G05G04G25G02
 -31156404.42246 -24259176.20343  24076591.3284                   24076590.3164
 -23599473.00848 -18370962.98846  20750016.7344                   20750013.8244
 -25167391.12948 -19592862.34846  21210756.0864                   21210753.5004
 -21138752.03548 -16453741.59446  20799616.5474                   20799614.1414
 -27637411.22747 -21514572.99644  22884069.7584                   22884068.2424
  -8196889.41847  -6373316.99245  22644325.7734                   22644326.6684
 -31648945.29348 -24641529.28946  20702250.3834                   20702245.6604
 11  8 11  1 39 30.0000000  0  7G17G12G10G05G04G25G02
 -31105987.55946 -24219890.38343  24086185.0394                   24086184.6094
 -23632938.89848 -18397040.30946  20743648.2894                   20743644.9964
 -25136959.75448 -19569149.59446  21216546.8524                   21216544.2894
 -21213822.06648 -16512237.68446  20785331.3754                   20785328.7504
 -27572795.19947 -21464222.88344  22896365.7894                   22896363.9494
  -8290041.39847  -6445902.93445  22626599.3914                   22626599.3754
 -31647376.09048 -24640306.53546  20702549.0394                   20702543.9924
 11  8 11  1 40  0.0000000  0  7G17G12G10G05G04G25G02
 -31055338.18446 -24180423.38343  24095823.4224                   24095822.1334
 -23665783.37948 -18422633.41446  20737398.2664                   20737394.8284
 -25105918.99648 -19544961.98846  21222453.7274                   21222451.4614
 -21288340.47748 -16570303.93746  20771150.5084                   20771148.0044
 -27508118.23847 -21413825.25844  22908673.1254                   22908672.1374
  -8382746.21947  -6518140.43445  22608958.1174                   22608957.8794
 -31645559.68748 -24638891.17246  20702894.5314                   20702889.6884
 11  8 11  1 40 30.0000000  0  7G17G12G10G05G04G25G02
 -31004457.24646 -24140775.94144  24105506.5234                   24105505.0354
 -23698006.83248 -18447742.59446  20731266.1804                   20731263.1134
 -25074272.15648 -19520302.12146  21228475.8984                   21228473.5664
 -21362306.58648 -16627939.83246  20757075.4534                   20757072.8874
 -27443382.66447 -21363381.96544  22920992.2814                   22920990.8524
  -8475002.46947  -6590028.39845  22591402.4384                   22591402.1724
 -31643498.27048 -24637284.86346  20703286.9454                   20703282.0394
 11  8 11  1 41  0.0000000  0  7G17G12G10G05G04G25G02
 -30953345.44946 -24100948.59043  24115233.2664                   24115230.6484
 -23729608.76648 -18472367.47346  20725252.6484                   20725249.5514
 -25042021.30548 -19495171.60246  21234612.8594                   21234610.8284
 -21435718.82848 -16685144.14146  20743105.3444                   20743102.9064
 -27378589.90647 -21312894.12144  22933322.0944                   22933320.4734
  -8566808.05948  -6661565.19945  22573932.4614                   22573932.5394
 -31641193.20348 -24635488.71146  20703725.7274                   20703720.8834
 11  8 11  1 41 30.0000000  0  7G17G12G10G05G04G25G02
 -30902002.73846 -24060941.33644  24125003.4924                   24125000.6604
 -23760588.64148 -18496507.64146  20719357.2974                   20719354.4024
 -25009169.14847 -19469572.51646  21240865.0704                   21240862.3954
 -21508575.87948 -16741915.84046  20729241.1644                   20729239.1094
 -27313741.59847 -21262362.99244  22945662.3914                   22945660.9344
  -8658160.94547  -6732749.24245  22556548.5634                   22556548.4064
 -31638646.18748 -24633504.02346  20704210.1724                   20704204.9304
 11  8 11  1 42  0.0000000  0  7G17G12G10G05G04G25G02
 -30850429.01646 -24020754.02343  24134816.9064                   24134815.2304
 -23790945.63348 -18520162.43747  20713580.6254                   20713577.7974
 -24975717.21547 -19443506.08646  21247230.2504                   21247228.1564
 -21580875.64548 -16798253.27746  20715482.8134                   20715480.1994
 -27248838.61747 -21211789.27344  22958012.8444                   22958011.2624
  -8749058.38747  -6803578.38345  22539250.9774                   22539250.8714
 -31635857.84448 -24631331.29346  20704741.0084                   20704736.4344
 11  8 11  1 42 30.0000000  0  7G17G12G10G05G04G25G02
 -30798625.68746 -23980387.82043  24144674.4224                   24144673.0164
 -23820680.39848 -18543332.38347  20707922.3444                   20707919.5704
 -24941669.02347 -19416975.01646  21253709.5704                   21253707.5164
 -21652617.91448 -16854156.31246  20701830.8284                   20701828.4844
 -27183883.60547 -21161175.01244  22970373.1094                   22970371.9844
  -8839499.53547  -6874051.96545  22522040.6024                   22522040.1804
 -31632831.13748 -24628972.82846  20705316.7424                   20705312.2304
 11  8 11  1 43  0.0000000  0  7G17G12G10G05G04G25G02
 -30746593.17246 -23939843.00044  24154576.0084                   24154575.2814
 -23849792.89548 -18566017.44147  20702382.2974                   20702379.5514
 -24907026.82047 -19389981.09045  21260301.6024                   21260299.4614
 -21723801.42248 -16909623.94946  20688285.1174                   20688282.7304
 -27118878.09047 -21110521.37944  22982744.0474                   22982742.4964
  -8929482.50448  -6944168.51645  22504917.7504                   22504917.1484
 -31629567.52748 -24626429.75846  20705938.0784                   20705932.4804
 11  8 11  1 43 30.0000000  0  7G17G12G10G05G04G25G02
 -30694331.30547 -23899119.48844  24164521.4064                   24164519.5864
 -23878282.44948 -18588217.08646  20696960.7114                   20696957.9184
 -24871792.80547 -19362526.02345  21267006.4224                   21267004.3444
 -21794424.41848 -16964654.83246  20674845.9774                   20674843.2584
 -27053823.14846 -21059829.25044  22995122.9924                   22995121.7304
  -9019004.59447  -7013925.94545  22487881.8674                   22487881.0904
 -31626067.84848 -24623702.75046  20706603.8834                   20706598.4304
 11  8 11  1 44  0.0000000  0  7G17G12G10G05G04G25G02
 -30641841.14147 -23858218.09444  24174510.1024                   24174508.3284
 -23906149.60548 -18609931.74646  20691658.0314                   20691654.7464
 -24835970.03547 -19334612.16846  21273823.3834                   21273821.0704
 -21864486.13748 -17019248.35546  20661513.6724                   20661511.5514
 -26988720.80946 -21009100.18744  23007511.8524                   23007510.7034
  -9108064.41847  -7083323.17245  22470934.5554                   22470933.7854
 -31622334.00048 -24620793.24646  20707314.1484                   20707309.3834
 11  8 11  1 44 30.0000000  0  8G17G12G29G10G05G04G25G02
 -30589123.83246 -23817139.68044  24184541.2504                   24184540.0124
 -23933394.45348 -18631161.48846  20686473.4224                   20686470.6524
   4583796.84856   3582242.50453  24556178.5234                   24556177.9184
 -24799561.28547 -19306241.71546  21280751.7424                   21280749.3404
 -21933985.87548 -17073403.96546  20648288.3594                   20648285.7934
 -26923573.14546 -20958335.80944  23019908.3754                   23019907.4414
  -9196660.70347  -7152359.18745  22454075.0864                   22454074.8094
 -31618368.19948 -24617703.01646  20708068.9454                   20708063.9734
 11  8 11  1 45  0.0000000  0  8G17G12G29G10G05G04G25G02
 -30536181.00446 -23775885.55544  24194616.4924                   24194615.3874
 -23960018.17248 -18651907.22746  20681407.2274                   20681404.0124
   4486330.65646   3506294.83243  24537631.9144                   24537630.8244
 -24762570.58648 -19277417.79346  21287790.6024                   21287788.3404
 -22002923.99648 -17127121.95746  20635169.6254                   20635167.0234
 -26858383.10946 -20907538.41044  23032313.6724                   23032313.2114
  -9284792.84447  -7221033.53545  22437303.7814                   22437303.6844
 -31614173.62948 -24614434.51246  20708867.0554                   20708862.3444
 11  8 11  1 45 30.0000000  0  8G17G12G29G10G05G04G25G02
 -30483016.51646 -23734458.68743  24204733.4534                   24204732.0044
 -23986024.83248 -18672172.16046  20676458.3984                   20676455.2074
   4388829.09046   3430319.59843  24519078.1414                   24519076.6294
 -24725003.98848 -19248145.12146  21294939.7114                   21294937.2814
 -22071302.64548 -17180403.98847  20622157.7274                   20622155.3404
 -26793155.69146 -20856711.89144  23044726.5864                   23044725.6214
  -9372462.37147  -7289347.41845  22420620.8364                   22420620.9454
 -31609755.10948 -24610991.50846  20709707.9304                   20709703.5394
 11  8 11  1 46  0.0000000  0  8G17G12G29G10G05G04G25G02
 -30429631.39546 -23692859.93443  24214892.6334                   24214891.2304
 -24011414.55948 -18691956.34846  20671626.9924                   20671623.7814
   4291292.16846   3354316.84843  24500517.0474                   24500516.4884
 -24686864.50448 -19218426.05146  21302197.2504                   21302195.0824
 -22139120.85948 -17233249.31647  20609252.2274                   20609250.0124
 -26727892.89547 -20805857.80144  23057145.6414                   23057144.4064
  -9459667.76247  -7357299.62945  22404026.1884                   22404026.4224
 -31605114.57048 -24607375.50446  20710591.2424                   20710586.1134
 11  8 11  1 46 30.0000000  0  8G17G12G29G10G05G04G25G02
 -30376026.70346 -23651090.06243  24225092.6254                   24225092.3014
 -24036187.47748 -18711259.91446  20666912.4774                   20666909.5704
   4193718.84046   3278285.80543  24481949.4144                   24481948.4694
 -24648155.38348 -19188263.09846  21309563.3054                   21309561.1214
 -22206378.52048 -17285657.84447  20596453.6254                   20596450.9024
 -26662596.64846 -20754977.64544  23069571.5164                   23069569.7544
  -9546407.75047  -7424889.18745  22387520.5234                   22387520.4454
 -31600253.98448 -24603588.03146  20711516.2664                   20711510.7734
 11  8 11  1 47  0.0000000  0  8G17G12G29G10G05G04G25G02
 -30322201.19546 -23609148.14144  24235335.2194                   24235334.4184
 -24060341.44148 -18730081.18446  20662316.2894                   20662313.4104
   4096111.87946   3202228.46143  24463375.1174                   24463374.0944
 -24608877.10248 -19157656.64546  21317037.7194                   21317035.4884
 -22273072.36348 -17337627.04747  20583762.1884                   20583759.6994
 -26597266.41846 -20704071.00444  23082003.3364                   23082002.1094
  -9632678.45747  -7492113.07845  22371103.5554                   22371103.5554
 -31595173.15248 -24599628.93746  20712483.0704                   20712477.7034
 11  8 11  1 47 30.0000000  0  8G17G12G29G10G05G04G25G02
 -30268155.03146 -23567034.26643  24245620.3984                   24245618.9414
 -24083876.79748 -18748420.41446  20657837.3914                   20657834.7154
   3998471.02346   3126144.77043  24444795.6334                   24444793.8094
 -24569032.19948 -19126608.65246  21324620.0474                   21324617.9614
 -22339201.43448 -17389156.15646  20571178.1094                   20571175.3594
 -26531904.02346 -20653139.28544  23094441.4384                   23094439.8164
  -9718477.97347  -7558969.79745  22354776.5864                   22354776.2934
 -31589873.48048 -24595499.31246  20713491.2344                   20713486.4574
 11  8 11  1 48  0.0000000  0  8G17G12G29G10G05G04G25G02
 -30213887.15246 -23524747.62543  24255947.2664                   24255945.5664
 -24106792.39848 -18766276.72746  20653477.0864                   20653474.0394
   3900797.75447   3050035.78944  24426207.7194                   24426207.7114
 -24528622.05148 -19095120.21146  21332309.6254                   21332307.5904
 -22404762.61748 -17440242.75046  20558702.1484                   20558699.4494
 -26466508.91047 -20602182.07844  23106885.5704                   23106883.8984
  -9803802.86747  -7625456.69945  22338539.4774                   22338539.9224
 -31584354.59448 -24591198.87546  20714541.6254                   20714536.7894
 11  8 11  1 48 30.0000000  0  8G17G12G29G10G05G04G25G02
 -30159398.22346 -23482288.76644  24266315.5864                   24266314.7894
 -24129088.05948 -18783649.97346  20649234.2274                   20649231.1254
   3803092.80146   2973902.09444  24407615.5864                   24407614.2384
 -24487648.83247 -19063193.02346  21340106.6094                   21340104.3874
 -22469755.32848 -17490886.38747  20546334.4224                   20546331.7774
 -26401082.95747 -20551200.85244  23119335.9534                   23119334.2274
  -9888651.22347  -7691572.27745  22322393.1804                   22322393.7974
 -31578618.21548 -24586728.95746  20715633.4064                   20715628.4884
 11  8 11  1 49  0.0000000  0  8G17G12G29G10G05G04G25G02
 -30104688.37946 -23439657.74243  24276726.8914                   24276725.4344
 -24150762.86348 -18800539.42646  20645109.5234                   20645106.6254
   3705356.39847   2897743.94944  24389016.3054                   24389015.6454
 -24446115.07447 -19030829.04346  21348010.3914                   21348008.2234
 -22534177.70348 -17541085.61346  20534075.4844                   20534072.5824
 -26335626.70747 -20500196.01644  23131791.5084                   23131789.6604
  -9973020.78947  -7757314.76245  22306338.4694                   22306338.7464
 -31572665.58248 -24582090.53946  20716765.6174                   20716760.9064
 11  8 11  1 49 30.0000000  0  8G17G12G29G10G05G04G25G02
 -30049756.87946 -23396853.98843  24287180.2734                   24287178.7894
 -24171816.71948 -18816945.02746  20641103.3204                   20641100.2734
   3607589.61747   2821562.07844  24370412.7274                   24370411.2544
 -24404022.65247 -18998029.75446  21356020.1644                   21356017.9924
 -22598028.00448 -17590839.06247  20521924.9844                   20521922.2544
 -26270141.06647 -20449168.26244  23144253.1724                   23144252.0434
 -10056908.87947  -7822682.06245  22290374.4144                   22290375.2194
 -31566497.16048 -24577283.96146  20717939.7194                   20717934.5594
 11  8 11  1 50  0.0000000  0  8G17G12G29G10G05G04G25G02
 -29994604.83646 -23353878.38344  24297675.1094                   24297673.4884
 -24192250.18748 -18832867.20746  20637214.9614                   20637211.5004
   3509792.36747   2745356.46944  24351802.5864                   24351800.8404
 -24361374.28548 -18964797.25045  21364135.8134                   21364133.3954
 -22661305.59448 -17640146.25846  20509883.7274                   20509881.0664
 -26204627.69546 -20398118.91044  23156720.2814                   23156718.6134
 -10140313.98447  -7887673.02345  22274503.1954                   22274503.4384
 -31560114.47348 -24572310.43746  20719154.1334                   20719149.4344
 11  8 11  1 50 30.0000000  0  8G17G12G29G10G05G04G25G02
 -29939232.83646 -23310731.39543  24308212.3984                   24308210.4734
 -24212063.17248 -18848305.89546  20633444.8284                   20633441.6454
   3411964.60947   2669127.06343  24333186.6804                   24333184.4024
 -24318172.98447 -18931133.88345  21372357.0164                   21372354.5124
 -22724009.68048 -17689006.55546  20497951.2424                   20497948.9804
 -26139087.96147 -20347049.02044  23169192.2814                   23169190.2734
 -10223234.28947  -7952286.22745  22258724.3914                   22258724.2304
 -31553519.37148 -24567171.38746  20720409.1334                   20720404.4184
 11  8 11  1 51  0.0000000  0  8G17G12G29G10G05G04G25G02
 -29883640.58646 -23267412.82444  24318791.2814                   24318789.7114
 -24231254.94148 -18863260.51646  20629792.6484                   20629789.2234
   3314107.25447   2592874.61743  24314564.3754                   24314562.7464
 -24274420.91047 -18897041.35245  21380682.8204                   21380680.2664
 -22786138.67248 -17737418.74246  20486128.7194                   20486125.9024
 -26073522.63346 -20295959.19144  23181668.5634                   23181666.9924
 -10305667.32847  -8016519.74245  22243037.4534                   22243037.1524
 -31546712.53548 -24561867.35546  20721704.2424                   20721699.5634
 11  8 11  1 51 30.0000000  0  8G17G12G29G10G05G04G25G02
 -29827827.99646 -23223922.48444  24329411.4224                   24329410.7894
 -24249825.36748 -18877730.97346  20626258.5474                   20626255.2504
   3216221.13747   2516599.72743  24295938.0004                   24295935.3674
 -24230119.93748 -18862521.08645  21389112.9774                   21389110.4654
 -22847690.68748 -17785381.32847  20474415.8594                   20474412.9734
 -26007932.44546 -20244849.96144  23194149.9224                   23194148.5234
 -10387610.53147  -8080371.57045  22227444.3364                   22227444.6094
 -31539694.68048 -24556398.89146  20723039.7734                   20723035.1024
 11  8 11  1 52  0.0000000  0  8G17G12G29G10G05G04G25G02
 -29771795.60246 -23180260.90643  24340074.2974                   24340072.7504
 -24267774.54748 -18891717.34846  20622843.1884                   20622839.6174
   3118306.94947   2440302.98043  24277304.9534                   24277303.8204
 -24185272.65647 -18827575.14545  21397646.7584                   21397644.1724
 -22908664.60248 -17832893.44947  20462812.8524                   20462810.0944
 -25942318.50846 -20193722.25044  23206635.7894                   23206634.0744
 -10469062.05148  -8143840.27045  22211944.7814                   22211944.9304
 -31532467.10548 -24550767.01246  20724415.0474                   20724410.3444
 11  8 11  1 52 30.0000000  0  8G17G12G29G10G05G04G25G02
 -29715545.16046 -23136429.44543  24350780.0004                   24350778.0354
 -24285104.17648 -18905220.95747  20619545.2114                   20619542.3484
   3020363.25446   2363983.24643  24258666.7584                   24258665.6334
 -24139883.44948 -18792206.91445  21406284.0784                   21406281.9224
 -22969061.19948 -17879955.69947  20451319.3364                   20451316.8554
 -25876683.74247 -20142578.30544  23219125.7974                   23219124.5784
 -10550021.60548  -8206925.62145  22196538.4614                   22196538.4184
 -31525032.85948 -24544974.08246  20725829.6954                   20725825.1294
 11  8 11  1 53  0.0000000  0  8G17G12G29G10G05G04G25G02
 -29659074.66446 -23092426.43743  24361525.1804                   24361524.1724
 -24301811.42248 -18918239.59846  20616366.1414                   20616362.7464
   2922392.89146   2287642.72343  24240024.3364                   24240021.6414
 -24093952.18048 -18756416.28945  21415024.6094                   21415022.3594
 -23028876.67648 -17926565.13347  20439937.1094                   20439934.4144
 -25811026.61747 -20091416.93744  23231619.7194                   23231618.5554
 -10630484.50047  -8269623.96945  22181227.4454                   22181226.5274
 -31517390.33248 -24539018.86346  20727284.3674                   20727279.4414
 11  8 11  1 53 30.0000000  0  8G17G12G29G10G05G04G25G02
 -29602386.27046 -23048253.70343  24372312.0864                   24372310.8484
 -24317898.30948 -18930774.84446  20613305.0864                   20613301.2894
   2824394.41046   2211280.29343  24221374.8594                   24221372.6564
 -24047483.34048 -18720206.79345  21423867.3364                   21423864.8524
 -23088111.94148 -17972722.44947  20428664.8204                   20428662.5434
 -25745350.10247 -20040240.47344  23244118.1174                   23244116.5204
 -10710450.66048  -8331935.26645  22166010.1414                   22166009.8364
 -31509542.57848 -24532903.73446  20728777.6484                   20728772.6454
 11  8 11  1 54  0.0000000  0  7G12G29G10G05G04G25G02
 -24333366.18048 -18942827.73446  20610361.4924                   20610358.0124
   2726368.01646   2134896.12143  24202720.9614                   24202720.1724
 -24000480.08648 -18683580.86745  21432812.0004                   21432808.9304
 -23146766.56248 -18018427.32447  20417503.3984                   20417501.0314
 -25679656.20347 -19989050.43044  23256618.8054                   23256617.6214
 -10789918.88348  -8393858.55145  22150887.4924                   22150887.4104
 -31501491.75848 -24526630.36346  20730309.8834                   20730304.9614
 11  8 11  1 54 30.0000000  0  7G12G29G10G05G04G25G02
 -24348214.03548 -18954397.50046  20607536.0704                   20607532.6914
   2628314.93847   2058491.19144  24184063.0004                   24184060.9924
 -23952944.39847 -18646540.05945  21441856.8444                   21441855.2584
 -23204839.00848 -18063678.54747  20406452.8524                   20406449.8094
 -25613945.10547 -19937847.01244  23269124.1484                   23269121.9304
 -10868886.53547  -8455391.77345  22135860.5394                   22135860.3554
 -31493238.35948 -24520199.14146  20731880.0784                   20731875.1954
 11  8 11  1 55  0.0000000  0  7G12G29G10G05G04G25G02
 -24362440.04348 -18965482.70746  20604828.8674                   20604825.6604
   2530237.64846   1982067.34843  24165398.8984                   24165396.9304
 -23904876.71948 -18609084.70745  21451004.4384                   21451002.0944
 -23262325.95748 -18108473.53547  20395513.1484                   20395510.5434
 -25548215.73447 -19886629.35544  23281631.6564                   23281629.6684
 -10947349.41447  -8516531.66445  22120929.4844                   22120929.4454
 -31484781.33248 -24513609.25046  20733489.3754                   20733484.8444
 11  8 11  1 55 30.0000000  0  7G12G29G10G05G04G25G02
 -22800619.76648 -17748479.90646  20902033.3594                   20902030.2154
   4007563.58247   3133230.42644  24446525.0784                   24446523.7584
 -22280857.55147 -17343615.19545  21760044.9534                   21760042.3164
 -21743800.75448 -16925207.11347  20684478.7974                   20684476.0314
 -23907047.59447 -18607797.06644  23593935.4694                   23593933.5314
  -9449879.29747  -7349671.81246  22405888.6564                   22405888.9734
 -29900698.13748 -23279258.70346  21034930.5314                   21034925.9494
 11  8 11  1 56  0.0000000  0  7G12G29G10G05G04G25G02
 -22813594.27048 -17758589.92646  20899564.4534                   20899561.0234
   3909447.17247   3056776.11744  24427854.1804                   24427852.9344
 -22231725.59047 -17305330.52345  21769394.8444                   21769391.8014
 -21800105.67248 -16969081.03947  20673764.4774                   20673762.1604
 -23841276.75447 -18556547.10244  23606451.0084                   23606449.6564
  -9527318.87947  -7410014.31646  22391152.3524                   22391151.8444
 -29891829.19948 -23272347.84046  21036618.3914                   21036613.5354
 11  8 11  1 56 30.0000000  0  7G12G29G10G05G04G25G02
 -22825944.43048 -17768213.43446  20897214.6174                   20897211.0864
   3811311.08647   2980306.49244  24409179.0234                   24409177.8954
 -22182066.61748 -17266635.21145  21778843.9064                   21778841.5204
 -21855819.02348 -17012494.00847  20663162.1484                   20663159.5204
 -23775487.97747 -18505283.12144  23618970.3054                   23618968.6134
  -9604244.95348  -7469956.68746  22376513.9844                   22376513.8834
 -29882757.22748 -23265278.76646  21038344.7274                   21038339.6024
 11  8 11  1 57  0.0000000  0  7G12G29G10G05G04G25G02
 -22837671.05548 -17777351.08247  20894982.8284                   20894979.8444
   3713155.43047   2903821.63344  24390500.8754                   24390499.7624
 -22131883.63347 -17227531.57045  21788393.9694                   21788391.4344
 -21910940.62948 -17055445.88747  20652673.0864                   20652670.2774
 -23709682.55547 -18454006.18744  23631491.9224                   23631490.6174
  -9680656.19547  -7529497.88345  22361973.1334                   22361973.2734
 -29873483.72348 -23258052.65646  21040109.3284                   21040104.7504
 11  8 11  1 57 30.0000000  0  7G12G29G10G05G04G25G02
 -22848774.87148 -17786003.42246  20892869.7664                   20892866.6214
   3614979.96547   2827321.33244  24371819.1644                   24371817.5704
 -22081180.19547 -17188022.39845  21798042.3594                   21798039.7894
 -21965470.32448 -17097936.53947  20642296.7344                   20642293.7384
 -23643862.40247 -18402717.77744  23644018.2664                   23644016.6644
  -9756551.44547  -7588637.00046  22347530.5634                   22347530.8554
 -29864010.51248 -23250670.93046  21041911.9614                   21041907.2424
 11  8 11  1 58  0.0000000  0  7G12G29G10G05G04G25G02
 -22859257.10948 -17794171.41046  20890875.1954                   20890872.2274
   3516785.03946   2750805.87544  24353131.9534                   24353131.7074
 -22029959.61347 -17148110.25045  21807789.3674                   21807786.9964
 -22019407.46948 -17139965.44947  20632032.5704                   20632029.8794
 -23578028.89146 -18351418.94144  23656545.2974                   23656544.4614
  -9831929.23847  -7647372.91046  22333187.0944                   22333186.5904
 -29854339.58648 -23243135.14546  21043752.2504                   21043747.5474
 11  8 11  1 58 30.0000000  0  7G12G29G10G05G04G25G02
 -22869117.98448 -17801855.22746  20888998.9224                   20888995.1094
   3418570.94146   2674275.48844  24334443.2344                   24334441.7584
 -21978224.52347 -17107797.19145  21817634.6644                   21817631.5984
 -22072751.57448 -17181532.25847  20621881.4454                   20621878.8404
 -23512183.32846 -18300110.74644  23669075.4064                   23669074.1804
  -9906787.83648  -7705704.25046  22318941.9384                   22318941.9614
 -29844471.78548 -23235445.95746  21045630.0474                   21045625.3954
 11  8 11  1 59  0.0000000  0  7G12G29G10G05G04G25G02
 -22878358.48448 -17809055.62946  20887240.3204                   20887237.3404
   3320337.25446   2597729.84844  24315749.5554                   24315748.7934
 -21925978.22747 -17067085.77745  21827576.3754                   21827573.4734
 -22125502.52348 -17222636.86747  20611843.3054                   20611840.5084
 -23446327.14847 -18248794.27744  23681607.9304                   23681605.7194
  -9981126.22348  -7763630.21946  22304795.7114                   22304795.7974
 -29834409.21948 -23227605.00446  21047544.9144                   21047540.0594
 11  8 11  1 59 30.0000000  0  7G12G29G10G05G04G25G02
 -22886979.74648 -17815773.51246  20885599.9844                   20885596.5984
   3222084.37546   2521169.25444  24297052.5004                   24297051.1684
 -21873224.36747 -17025978.86345  21837614.9454                   21837612.6914
 -22177660.06248 -17263279.06647  20601918.0164                   20601915.2704
 -23380462.06647 -18197470.84044  23694140.8834                   23694139.8364
 -10054943.12948  -7821149.83646  22290748.6724                   22290748.7704
 -29824153.53948 -23219613.57046  21049496.4064                   21049491.9304
 11  8 11  2  0  0.0000000  0  7G12G29G10G05G04G25G02
 -22894981.52748 -17822008.68446  20884077.0084                   20884074.0234
   3123813.15246   2444594.35544  24278351.8674                   24278351.3134
 -21819964.92247 -16984477.98045  21847749.8674                   21847747.8404
 -22229222.83248 -17303457.81647  20592106.0394                   20592103.1024
 -23314588.43747 -18146140.75044  23706676.2344                   23706675.3714
 -10128236.38748  -7878261.43446  22276801.3524                   22276801.1414
 -29813705.23448 -23211472.04346  21051484.7814                   21051480.0554
 11  8 11  2  0 30.0000000  0  7G12G29G10G05G04G25G02
 -22902365.09848 -17827762.12946  20882672.0474                   20882668.9344
   3025523.70746   2368005.25444  24259648.2344                   24259647.5824
 -21766203.02347 -16942585.59445  21857980.3134                   21857978.0904
 -22280190.48848 -17343172.83247  20582407.1564                   20582404.2114
 -23248708.00447 -18094805.35544  23719212.8834                   23719212.2274
 -10201004.57048  -7934963.88746  22262953.8834                   22262953.7154
 -29803065.98048 -23203181.71946  21053509.0704                   21053504.6724
 11  8 11  2  1  0.0000000  0  7G12G29G10G05G04G25G02
 -22909131.94548 -17833035.00047  20881384.3204                   20881381.0784
   2927215.45746   2291401.48444  24240940.6804                   24240939.1524
 -21711942.91047 -16900304.97745  21868305.8054                   21868303.4384
 -22330563.77748 -17382424.71147  20572821.4774                   20572818.6214
 -23182822.67647 -18043466.16444  23731750.6024                   23731749.3054
 -10273247.21948  -7991256.82446  22249207.0554                   22249206.5634
 -29792238.16448 -23194744.47346  21055570.1174                   21055565.3164
 11  8 11  2  1 30.0000000  0  7G12G29G10G05G04G25G02
 -22915281.69148 -17837827.01246  20880213.9304                   20880210.6024
   2828889.61746   2214783.99643  24222230.1564                   24222228.1414
 -21657186.83247 -16857637.90245  21878725.0394                   21878722.8484
 -22380341.18048 -17421212.28147  20563348.7664                   20563346.2734
 -23116933.03147 -17992123.61344  23744289.6724                   23744287.6484
 -10344961.85248  -8047138.33646  22235559.5474                   22235559.7344
 -29781222.36348 -23186160.73846  21057666.0554                   21057661.4494
 11  8 11  2  2  0.0000000  0  7G12G29G10G05G04G25G02
 -22920814.94148 -17842138.63746  20879160.8524                   20879157.7774
   2730547.09047   2138153.45743  24203515.9774                   24203513.9924
 -21601937.53547 -16814586.50045  21889239.1094                   21889236.8554
 -22429521.97348 -17459534.93747  20553990.2424                   20553987.1764
 -23051039.53547 -17940778.02043  23756828.3204                   23756826.4734
 -10416146.68047  -8102607.00446  22222013.9534                   22222013.5514
 -29770019.50848 -23177431.26646  21059797.8364                   21059793.1024
 11  8 11  2  2 30.0000000  0  7G12G29G10G05G04G25G02
 -22925731.37148 -17845969.62546  20878225.6884                   20878222.5044
   2632189.29346   2061510.99243  24184798.6884                   24184797.0274
 -21546196.52347 -16771151.95345  21899846.5944                   21899844.2154
 -22478104.86348 -17497391.71147  20544745.2814                   20544741.8984
 -22985142.29347 -17889429.51643  23769368.1414                   23769366.6214
 -10486799.23848  -8157660.92246  22208568.6334                   22208568.8954
 -29758630.06248 -23168556.38746  21061965.2584                   21061960.5984
 11  8 11  2  3  0.0000000  0  7G12G29G10G05G04G25G02
 -22930032.38748 -17849321.06246  20877407.2424                   20877404.0594
   2533816.47746   1984856.84844  24166079.6174                   24166078.0784
 -21489967.05947 -16727336.79745  21910546.2034                   21910543.8244
 -22526089.63348 -17534782.41847  20535613.9774                   20535611.0514
 -22919243.08247 -17838079.50043  23781907.5164                   23781906.7894
 -10556918.23448  -8212299.08246  22195225.6884                   22195226.1214
 -29747055.57848 -23159537.32046  21064167.9774                   21064163.1764
 11  8 11  2  3 30.0000000  0  7G12G29G10G05G04G25G02
 -22933718.53948 -17852193.39146  20876706.0164                   20876702.5824
   2435428.74646   1908191.07044  24147356.5004                   24147355.9774
 -21433252.60247 -16683143.70345  21921338.9534                   21921336.4534
 -22573476.12148 -17571706.93747  20526596.3834                   20526593.4694
 -22853343.01646 -17786728.81643  23794449.2034                   23794447.5204
 -10626502.50848  -8266520.57846  22181984.2344                   22181984.1374
 -29735297.02748 -23150374.84446  21066405.6334                   21066400.6764
 11  8 11  2  4  0.0000000  0  7G12G29G10G05G04G25G02
 -22936789.67648 -17854586.48446  20876121.1484                   20876118.1174
   2337027.96546   1831515.17644  24128631.5554                   24128631.1764
 -21376054.98847 -16638574.12945  21932223.0234                   21932220.7304
 -22620262.48848 -17608163.83647  20517693.1334                   20517690.7814
 -22787441.94147 -17735377.35943  23806989.4454                   23806988.0904
 -10695549.26248  -8320323.23046  22168845.4384                   22168844.8524
 -29723354.94948 -23141069.34846  21068677.9384                   21068673.2774
 11  8 11  2  4 30.0000000  0  7G12G29G10G05G04G25G02
 -22939246.41048 -17856500.82446  20875653.9144                   20875650.9224
   2238614.87946   1754829.61744  24109905.0164                   24109903.7584
 -21318376.91447 -16593630.18045  21943198.8284                   21943196.2814
 -22666448.03548 -17644152.55947  20508904.4144                   20508901.5354
 -22721540.82847 -17684025.85243  23819529.7814                   23819528.8204
 -10764056.79348  -8373705.71946  22155808.5474                   22155808.3284
 -29711230.53948 -23131621.77346  21070985.2664                   21070980.7544
 11  8 11  2  5  0.0000000  0  7G12G29G10G05G04G25G02
 -22941089.98848 -17857937.37946  20875302.9224                   20875299.9774
   2140189.32847   1678134.38744  24091175.3524                   24091173.2384
 -21260222.08647 -16548314.72745  21954265.3594                   21954262.7034
 -22712033.04748 -17679673.33647  20500229.8914                   20500227.0904
 -22655640.97347 -17632675.32043  23832070.6414                   23832069.3014
 -10832024.16848  -8426667.31246  22142874.3984                   22142874.5164
 -29698925.26248 -23122033.26246  21073326.7114                   21073322.2344
 11  8 11  2  5 30.0000000  0  7G12G29G10G05G04G25G02
 -22942320.34848 -17858896.10546  20875069.0704                   20875065.6884
   2041753.00847   1601430.75844  24072442.4924                   24072441.7464
 -21201592.73048 -16502629.52045  21965422.3754                   21965420.0474
 -22757016.43748 -17714725.30547  20491669.8984                   20491667.0984
 -22589742.72347 -17581326.05944  23844610.5634                   23844609.8594
 -10899449.06248  -8479206.18046  22130044.0084                   22130044.3834
 -29686439.21548 -23112303.89146  21075703.0004                   21075698.1994
 11  8 11  2  6  0.0000000  0  7G12G29G10G05G04G25G02
 -22942938.42248 -17859377.73046  20874951.3914                   20874948.0744
   1943306.03146   1524718.84844  24053709.1954                   24053708.1804
 -21142491.62948 -16456576.71545  21976669.1644                   21976666.3284
 -22801397.78548 -17749308.14147  20483224.8594                   20483221.7114
 -22523847.06647 -17529978.81643  23857149.9304                   23857148.9574
 -10966330.12948  -8531321.29346  22117317.2974                   22117316.9064
 -29673773.95748 -23102434.87946  21078112.7894                   21078108.3484
 11  8 11  2  6 30.0000000  0  7G12G29G10G05G04G25G02
 -22942945.62148 -17859383.34446  20874949.8754                   20874946.5984
   1844848.90646   1447999.03144  24034972.9454                   24034972.2814
 -21082922.32447 -16410159.08245  21988004.2424                   21988002.3874
 -22845177.21148 -17783421.96147  20474893.5164                   20474890.9964
 -22457955.42647 -17478634.67244  23869688.6564                   23869687.3674
 -11032666.20748  -8583011.74646  22104693.8444                   22104693.3324
 -29660931.07448 -23092427.45346  21080556.7114                   21080552.0864
 11  8 11  2  7  0.0000000  0  7G12G29G10G05G04G25G02
 -22942342.33248 -17858913.24246  20875064.4694                   20875061.6174
   1746382.61746   1371272.08644  24016235.5394                   24016234.6914
 -21022887.50847 -16363378.70345  21999428.8834                   21999426.4614
 -22888354.18048 -17817066.32847  20466677.0164                   20466674.2114
 -22392068.46147 -17427294.16844  23882226.3594                   23882224.7854
 -11098455.54348  -8634276.16846  22092174.6174                   22092174.2384
 -29647911.27748 -23082282.17646  21083034.7734                   21083030.0824
 11  8 11  2  7 30.0000000  0  7G12G29G10G05G04G25G02
 -22941129.68048 -17857968.33646  20875295.5234                   20875292.0824
   1647907.92647   1294538.61344  23997496.9064                   23997495.4144
 -20962389.87547 -16316237.70345  22010941.0164                   22010938.6374
 -22930928.14548 -17850240.81647  20458575.3984                   20458573.1294
 -22326187.00447 -17375957.99644  23894763.8674                   23894762.1094
 -11163696.84848  -8685113.54346  22079759.6024                   22079759.2664
 -29634715.81648 -23072000.02046  21085545.5164                   21085540.9344
 11  8 11  2  8  0.0000000  0  7G12G29G10G05G04G25G02
 -22939308.06648 -17856548.90246  20875641.9844                   20875638.8444
   1549425.93847   1217799.44944  23978756.2734                   23978754.8984
 -20901432.25847 -16268738.27045  22022540.9844                   22022538.8364
 -22972898.60248 -17882945.03947  20450589.0234                   20450586.0204
 -22260311.66447 -17324626.55943  23907299.6174                   23907297.7034
 -11228388.17648  -8735522.36346  22067449.2814                   22067448.6954
 -29621345.12548 -23061581.32046  21088089.9534                   21088084.9534
 11  8 11  2  8 30.0000000  0  7G12G29G10G05G04G25G02
 -22936879.32448 -17854656.38746  20876104.5164                   20876101.0234
   1450936.00047   1141054.09444  23960013.7344                   23960012.3014
 -20840018.69147 -16220883.54345  22034227.2814                   22034224.6604
 -23014266.27348 -17915179.55947  20442716.7504                   20442714.0314
 -22194444.38747 -17273301.42244  23919833.0004                   23919832.0864
 -11292529.19548  -8785502.36346  22055243.6024                   22055242.9884
 -29607801.87148 -23051028.13746  21090667.2584                   21090662.4064
 11  8 11  2  9  0.0000000  0  7G12G29G10G05G04G25G02
 -22933844.01648 -17852291.21546  20876681.8834                   20876678.8594
   1352439.28946   1064303.47344  23941270.5164                   23941269.2464
 -20778151.80547 -16172675.59845  22046000.5474                   22045997.8714
 -23055030.51648 -17946943.85947  20434959.8834                   20434956.8954
 -22128585.50047 -17221982.79743  23932365.9844                   23932363.3874
 -11356118.07848  -8835052.13746  22043143.0634                   22043142.5234
 -29594086.38748 -23040340.75446  21093277.0004                   21093272.4804
 11  8 11  2  9 30.0000000  0  7G12G29G10G05G04G25G02
 -22930202.59848 -17849453.75446  20877374.6254                   20877371.5274
   1253937.51246    987548.93444  23922526.5474                   23922525.3134
 -20715833.70747 -16124116.05545  22057859.2034                   22057856.7274
 -23095190.18748 -17978237.07447  20427317.3204                   20427314.5124
 -22062735.12147 -17170670.83644  23944896.6174                   23944895.3134
 -11419152.54348  -8884169.88746  22031147.8054                   22031148.1174
 -29580199.04348 -23029519.44146  21095919.7664                   21095914.5784
 11  8 11  2 10  0.0000000  0  7G12G29G10G05G04G25G02
 -22925955.64848 -17846144.44546  20878182.8204                   20878180.1024
   1155431.60246    910791.13744  23903780.4774                   23903779.5234
 -20653067.41047 -16075207.27045  22069803.1254                   22069801.0084
 -23134744.93048 -18009058.92247  20419790.3444                   20419787.7344
 -21996894.08246 -17119366.13743  23957425.4224                   23957424.3404
 -11481631.23848  -8932854.57046  22019258.9384                   22019258.6254
 -29566140.89548 -23018565.03946  21098595.0004                   21098590.1054
 11  8 11  2 10 30.0000000  0  7G12G29G10G05G04G25G02
 -22921105.06648 -17842364.77046  20879105.8444                   20879103.2344
   1056921.29746    834029.88744  23885035.2664                   23885033.5904
 -20589856.53947 -16025952.06245  22081831.6094                   22081829.3444
 -23173695.37148 -18039409.87547  20412378.1954                   20412375.6454
 -21931063.93046 -17068069.90644  23969952.4534                   23969951.7504
 -11543553.51248  -8981105.67246  22007475.2584                   22007475.3364
 -29551913.58248 -23007478.81246  21101302.3054                   21101297.5864
 11  8 11  2 11  0.0000000  0  7G12G29G10G05G04G25G02
 -22915651.70348 -17838115.39546  20880143.6094                   20880140.8094
    958407.74647    757266.13744  23866288.8134                   23866287.8054
 -20526203.93047 -15976352.64845  22093944.5864                   22093942.4574
 -23212041.05148 -18069289.58647  20405081.2114                   20405078.6094
 -21865245.16446 -17016782.57043  23982477.2504                   23982476.8014
 -11604917.77348  -9028921.96946  21995797.8524                   21995797.6954
 -29537517.90648 -22996261.38746  21104041.9064                   21104036.9694
 11  8 11  2 11 30.0000000  0  7G12G29G10G05G04G25G02
 -22909595.85548 -17833396.54746  20881296.2274                   20881293.3754
    859892.66847    680501.17244  23847541.7344                   23847541.0784
 -20462111.36747 -15926410.40645  22106140.8054                   22106138.7504
 -23249781.07048 -18098697.36347  20397899.6804                   20397896.8484
 -21799437.68446 -16965504.04343  23995000.4694                   23994999.8634
 -11665721.66848  -9076301.60946  21984227.3524                   21984227.3134
 -29522954.05148 -22984912.92246  21106813.0474                   21106808.2344
 11  8 11  2 12  0.0000000  0  7G12G29G10G05G04G25G02
 -22902938.37548 -17828208.90646  20882563.1334                   20882559.6254
    761376.64147    603735.46544  23828794.6024                   23828793.4654
 -20397582.22347 -15876127.96545  22118420.2974                   22118418.1884
 -23286915.36348 -18127633.14547  20390833.3834                   20390830.3404
 -21733642.30946 -16914234.92243  24007520.4774                   24007520.1214
 -11725963.91848  -9123243.60246  21972763.8444                   21972763.6454
 -29508223.12948 -22973434.28146  21109616.1174                   21109611.7504
 11  8 11  2 12 30.0000000  0  7G12G29G10G05G04G25G02
 -22895680.27048 -17822553.23846  20883944.0864                   20883941.2934
    662860.41447    526969.63744  23810047.5314                   23810046.7034
 -20332619.57447 -15825507.73845  22130782.5634                   22130780.2384
 -23323443.35248 -18156096.48847  20383882.0784                   20383879.3364
 -21667859.64146 -16862975.73443  24020038.5004                   24020038.1094
 -11785643.22348  -9169746.94546  21961407.1884                   21961406.7734
 -29493326.21148 -22961826.28146  21112451.1334                   21112445.9184
 11  8 11  2 13  0.0000000  0  7G12G29G10G05G04G25G02
 -22887822.53948 -17816430.32846  20885439.4224                   20885436.0634
    564345.26647    450204.65244  23791301.0704                   23791299.3364
 -20267225.99247 -15774551.70345  22143226.4454                   22143224.1914
 -23359365.07048 -18184087.41447  20377046.1954                   20377043.8244
 -21602090.46146 -16811727.01643  24032554.2974                   24032553.2894
 -11844758.09048  -9215810.45346  21950157.7974                   21950157.5474
 -29478263.93748 -22950089.43446  21115316.8134                   21115312.3054
 11  8 11  2 13 30.0000000  0  7G12G29G10G05G04G25G02
 -22879367.79748 -17809842.21146  20887048.2894                   20887045.1254
    465830.65247    373440.05144  23772553.9924                   23772553.3134
 -20201406.07847 -15723263.48045  22155751.6724                   22155749.2344
 -23394681.84448 -18211606.95347  20370325.7814                   20370323.0474
 -21536336.91846 -16760490.50443  24045067.0394                   24045065.6604
 -11903308.81248  -9261434.36746  21939015.8984                   21939015.6454
 -29463038.69548 -22938225.59046  21118214.6334                   21118209.6564
 11  8 11  2 14  0.0000000  0  7G12G29G10G05G04G25G02
 -22870315.14148 -17802788.19146  20888771.1024                   20888767.3484
    367319.27347    296678.00844  23753808.0394                   23753807.2704
 -20135160.73447 -15671643.74645  22168357.8594                   22168355.3014
 -23429391.48048 -18238653.38747  20363720.5474                   20363717.8634
 -21470597.90646 -16709265.29743  24057576.6334                   24057575.2194
 -11961291.99248  -9306616.04746  21927981.9304                   21927982.1804
 -29447649.42648 -22926233.93046  21121143.3594                   21121138.3444
 11  8 11  2 14 30.0000000  0  7G12G29G10G05G04G25G02
 -22860666.61748 -17795269.85946  20890606.7584                   20890603.7704
    268811.63347    219918.87544  23735062.3674                   23735061.8594
 -20068493.77047 -15619695.48445  22181043.8134                   22181041.1374
 -23463494.64548 -18265227.25847  20357231.2114                   20357228.2854
 -21404874.26646 -16658052.05943  24070082.8754                   24070082.1644
 -12018706.94548  -9351354.95346  21917056.6334                   21917056.2544
 -29432097.68448 -22914115.66446  21124102.2814                   21124097.8484
 11  8 11  2 15  0.0000000  0  7G12G29G10G05G04G25G02
 -22850423.00048 -17787287.81646  20892556.2664                   20892552.9534
    170308.71147    143163.42644  23716317.9304                   23716317.0784
 -20001407.55547 -15567420.52745  22193810.2504                   22193807.7154
 -23496991.22748 -18291328.47347  20350857.2344                   20350854.3054
 -21339166.80946 -16606851.44543  24082586.9384                   24082585.9454
 -12075552.31648  -9395650.02346  21906239.2584                   21906238.9654
 -29416384.48448 -22901871.60246  21127092.7344                   21127087.7074
 11  8 11  2 15 30.0000000  0  7G12G29G10G05G04G25G02
 -22839586.48048 -17778843.77346  20894618.6414                   20894615.4774
     71810.34447     66411.52744  23697574.8134                   23697573.4694
 -19933906.25847 -15514822.11745  22206655.6484                   22206653.0004
 -23529882.03948 -18316957.65247  20344598.1644                   20344595.1484
 -21273477.39946 -16555664.88243  24095087.1094                   24095086.1334
 -12131827.97348  -9439501.15646  21895530.0164                   21895529.8284
 -29400511.72348 -22889503.20346  21130113.2584                   21130108.2814
 11  8 11  2 16  0.0000000  0  7G12G29G10G05G04G25G02
 -22828158.34848 -17769938.74246  20896793.1414                   20896789.9184
    -26682.66847    -10336.23044  23678831.9534                   23678829.7074
 -19865993.28147 -15461902.93745  22219579.0314                   22219575.9924
 -23562167.46148 -18342115.10947  20338454.3284                   20338451.5354
 -21207806.68446 -16504492.90243  24107583.8284                   24107582.7854
 -12187532.91848  -9482907.59046  21884929.9614                   21884929.6644
 -29384480.51248 -22877011.32046  21133163.7814                   21133158.5704
 11  8 11  2 16 30.0000000  0  7G12G29G10G05G04G25G02
 -22816139.28948 -17760573.25046  20899080.0474                   20899077.4454
   -125168.61747    -87078.48044  23660091.0944                   23660089.3954
 -19797670.49247 -15408664.41045  22232579.9064                   22232577.6844
 -23593846.50448 -18366800.05147  20332425.8834                   20332422.8754
 -21142154.33246 -16453335.23843  24120077.2194                   24120076.4184
 -12242664.95748  -9525867.60546  21874438.6804                   21874438.0234
 -29368290.74648 -22864395.88746  21136244.6174                   21136239.8914
 11  8 11  2 17  0.0000000  0  7G12G29G10G05G04G25G02
 -22803531.61748 -17750749.09446  20901479.4304                   20901475.9734
   -223647.36747   -163815.12544  23641350.5634                   23641348.9344
 -19728941.98447 -15355109.75445  22245658.4924                   22245656.1294
 -23624920.37148 -18391013.43447  20326512.9224                   20326509.9304
 -21076522.31246 -16402193.38743  24132566.5784                   24132565.1374
 -12297223.95748  -9568381.09846  21864056.4694                   21864056.0474
 -29351944.56648 -22851658.58246  21139355.0554                   21139350.2344
 11  8 11  2 17 30.0000000  0  7G12G29G10G05G04G25G02
 -22790336.31248 -17740467.04346  20903990.4694                   20903987.0164
   -322118.28947   -240545.67244  23622612.1414                   23622610.7624
 -19659811.53947 -15301241.90245  22258813.6644                   22258811.6214
 -23655389.37148 -18414755.50447  20320714.4614                   20320712.0204
 -21010911.41846 -16351068.02043  24145052.0864                   24145050.9694
 -12351209.11348  -9610447.44546  21853783.3204                   21853783.4104
 -29335442.75448 -22838799.99246  21142495.2894                   21142490.5394
 11  8 11  2 18  0.0000000  0  7G12G29G10G05G04G25G02
 -22776556.08648 -17729729.21146  20906612.9694                   20906609.4454
   -420581.07847   -317269.89144  23603875.1174                   23603873.1724
 -19590282.44947 -15247063.40645  22272044.8444                   22272042.1564
 -23685254.27748 -18438026.84447  20315031.6804                   20315028.7894
 -20945322.87146 -16299960.05543  24157532.8834                   24157532.0664
 -12404619.96948  -9652066.27746  21843619.7974                   21843619.2854
 -29318787.06648 -22825821.50846  21145664.4924                   21145659.8874
 11  8 11  2 18 30.0000000  0  7G12G29G10G05G04G25G02
 -22762192.50048 -17718536.81246  20909346.1484                   20909342.7544
   -519035.16447   -393987.29344  23585140.2814                   23585138.5864
 -19520358.17247 -15192576.98445  22285350.4614                   22285347.9654
 -23714515.44948 -18460827.73847  20309463.5394                   20309460.4454
 -20879757.82846 -16248870.40243  24170009.7814                   24170008.2234
 -12457455.77748  -9693237.02746  21833565.1884                   21833564.9924
 -29301978.97748 -22812724.27746  21148863.3204                   21148858.2274
 11  8 11  2 19  0.0000000  0  7G12G29G10G05G04G25G02
 -22747245.62548 -17706889.90246  20912190.5634                   20912186.5234
   -617478.39147   -470696.24244  23566406.5634                   23566405.1524
 -19450040.25447 -15137783.83645  22298731.9614                   22298729.5554
 -23743172.10248 -18483157.57847  20304010.2584                   20304007.3244
 -20814215.48046 -16197798.43743  24182481.7344                   24182480.5474
 -12509714.21948  -9733957.88746  21823621.0084                   21823620.9884
 -29285017.96148 -22799507.87946  21152090.5784                   21152085.8094
 11  8 11  2 19 30.0000000  0  7G12G29G10G05G04G25G02
 -22731717.48048 -17694790.05546  20915145.3984                   20915142.0664
   -715910.61747   -547396.59444  23547675.4144                   23547674.3524
 -19379332.83247 -15082687.17245  22312186.5554                   22312184.5904
 -23771225.31648 -18505017.21947  20298671.7504                   20298669.1374
 -20748697.35947 -16146745.35543  24194949.4304                   24194948.4064
 -12561395.25048  -9774228.81246  21813786.0234                   21813786.1844
 -29267905.77048 -22786173.67646  21155347.1564                   21155341.9104
 11  8 11  2 20  0.0000000  0  7G12G29G10G05G04G25G02
 -22715609.19948 -17682238.15246  20918210.6644                   20918207.3914
   -814330.01647   -624086.96544  23528946.9064                   23528945.4614
 -19308238.41047 -15027288.93745  22325715.7114                   22325713.4454
 -23798674.46948 -18526406.15247  20293448.4534                   20293445.3714
 -20683203.75847 -16095711.35943  24207412.4694                   24207411.3164
 -12612497.09048  -9814048.43046  21804062.1484                   21804061.6414
 -29250642.83648 -22772722.01246  21158631.7344                   21158626.7274
 11  8 11  2 20 30.0000000  0  7G12G29G10G05G04G25G02
 -22698923.04748 -17669235.96546  20921385.8754                   20921382.6724
   -912736.49647   -700767.25044  23510221.0784                   23510219.6134
 -19236760.72347 -14971592.06245  22339317.2274                   22339315.5744
 -23825520.69548 -18547325.27047  20288339.5234                   20288336.8834
 -20617735.76246 -16044697.34443  24219870.4304                   24219868.5004
 -12663019.57048  -9853416.59446  21794447.7974                   21794447.4694
 -29233230.86748 -22759154.21146  21161945.2424                   21161940.2624
 11  8 11  2 21  0.0000000  0  7G12G29G10G05G04G25G02
 -22681659.68748 -17655784.00446  20924670.7664                   20924667.7974
  -1011128.37547   -777436.14844  23491497.3284                   23491496.3834
 -19164902.32447 -14915598.52345  22352991.5554                   22352989.3984
 -23851763.61748 -18567774.28547  20283345.9614                   20283343.0984
 -20552293.26646 -15993703.18743  24232324.4924                   24232322.4384
 -12712960.98848  -9892331.98446  21784944.4454                   21784944.1024
 -29215669.71148 -22745470.15246  21165287.0784                   21165282.0514
 11  8 11  2 21 30.0000000  0  7G12G29G10G05G04G25G02
 -22663820.56248 -17641883.40246  20928065.5784                   20928062.1564
  -1109504.84447   -854093.07045  23472777.2974                   23472775.8134
 -19092666.44947 -14859310.85245  22366738.2734                   22366736.0314
 -23877403.68048 -18587753.53147  20278466.6954                   20278464.0744
 -20486877.13346 -15942729.54343  24244772.6254                   24244770.4454
 -12762320.71948  -9930794.11346  21775551.6484                   21775551.3324
 -29197960.68748 -22731670.87946  21168656.9694                   21168652.0664
 11  8 11  2 22  0.0000000  0  7G12G29G10G05G04G25G02
 -22645407.84848 -17627535.84046  20931569.4384                   20931566.0704
  -1207865.01247   -930737.28145  23454059.4614                   23454058.3284
 -19020056.37547 -14802731.59045  22380555.3674                   22380552.9344
 -23902441.53148 -18607263.52747  20273702.1644                   20273698.9414
 -20421488.27346 -15891777.19543  24257215.7274                   24257213.2934
 -12811098.01648  -9968802.40246  21766269.7034                   21766269.2384
 -29180104.70748 -22717757.10546  21172054.8284                   21172050.3874
 11  8 11  2 22 30.0000000  0  7G12G29G10G05G04G25G02
 -22626423.25848 -17612742.65646  20935182.2194                   20935179.3524
  -1306208.11747  -1007368.20745  23435345.7584                   23435344.3054
 -18947074.96147 -14745862.98845  22394443.2734                   22394440.9344
 -23926877.66448 -18626304.65647  20269052.0864                   20269049.1334
 -20356127.35946 -15840846.61343  24269653.2814                   24269651.6764
 -12859292.03948 -10006356.18046  21757098.5784                   21757098.5864
 -29162102.81248 -22703729.62946  21175480.4614                   21175475.7154
 11  8 11  2 23  0.0000000  0  7G12G29G10G05G04G25G02
 -22606867.75048 -17597504.60546  20938903.4774                   20938900.2504
  -1404532.52347  -1083984.53945  23416635.0864                   23416634.2234
 -18873725.18747 -14688707.34845  22408400.8834                   22408398.8634
 -23950712.00048 -18644876.84447  20264516.5164                   20264513.8014
 -20290794.44146 -15789937.87543  24282086.0234                   24282084.4264
 -12906901.52048 -10043454.46946  21748038.6094                   21748038.5594
 -29143955.41848 -22689588.77346  21178933.8754                   21178929.1024
 11  8 11  2 23 30.0000000  0  7G12G29G10G05G04G25G02
 -22586742.41848 -17581822.52346  20942732.7114                   20942730.1134
  -1502836.66447  -1160585.09845  23397928.3204                   23397926.7774
 -18800009.29347 -14631266.40244  22422428.6724                   22422426.3484
 -23973944.13748 -18662979.79747  20260095.6954                   20260092.9734
 -20225489.40246 -15739050.82843  24294512.6564                   24294511.4104
 -12953924.96948 -10080096.11346  21739090.5084                   21739090.2114
 -29125662.59448 -22675334.60546  21182414.7504                   21182409.8094
 11  8 11  2 24  0.0000000  0  8G26G12G29G10G05G04G25G02
   6142739.85956   4798124.16053  24773302.1804                   24773301.1604
 -22566048.50048 -17565697.39546  20946671.2194                   20946668.2114
  -1601118.66447  -1237168.42244  23379225.7814                   23379223.8364
 -18725930.12947 -14573542.39144  22436525.9844                   22436523.2704
 -23996574.53148 -18680613.84447  20255789.0704                   20255786.2934
 -20160212.58246 -15688185.75043  24306934.8054                   24306933.1374
 -13000361.27348 -10116280.24246  21730253.8984                   21730253.1524
 -29107224.80548 -22660967.48046  21185923.7424                   21185918.7734
 11  8 11  2 24 30.0000000  0  8G26G12G29G10G05G04G25G02
   6033985.88746   4713380.94143  24752606.5864                   24752605.9024
 -22544789.73048 -17549132.12146  20950716.6174                   20950713.4454
  -1699380.22747  -1313735.82044  23360527.0784                   23360525.5554
 -18651493.24247 -14515539.62145  22450690.5634                   22450688.3404
 -24018605.82848 -18697781.06247  20251596.7894                   20251593.8014
 -20094966.73446 -15637344.83643  24319349.8834                   24319349.2974
 -13046211.83248 -10152007.94146  21721528.6254                   21721528.2894
 -29088645.47348 -22646490.05146  21189458.8204                   21189453.9414
 11  8 11  2 25  0.0000000  0  8G26G12G29G10G05G04G25G02
   5925127.95346   4628556.69143  24731891.3204                   24731890.1764
 -22522971.45348 -17532130.87146  20954868.7274                   20954865.5554
  -1797624.00847  -1390289.37144  23341831.7114                   23341829.9534
 -18576705.47347 -14457263.45345  22464922.3834                   22464920.1884
 -24040042.22348 -18714484.72347  20247517.6024                   20247514.5004
 -20029756.55546 -15586531.74643  24331758.9304                   24331758.5434
 -13091479.85248 -10187281.71546  21712914.8754                   21712914.3054
 -29069929.24648 -22631905.96546  21193020.3204                   21193015.8284
 11  8 11  2 25 30.0000000  0  8G26G12G29G10G05G04G25G02
   5816168.97346   4543653.64543  24711157.5394                   24711155.6994
 -22500596.00848 -17514695.45346  20959126.3834                   20959123.0394
  -1895848.92646  -1466828.22344  23323140.2424                   23323138.5204
 -18501569.76247 -14398716.15644  22479219.7114                   22479217.7424
 -24060884.07048 -18730725.10247  20243551.2424                   20243548.5474
 -19964582.06646 -15535746.43443  24344161.9534                   24344160.4264
 -13136164.37548 -10222100.80946  21704411.3054                   21704410.5784
 -29051076.83648 -22617215.74246  21196607.7344                   21196602.9184
 11  8 11  2 26  0.0000000  0  8G26G12G29G10G05G04G25G02
   5707111.96946   4458674.30143  24690404.2734                   24690403.2934
 -22477664.39148 -17496826.66446  20963489.7664                   20963487.0944
  -1994053.07047  -1543350.91044  23304452.8674                   23304450.9734
 -18426088.85947 -14339899.89844  22493583.8284                   22493581.2234
 -24081131.41848 -18746502.23447  20239698.4844                   20239695.6484
 -19899443.21946 -15484988.89543  24356557.8594                   24356556.5664
 -13180264.12548 -10256464.24246  21696019.5474                   21696019.0204
 -29032088.50848 -22602419.63346  21200221.3914                   21200216.3714
 11  8 11  2 26 30.0000000  0  8G26G12G29G10G05G04G25G02
   5597960.42646   4373621.16043  24669633.0004                   24669632.1604
 -22454177.55148 -17478525.21946  20967959.4384                   20967956.3164
  -2092234.87547  -1619856.19944  23285769.2664                   23285767.9494
 -18350265.08647 -14280816.46144  22508012.3134                   22508010.3134
 -24100784.42248 -18761816.24647  20235958.5164                   20235955.6414
 -19834340.29346 -15434259.32043  24368945.5634                   24368944.7274
 -13223777.87948 -10290371.04746  21687738.9384                   21687738.4844
 -29012964.21148 -22587517.56246  21203860.2734                   21203855.3594
 11  8 11  2 27  0.0000000  0  8G26G12G29G10G05G04G25G02
   5488717.98446   4288497.30543  24648845.2344                   24648844.0554
 -22430135.99248 -17459791.53946  20972534.4144                   20972531.2894
  -2190391.90647  -1696342.18444  23267090.9064                   23267088.7504
 -18274100.20747 -14221467.22744  22522505.2584                   22522503.1294
 -24119842.31248 -18776666.53947  20232331.9844                   20232329.3984
 -19769272.53946 -15383557.18043  24381327.6804                   24381326.3634
 -13266703.75848 -10323819.76646  21679570.5944                   21679570.0554
 -28993703.62948 -22572509.29746  21207525.4224                   21207520.7584
 11  8 11  2 27 30.0000000  0  8G26G12G29G10G05G04G25G02
   5379387.52346   4203304.76643  24628039.9224                   24628038.6374
 -22405541.53948 -17440627.03546  20977214.5164                   20977211.8594
  -2288523.14147  -1772808.04745  23248416.9224                   23248415.4734
 -18197597.48847 -14161854.73845  22537064.3984                   22537061.9064
 -24138305.94148 -18791053.76647  20228818.5704                   20228815.2704
 -19704240.45346 -15332882.83643  24393703.3754                   24393701.9024
 -13309041.14548 -10356809.92646  21671513.7584                   21671513.8054
 -28974307.78147 -22557395.62146  21211216.2114                   21211211.9574
 11  8 11  2 28  0.0000000  0  8G26G12G29G10G05G04G25G02
   5269973.53146   4118047.25843  24607219.0864                   24607218.4614
 -22380394.50048 -17421031.94146  20981999.7814                   20981996.8674
  -2386625.74647  -1849251.62145  23229748.9694                   23229747.2274
 -18120758.35947 -14101980.10245  22551685.9384                   22551683.5044
 -24156174.19148 -18804977.06247  20225418.4224                   20225415.2274
 -19639242.70346 -15282235.25843  24406072.1644                   24406070.5274
 -13350787.75048 -10389339.73046  21663569.6414                   21663569.3054
 -28954775.55147 -22542175.68746  21214933.3984                   21214928.5004
 11  8 11  2 28 30.0000000  0  8G26G12G29G10G05G04G25G02
   5160478.84046   4032726.81643  24586382.6094                   24586381.9104
 -22354696.40248 -17401007.44546  20986889.8594                   20986886.9924
  -2484698.46947  -1925671.90645  23211086.0704                   23211085.0904
 -18043585.56247 -14041845.45744  22566371.2504                   22566368.8554
 -24173447.44948 -18818436.72747  20222131.1174                   20222128.4494
 -19574279.78546 -15231614.80143  24418434.0474                   24418432.6684
 -13391942.72348 -10421408.52046  21655738.1094                   21655737.6524
 -28935107.65647 -22526850.05146  21218675.9534                   21218671.2154
 11  8 11  2 29  0.0000000  0  8G26G12G29G10G05G04G25G02
   5050907.23446   3947346.45743  24565531.6414                   24565531.1724
 -22328448.42248 -17380554.47746  20991884.8674                   20991881.9844
  -2582739.02047  -2002067.13345  23192429.8754                   23192427.6914
 -17966081.66847 -13981452.82444  22581120.1954                   22581117.6374
 -24190125.67248 -18831432.73447  20218957.4304                   20218954.7304
 -19509351.03146 -15181020.93743  24430789.3204                   24430787.9774
 -13432504.61348 -10453015.16446  21648019.8204                   21648018.9304
 -28915304.00048 -22511418.61346  21222444.5004                   21222439.8834
 11  8 11  2 29 30.0000000  0  8G26G12G29G10G05G04G25G02
   4941261.15646   3861908.10243  24544667.2504                   24544666.0784
 -22301652.67648 -17359674.67246  20996984.0394                   20996981.1174
  -2680746.48447  -2078436.57045  23173779.0944                   23173777.6764
 -17888249.94147 -13920804.72344  22595930.6644                   22595928.7154
 -24206209.73848 -18843965.77347  20215896.7584                   20215893.9844
 -19444457.44146 -15130454.51643  24443138.6724                   24443137.2274
 -13472473.19948 -10484159.49646  21640414.1724                   21640413.3674
 -28895365.66848 -22495882.24646  21226238.8594                   21226233.8914
 11  8 11  2 30  0.0000000  0  8G26G12G29G10G05G04G25G02
   4831544.47746   3776414.71943  24523788.3524                   24523787.7344
 -22274309.80948 -17338368.53946  21002187.1954                   21002184.1214
  -2778718.71947  -2154778.53145  23155135.7814                   23155133.8524
 -17810092.14147 -13859902.55544  22610803.6484                   22610801.8244
 -24221699.28548 -18856035.53947  20212949.2504                   20212946.2624
 -19379598.29746 -15079914.96943  24455480.5554                   24455479.3634
 -13511846.75848 -10514840.16446  21632921.3284                   21632920.8094
 -28875292.09448 -22480240.50446  21230058.5164                   21230053.5744
 11  8 11  2 30 30.0000000  0  8G26G12G29G10G05G04G25G02
   4721759.20746   3690867.85943  24502897.2194                   24502895.7584
 -22246422.54748 -17316638.19546  21007494.0634                   21007490.9144
  -2876654.97747  -2231092.48045  23136498.4224                   23136498.1024
 -17731612.23847 -13798749.39844  22625738.4694                   22625735.7234
 -24236595.53948 -18867643.00047  20210114.2894                   20210111.5434
 -19314774.69946 -15029403.03543  24467816.0474                   24467814.7584
 -13550625.48448 -10545057.33246  21625541.8134                   21625541.2464
 -28855084.84847 -22464494.59446  21233903.5394                   21233899.2384
 11  8 11  2 31  0.0000000  0  8G26G12G29G10G05G04G25G02
   4611909.98846   3605271.18443  24481993.3914                   24481992.1254
 -22217991.18048 -17294483.90246  21012904.4384                   21012901.1684
  -2974552.62547  -2307376.30544  23117869.0634                   23117867.7074
 -17652811.43747 -13737346.20344  22640733.9844                   22640731.3054
 -24250897.88348 -18878787.67247  20207392.7504                   20207389.8324
 -19249985.41846 -14978917.87143  24480145.1564                   24480143.9924
 -13588807.18048 -10574809.27746  21618275.9694                   21618275.7304
 -28834742.97748 -22448643.78146  21237774.8914                   21237769.7114
 11  8 11  2 31 30.0000000  0  8G26G12G29G10G05G04G25G02
   4501998.54746   3519626.01643  24461078.2504                   24461077.3674
 -22189018.92648 -17271908.12946  21018417.3834                   21018414.3834
  -3072411.45347  -2383629.93444  23099247.4534                   23099245.9264
 -17573694.30547 -13675696.49244  22655789.0394                   22655786.7974
 -24264608.02348 -18889470.89547  20204783.8754                   20204781.0234
 -19185232.00446 -14928460.67643  24492467.5164                   24492466.0744
 -13626392.58248 -10604096.58646  21611123.8364                   21611123.7194
 -28814268.28148 -22432689.46546  21241671.2114                   21241666.1174
 11  8 11  2 32  0.0000000  0  8G26G12G29G10G05G04G25G02
   4392027.19946   3433934.14843  24440150.8834                   24440150.0084
 -22159507.34848 -17248912.10246  21024033.1954                   21024030.5164
  -3170230.19146  -2459852.32044  23080632.8984                   23080631.6134
 -17494263.82047 -13613802.62944  22670904.4064                   22670901.7734
 -24277727.32448 -18899693.71947  20202287.6334                   20202284.4344
 -19120515.07446 -14878031.88743  24504782.2344                   24504780.9534
 -13663381.39848 -10632919.02046  21604085.7114                   21604084.8594
 -28793661.88748 -22416632.53146  21245592.6334                   21245587.4494
 11  8 11  2 32 30.0000000  0  8G26G12G29G10G05G04G25G02
   4281999.78146   3348198.64143  24419213.0084                   24419212.1804
 -22129458.21148 -17225497.19946  21029751.4924                   21029748.4734
  -3268006.97346  -2536041.98044  23062027.7424                   23062025.7854
 -17414522.39547 -13551666.46544  22686078.5864                   22686075.8914
 -24290255.50448 -18909455.93047  20199903.3134                   20199900.6414
 -19055834.26646 -14827631.26643  24517090.3054                   24517088.8244
 -13699772.44948 -10661275.65646  21597159.9694                   21597159.4414
 -28772923.39148 -22400472.66846  21249538.5944                   21249533.5394
 11  8 11  2 33  0.0000000  0  8G26G12G29G10G05G04G25G02
   4171920.33246   3262422.54343  24398265.4304                   24398264.7584
 -22098872.33248 -17201664.05146  21035571.7894                   21035568.3164
  -3365739.86747  -2612197.43744  23043429.5704                   23043426.7854
 -17334472.12147 -13489289.64144  22701310.9924                   22701308.9534
 -24302192.65248 -18918757.59047  20197631.8204                   20197628.6884
 -18991188.98046 -14777258.32043  24529392.6724                   24529390.6524
 -13735564.29748 -10689165.38746  21590349.3914                   21590348.8244
 -28752052.60548 -22384209.72746  21253510.1024                   21253505.1884
 11  8 11  2 33 30.0000000  0  8G26G12G29G10G05G04G25G02
   4061790.45346   3176607.17243  24377308.3834                   24377307.7624
 -22067752.65648 -17177414.96146  21041493.7894                   21041490.4734
  -3463428.09047  -2688318.10945  23024839.8284                   23024837.0164
 -17254117.16046 -13426675.40644  22716602.2974                   22716600.0984
 -24313540.54348 -18927600.09447  20195472.2344                   20195469.3014
 -18926580.60546 -14726914.12143  24541687.0784                   24541684.9344
 -13770757.54748 -10716588.67646  21583652.0004                   21583651.4184
 -28731051.03548 -22367844.86746  21257506.4454                   21257501.9304
 11  8 11  2 34  0.0000000  0  8G26G12G29G10G05G04G25G02
   3951613.57446   3090755.18843  24356343.0084                   24356341.7854
 -22036101.14548 -17152751.45346  21047516.5474                   21047513.3954
  -3561070.21147  -2764402.82845  23006258.9144                   23006257.3404
 -17173460.18047 -13363825.82444  22731951.1564                   22731948.2624
 -24324299.85948 -18935983.96947  20193424.8204                   20193421.9024
 -18862009.25846 -14676598.77343  24553974.0004                   24553972.5944
 -13805351.59448 -10743545.04746  21577069.2814                   21577068.6254
 -28709919.05548 -22351378.39546  21261527.9534                   21261523.0744
 11  8 11  2 34 30.0000000  0  8G26G12G29G10G05G04G25G02
   3841392.64846   3004868.85243  24335368.4384                   24335367.0944
 -22003919.66048 -17127674.98446  21053640.6024                   21053637.1994
  -3658664.73447  -2840450.45745  22987687.3364                   22987685.8164
 -17092504.14846 -13300743.22344  22747356.1804                   22747354.1914
 -24334471.12148 -18943909.60947  20191489.3914                   20191486.4884
 -18797475.27746 -14626312.49643  24566254.9144                   24566253.0274
 -13839346.02348 -10770034.19546  21570600.2664                   21570599.8364
 -28688657.43047 -22334810.90246  21265574.2814                   21265568.8054
 11  8 11  2 35  0.0000000  0  8G26G12G29G10G05G04G25G02
   3731131.92646   2918951.49643  24314385.7114                   24314385.0984
 -21971208.88348 -17102186.06646  21059865.3754                   21059862.1724
  -3756208.95347  -2916458.85245  22969125.1414                   22969123.0704
 -17011250.76646 -13237428.91844  22762818.2974                   22762815.7854
 -24344054.06648 -18951376.82447  20189665.7424                   20189662.5204
 -18732977.53146 -14576054.52742  24578527.5164                   24578526.6254
 -13872739.06248 -10796054.73046  21564245.5944                   21564245.5474
 -28667265.43747 -22318141.81646  21269644.7584                   21269639.6524
 11  8 11  2 35 30.0000000  0  8G26G12G29G10G05G04G25G02
   3620833.80546   2833005.03143  24293396.7814                   24293396.2814
 -21937971.53948 -17076286.85246  21066190.2974                   21066187.3754
  -3853702.07047  -2992427.42245  22950572.8594                   22950571.4414
 -16929703.65247 -13173885.71944  22778336.7424                   22778334.2234
 -24353050.41048 -18958386.94547  20187954.0084                   20187950.8244
 -18668516.88346 -14525825.37943  24590794.7734                   24590793.3874
 -13905530.96148 -10821606.84046  21558005.4534                   21558005.6374
 -28645744.16448 -22301371.99646  21273739.9534                   21273735.1684
 11  8 11  2 36  0.0000000  0  7G26G12G29G10G05G25G02
   3510500.72746   2747031.28543  24272401.0084                   24272399.8524
 -21904210.01248 -17049979.16846  21072614.5784                   21072611.6724
  -3951143.09447  -3068355.40245  22932030.1094                   22932028.3054
 -16847866.15647 -13110116.25044  22793909.6804                   22793907.0044
 -24361461.45748 -18964940.99647  20186353.1484                   20186350.0274
 -13937721.94148 -10846690.70346  21551879.6414                   21551879.0394
 -28624094.77348 -22284502.34846  21277859.9224                   21277854.7344
 11  8 11  2 36 30.0000000  0  7G26G12G29G10G05G25G02
   3400136.81347   2661033.55143  24251399.9534                   24251398.7154
 -21869925.43748 -17023263.92246  21079138.7344                   21079136.0164
  -4048530.01647  -3144241.22345  22913498.2664                   22913496.4384
 -16765740.65247 -13046122.34044  22809537.6254                   22809535.1764
 -24369287.18048 -18971038.94547  20184864.0634                   20184860.9344
 -13969310.94148 -10871305.49246  21545868.4144                   21545868.2274
 -28602316.88748 -22267532.57446  21282003.8364                   21281998.6414
 11  8 11  2 37  0.0000000  0  7G26G12G29G10G05G25G02
   3289746.83246   2575015.45743  24230392.6414                   24230391.8634
 -21835118.53948 -16996141.68046  21085762.4224                   21085759.7154
  -4145859.39847  -3220082.20345  22894976.7274                   22894974.6954
 -16683327.96947 -12981904.66044  22825220.1804                   22825218.0594
 -24376526.70748 -18976680.11747  20183486.5864                   20183483.3524
 -14000295.54348 -10895449.32446  21539972.6254                   21539972.2814
 -28580409.08248 -22250461.55946  21286173.1414                   21286168.0984
 11  8 11  2 37 30.0000000  0  7G26G12G29G10G05G25G02
   3179335.34847   2488980.62943  24209381.6484                   24209381.1294
 -21799789.34848 -16968612.45346  21092485.5164                   21092482.3634
  -4243128.15647  -3295875.92645  22876467.1564                   22876465.5124
 -16600629.45747 -12917464.26244  22840957.4614                   22840955.0704
 -24383179.37548 -18981863.99647  20182220.4614                   20182217.2424
 -14030674.07848 -10919120.89146  21534191.5084                   21534190.7544
 -28558370.21548 -22233288.41046  21290366.9384                   21290361.8134
 11  8 11  2 38  0.0000000  0  7G26G12G29G10G05G25G02
   3068905.72747   2402931.64843  24188368.4614                   24188367.2034
 -21763939.85548 -16940677.78546  21099307.5784                   21099304.3594
  -4340334.76247  -3371621.23045  22857969.4694                   22857967.8284
 -16517647.84447 -12852803.25844  22856748.4844                   22856746.0354
 -24389245.94148 -18986591.17247  20181065.9454                   20181062.9694
 -14060446.00448 -10942319.77746  21528525.9144                   21528525.9654
 -28536200.81648 -22216013.54746  21294585.7034                   21294580.4614
 11  8 11  2 38 30.0000000  0  7G26G12G29G10G05G25G02
   2958461.35947   2316871.18843  24167350.7894                   24167349.9064
 -21727572.02348 -16912339.23046  21106227.9454                   21106224.9144
  -4437477.27747  -3447316.60545  22839483.9774                   22839481.5234
 -16434386.03147 -12787923.93044  22872592.1334                   22872590.3094
 -24394727.25848 -18990862.30947  20180022.8834                   20180019.6094
 -14089610.91848 -10965045.68046  21522976.0234                   21522975.7384
 -28513901.06648 -22198637.12146  21298828.9304                   21298823.7814
 11  8 11  2 39  0.0000000  0  7G26G12G29G10G05G25G02
   2848003.52046   2230800.26243  24146331.5164                   24146330.6844
 -21690689.47748 -16883599.58646  21113246.4534                   21113243.3094
  -4534555.96947  -3522962.25845  22821009.9144                   22821007.7154
 -16350848.76647 -12722829.96544  22888488.5944                   22888486.9414
 -24399626.25048 -18994679.68747  20179090.5394                   20179087.4494
 -14118170.46548 -10987299.86346  21517541.3364                   21517541.1604
 -28491473.45748 -22181161.06246  21303096.5474                   21303091.4224
 11  8 11  2 39 30.0000000  0  7G26G12G29G10G05G25G02
   2737533.80146   2144720.01643  24125309.8054                   24125309.1644
 -21653296.35248 -16854462.09046  21120361.8284                   21120358.8054
  -4631570.89147  -3598558.21545  22802548.8674                   22802546.7424
 -16267040.37947 -12657524.73444  22904437.1884                   22904435.4224
 -24403945.45348 -18998045.28147  20178269.1174                   20178265.5004
 -14146125.81648 -11009083.25046  21512221.7114                   21512221.6214
 -28468919.75848 -22163586.73446  21307388.6414                   21307383.3484
 11  8 11  2 40  0.0000000  0  7G26G12G29G10G05G25G02
   2627055.30946   2058632.94143  24104286.5004                   24104284.9104
 -21615394.76648 -16824928.40646  21127574.6254                   21127571.4264
  -4728520.57447  -3674103.38345  22784100.0864                   22784097.1524
 -16182964.02747 -12592010.69144  22920436.3284                   22920434.4884
 -24407685.82448 -19000959.82847  20177557.1024                   20177553.4064
 -14173476.97748 -11030395.84446  21507017.1094                   21507016.4614
 -28446240.29748 -22145914.41046  21311704.5394                   21311698.8284
 11  8 11  2 40 30.0000000  0  7G26G12G29G10G05G25G02
   2516571.62146   1972541.84843  24083262.7344                   24083260.6484
 -21576986.43748 -16794999.84446  21134883.6644                   21134880.4694
  -4825403.21147  -3749596.28945  22765663.0234                   22765660.1334
 -16098622.17247 -12526289.75444  22936485.9304                   22936483.9344
 -24410848.15648 -19003423.96147  20176955.1024                   20176952.0944
 -14200223.39848 -11051237.19546  21501927.3674                   21501927.0394
 -28423435.33248 -22128144.30946  21316043.8204                   21316039.1454
 11  8 11  2 41  0.0000000  0  7G26G12G29G10G05G25G02
   2406085.13346   1886448.56343  24062236.6884                   24062236.5904
 -21538074.11748 -16764678.55946  21142288.1884                   21142285.1564
  -4922218.08647  -3825036.41045  22747240.5394                   22747238.4344
 -16014018.62147 -12460364.92244  22952585.1484                   22952583.7624
 -24413434.21148 -19005439.05947  20176463.1724                   20176459.9884
 -14226365.78148 -11071607.88346  21496952.7194                   21496952.2774
 -28400506.11348 -22110277.37546  21320406.9774                   21320402.3404
 11  8 11  2 41 30.0000000  0  7G26G12G29G10G05G25G02
   2295599.49246   1800355.85543  24041212.6094                   24041211.2624
 -21498659.30948 -16733965.72746  21149788.8914                   21149785.6024
  -5018962.44947  -3900421.58645  22728830.6804                   22728828.3164
 -15929155.43047 -12394237.77044  22968734.3674                   22968732.6374
 -24415444.62548 -19007005.58647  20176080.7194                   20176077.0864
 -14251903.19548 -11091507.16446  21492092.7344                   21492092.5944
 -28377452.47748 -22092313.50446  21324794.1174                   21324789.1914
 11  8 11  2 42  0.0000000  0  7G26G12G29G10G05G25G02
   2185118.89846   1714267.13743  24020188.5314                   24020187.5664
 -21458743.81648 -16702862.75446  21157384.1334                   21157381.1414
  -5115634.33247  -3975750.27745  22710434.3594                   22710432.6644
 -15844034.91847 -12327910.09444  22984932.9924                   22984930.5864
 -24416879.77748 -19008123.86347  20175807.7584                   20175804.1374
 -14276835.03148 -11110934.57046  21487348.5704                   21487348.4574
 -28354274.01248 -22074252.36346  21329204.8284                   21329200.1134
 11  8 11  2 42 30.0000000  0  7G26G12G29G10G05G25G02
   2074645.12946   1628183.75043  23999166.0784                   23999165.6914
 -21418331.23848 -16671372.43446  21165074.6564                   21165071.5164
  -5212233.31247  -4051022.15645  22692052.3444                   22692049.9064
 -15758661.00847 -12261384.95744  23001178.5704                   23001176.5394
 -24417741.83648 -19008795.56647  20175643.1884                   20175640.2384
 -14301162.45348 -11129891.00446  21482719.2504                   21482718.9844
 -28330972.44548 -22056095.30546  21333638.9304                   21333634.0474
 11  8 11  2 43  0.0000000  0  7G26G12G29G10G05G25G02
   1964181.89146   1542108.56643  23978145.6334                   23978144.2734
 -21377423.10248 -16639495.98046  21172858.8594                   21172855.8714
  -5308757.27347  -4126235.60945  22673683.7664                   22673681.9304
 -15673036.00047 -12194664.14844  23017472.0314                   23017470.3874
 -24418031.70748 -19009021.41047  20175588.0084                   20175584.8524
 -14324884.94148 -11148376.06246  21478204.8754                   21478204.5044
 -28307547.70348 -22037842.26246  21338096.6484                   21338091.7034
 11  8 11  2 43 30.0000000  0  7G26G12G29G10G05G25G02
   1853731.58246   1456043.46544  23957127.7734                   23957126.7274
 -21336022.74248 -16607235.96146  21180737.5314                   21180734.3444
  -5405205.46547  -4201389.98045  22655330.2034                   22655328.9844
 -15587163.89147 -12127750.80944  23033812.9844                   23033811.1724
 -24417751.63348 -19008803.13747  20175641.4224                   20175638.1884
 -14348003.46948 -11166390.50846  21473805.6414                   21473805.6884
 -28284000.98048 -22019494.18046  21342577.4844                   21342572.3444
 11  8 11  2 44  0.0000000  0  7G26G12G29G10G05G25G02
   1743297.73846   1369991.19143  23936112.5084                   23936111.4344
 -21294131.92648 -16574593.77346  21188708.7894                   21188705.7504
  -5501576.13747  -4276483.94945  22636992.1414                   22636990.3014
 -15501047.24647 -12060646.91444  23050201.0944                   23050198.8984
 -24416902.26648 -19008141.25447  20175803.2114                   20175800.2234
 -14370517.56248 -11183933.96146  21469521.2424                   21469520.6524
 -28260332.24648 -22001051.01646  21347081.7344                   21347076.6764
 11  8 11  2 44 30.0000000  0  7G26G12G29G10G05G25G02
   1632883.81646   1283954.43843  23915101.2894                   23915100.0664
 -21251752.85248 -16541571.13346  21196773.2194                   21196769.9844
  -5597867.38747  -4351516.05545  22618668.1884                   22618666.2464
 -15414688.69147 -11993354.51244  23066633.8054                   23066631.6564
 -24415484.57448 -19007036.52347  20176072.6334                   20176069.5234
 -14392427.14848 -11201006.36346  21465352.3914                   21465351.8754
 -28236541.71148 -21982512.93746  21351608.6884                   21351603.3014
 11  8 11  2 45  0.0000000  0  7G26G12G29G10G05G25G02
   1522491.80546   1197934.73843  23894094.9774                   23894093.6564
 -21208888.91848 -16508170.67246  21204929.7504                   21204927.1254
  -5694078.59047  -4426485.79745  22600360.0084                   22600358.2234
 -15328092.34447 -11925876.82044  23083112.8914                   23083111.0904
 -24413501.08248 -19005490.90647  20176450.1724                   20176447.0784
 -14413733.52748 -11217608.73046  21461297.7114                   21461297.4734
 -28212631.10948 -21963881.30146  21356158.6174                   21356153.4804
 11  8 11  2 45 30.0000000  0  7G26G12G29G10G05G25G02
   1412125.35246   1111934.95743  23873092.0634                   23873091.4574
 -21165542.11747 -16474393.94546  21213178.9924                   21213175.8094
  -5790208.08247  -4501391.84445  22582067.5084                   22582065.4694
 -15241260.70347 -11858215.79744  23099636.2664                   23099634.3134
 -24410952.69948 -19003505.11347  20176935.2344                   20176931.5664
 -14434436.54748 -11233740.95346  21457357.8754                   21457357.5664
 -28188600.58648 -21945156.21546  21360731.6884                   21360726.7704
 11  8 11  2 46  0.0000000  0  7G26G12G29G10G05G25G02
   1301787.97746   1025957.82843  23852096.0084                   23852094.5474
 -21121714.90248 -16440242.89146  21221519.0784                   21221516.1134
  -5886253.62147  -4576232.49245  22563790.4694                   22563788.1054
 -15154196.08247 -11790373.22744  23116204.1954                   23116202.0314
 -24407840.78548 -19001080.20347  20177527.3524                   20177524.1954
 -14454535.98448 -11249402.85246  21453533.1174                   21453533.3444
 -28164450.11348 -21926337.66046  21365327.2194                   21365322.2774
 11  8 11  2 46 30.0000000  0  7G26G12G29G10G05G25G02
   1191482.10246    940005.24243  23831106.0234                   23831104.6994
 -21077410.26648 -16405719.80946  21229949.4064                   21229946.6524
  -5982214.08247  -4651006.85245  22545529.6644                   22545527.3054
 -15066902.48847 -11722352.22744  23132815.9694                   23132813.4184
 -24404167.14848 -18998217.59047  20178225.9614                   20178223.0204
 -14474032.84448 -11264595.20746  21449823.1564                   21449822.7894
 -28140180.83248 -21907426.52746  21369945.5084                   21369940.8714
 11  8 11  2 47  0.0000000  0  7G26G12G29G10G05G25G02
   2656635.65246   2081683.41044  24109915.7194                   24109913.5824
 -19457210.89147 -15143226.80946  21538263.4384                   21538260.5314
  -4502664.32047  -3498110.88345  22827078.4224                   22827076.1844
 -13403965.05947 -10426556.81644  23449262.0394                   23449260.0514
 -22824512.64148 -17767317.93447  20478824.4694                   20478821.1054
 -12917505.85948 -10051717.02046  21746020.0634                   21746020.1804
 -26540373.08648 -20660823.09446  21674378.9844                   21674373.9654
 11  8 11  2 47 30.0000000  0  7G26G12G29G10G05G25G02
   2546404.21946   1995788.78543  24088938.5704                   24088937.4884
 -19411956.53147 -15107963.67646  21546875.1724                   21546872.2424
  -4598448.85247  -3572748.13745  22808851.4774                   22808849.4844
 -13316221.04347 -10358184.85944  23465959.0554                   23465956.9104
 -22819718.55548 -17763582.23847  20479736.6954                   20479733.5904
 -12935796.86348 -10065969.73846  21742539.4454                   21742539.5634
 -26515865.69548 -20641726.43446  21679042.7894                   21679037.4844
 11  8 11  2 48  0.0000000  0  7G26G12G29G10G05G25G02
   2436213.32047   1909925.79743  24067970.1174                   24067968.3984
 -19366233.20347 -15072335.12546  21555575.9224                   21555572.7624
  -4694144.38347  -3647316.04745  22790640.5864                   22790638.4774
 -13228257.68047 -10289641.94944  23482697.7274                   23482695.1564
 -22814367.59848 -17759412.62947  20480754.7974                   20480751.5824
 -12953486.79748 -10079754.07446  21739173.4304                   21739172.8524
 -26491241.28148 -20622538.58246  21683728.4844                   21683723.5944
 11  8 11  2 48 30.0000000  0  7G26G12G29G10G05G25G02
   2326065.17647   1824096.12143  24047009.0864                   24047008.0944
 -19320043.71548 -15036343.32046  21564365.6334                   21564362.8914
  -4789750.55547  -3721814.31645  22772447.4534                   22772445.6484
 -13140078.50847 -10220930.92644  23499478.2814                   23499475.5004
 -22808462.77048 -17754811.44147  20481878.5634                   20481875.3594
 -12970577.03148 -10093071.12946  21735921.1094                   21735920.9534
 -26466501.42248 -20603260.77346  21688436.3754                   21688430.9574
 11  8 11  2 49  0.0000000  0  7G26G12G29G10G05G25G02
   2215964.24647   1738303.23443  24026057.9144                   24026056.5744
 -19273389.98448 -14999989.77746  21573243.3284                   21573240.3164
  -4885264.34847  -3796240.60545  22754271.8984                   22754270.2544
 -13051685.60547 -10152053.35944  23516298.0004                   23516296.4494
 -22802004.18448 -17749778.75047  20483107.4774                   20483104.1884
 -12987066.87148 -10105920.32046  21732783.3984                   21732782.8834
 -26441645.46148 -20583892.48446  21693165.9774                   21693161.1564
 11  8 11  2 49 30.0000000  0  7G26G12G29G10G05G25G02
   2105913.43847   1652549.45344  24005116.1094                   24005114.2584
 -19226274.64548 -14963276.53946  21582209.0944                   21582206.0004
  -4980684.37947  -3870593.82045  22736113.6414                   22736112.2464
 -12963082.09447 -10083011.67644  23533159.4304                   23533156.9654
 -22794993.71548 -17744316.02047  20484441.3134                   20484438.0824
 -13002956.98848 -10118302.21546  21729759.3444                   21729759.1724
 -26416673.80548 -20564434.04346  21697918.1024                   21697912.9924
 11  8 11  2 50  0.0000000  0  7G26G12G29G10G05G25G02
   1995916.50847   1566837.63344  23984183.8364                   23984182.9184
 -19178699.97748 -14926205.37546  21591262.4534                   21591258.8594
  -5076008.54347  -3944872.32845  22717974.2344                   22717972.5944
 -12874270.41047 -10013807.78544  23550059.3834                   23550057.1134
 -22787432.25848 -17738423.95747  20485880.2034                   20485877.2664
 -13018247.37148 -10130216.77746  21726849.8284                   21726849.5744
 -26391586.59848 -20544885.56246  21702692.2344                   21702687.1174
 11  8 11  2 50 30.0000000  0  7G26G12G29G10G05G25G02
   1885976.76247   1481170.36344  23963263.3984                   23963261.8244
 -19130668.32448 -14888778.12946  21600402.4534                   21600399.2544
  -5171235.09447  -4019074.77745  22699853.4144                   22699851.2424
 -12785253.43047  -9944443.94544  23566999.3984                   23566997.1454
 -22779321.30548 -17732103.70747  20487423.6414                   20487420.8244
 -13032938.45748 -10141664.36346  21724053.9534                   21724053.7854
 -26366384.11348 -20525247.27346  21707487.7734                   21707482.6604
 11  8 11  2 51  0.0000000  0  7G26G12G29G10G05G25G02
   1776097.15246   1395549.98044  23942353.6174                   23942352.5394
 -19082182.33248 -14850996.85246  21609628.9304                   21609625.9694
  -5266362.99647  -4093200.32045  22681750.6414                   22681748.9964
 -12696034.47347  -9874922.71544  23583977.2034                   23583974.6174
 -22770662.97748 -17725356.93747  20489071.3364                   20489068.2894
 -13047031.09448 -10152645.61346  21721372.1564                   21721372.2774
 -26341066.87548 -20505519.57846  21712305.5634                   21712300.6024
 11  8 11  2 51 30.0000000  0  7G26G12G29G10G05G25G02
   1666279.96546   1309978.23044  23921455.7194                   23921455.0124
 -19033246.07848 -14812864.71946  21618941.3204                   21618938.2464
  -5361391.00847  -4167248.03145  22663667.4774                   22663665.2624
 -12606617.30547  -9805247.04344  23600992.1724                   23600990.3094
 -22761459.68748 -17718185.52047  20490822.7814                   20490819.7504
 -13060526.66048 -10163161.61746  21718803.9224                   21718803.9414
 -26315636.41048 -20485703.62946  21717145.0234                   21717139.8914
 11  8 11  2 52  0.0000000  0  7G26G12G29G10G05G25G02
   1556529.97746   1224458.85244  23900571.2194                   23900570.1914
 -18983860.67248 -14774382.59046  21628339.1724                   21628336.1644
  -5456316.01247  -4241215.46945  22645603.7344                   22645601.4774
 -12517003.18747  -9735417.91044  23618045.6804                   23618043.6054
 -22751711.75048 -17710589.70347  20492677.7584                   20492674.4264
 -13073424.18748 -10173211.61746  21716349.8754                   21716349.3134
 -26290091.64848 -20465798.62146  21722005.8134                   21722000.9964
 11  8 11  2 52 30.0000000  0  7G26G12G29G10G05G25G02
   1446850.11346   1138994.09844  23879700.4454                   23879698.8754
 -18934028.79348 -14735552.57446  21637821.7344                   21637818.6374
  -5551136.87147  -4315101.76645  22627559.8754                   22627558.0204
 -12427195.24647  -9665437.73044  23635135.3364                   23635133.3674
 -22741421.01248 -17702570.92647  20494635.9144                   20494632.8594
 -13085724.51248 -10182796.27746  21714009.1884                   21714008.5784
 -26264433.10948 -20445804.94546  21726888.4694                   21726883.3594
 11  8 11  2 53  0.0000000  0  7G26G12G29G10G05G25G02
   1337243.17246   1053586.18444  23858842.6024                   23858841.0474
 -18883753.88348 -14696377.33246  21647388.8594                   21647385.7774
  -5645852.57047  -4388906.12545  22609536.0084                   22609534.4184
 -12337196.87547  -9595309.16844  23652261.7274                   23652259.4344
 -22730589.74248 -17694130.96147  20496696.9224                   20496694.0474
 -13097429.02348 -10191916.66846  21711781.7274                   21711780.9964
 -26238661.63748 -20425723.28146  21731792.5474                   21731787.8594
 11  8 11  2 53 30.0000000  0  7G26G12G29G10G05G25G02
   1227713.44946    968238.41044  23837999.5234                   23837997.4304
 -18833037.43748 -14656858.03146  21657040.0314                   21657036.8594
  -5740460.26247  -4462626.34845  22591532.4304                   22591530.4024
 -12247010.10947  -9525033.79344  23669423.1334                   23669421.8874
 -22719218.64148 -17685270.34847  20498860.6484                   20498857.9694
 -13108537.23048 -10200572.40246  21709667.7974                   21709667.5944
 -26212776.85248 -20405553.29346  21736718.3444                   21736713.3054
 11  8 11  2 54  0.0000000  0  7G26G12G29G10G05G25G02
   1118264.04746    882953.21144  23817171.3754                   23817170.4064
 -18781882.13747 -14616996.77746  21666774.4694                   21666771.6724
  -5834958.40247  -4536261.19145  22573550.1564                   22573547.8444
 -12156638.40247  -9454614.29744  23686621.2194                   23686618.6294
 -22707309.64148 -17675990.59047  20501126.9534                   20501124.0594
 -13119050.10248 -10208764.24246  21707667.2584                   21707667.2584
 -26186779.16848 -20385295.35546  21741665.4924                   21741660.5394
 11  8 11  2 54 30.0000000  0  7G26G12G29G10G05G25G02
   1008913.03547    797744.72344  23796362.9844                   23796361.5594
 -18730276.44148 -14576784.56646  21676594.7274                   21676591.9024
  -5929330.62947  -4609797.93045  22555591.7584                   22555590.0434
 -12066069.76647  -9384041.37143  23703855.2344                   23703853.1724
 -22694849.56648 -17666281.42247  20503497.8914                   20503495.0554
 -13128953.56248 -10216481.22346  21705782.6644                   21705782.4574
 -26160654.18748 -20364938.20746  21746637.2504                   21746632.3714
 11  8 11  2 55  0.0000000  0  8G26G12G29G10G05G15G25G02
    899666.18847    712617.35543  23775573.9454                   23775572.6914
 -18678220.50847 -14536221.51246  21686500.6254                   21686497.6684
  -6023572.48447  -4683233.06245  22537658.4064                   22537656.3524
 -11975304.21147  -9313314.99643  23721127.4844                   23721124.9144
 -22681838.02748 -17656142.54347  20505974.1724                   20505971.1914
   7719471.44156   6026691.02053  24716278.8524                   24716278.2624
 -13138245.68448 -10223721.83246  21704014.4384                   21704014.0474
 -26134399.82048 -20344480.25846  21751633.2584                   21751628.3634
 11  8 11  2 55 30.0000000  0  8G26G12G29G10G05G15G25G02
    790512.00447    627562.20743  23754802.7424                   23754801.1454
 -18625731.82047 -14495321.24646  21696489.3984                   21696486.0744
  -6117697.15647  -4756576.87545  22519746.5864                   22519744.8204
 -11884359.65247  -9242449.13343  23738433.6564                   23738430.8874
 -22668291.32048 -17645586.65647  20508551.7584                   20508548.9024
   7611574.58646   5942615.72743  24695747.1094                   24695746.3714
 -13146942.11748 -10230498.27046  21702359.9064                   21702359.6294
 -26108031.06648 -20323933.16046  21756650.8054                   21756645.9964
 11  8 11  2 56  0.0000000  0  8G26G12G29G10G05G15G25G02
    681450.62947    542579.36344  23734048.9454                   23734047.3014
 -18572816.22747 -14454088.32846  21706558.2114                   21706555.7774
  -6211706.16047  -4829830.55545  22501857.2814                   22501855.0514
 -11793242.21947  -9171448.54743  23755772.2894                   23755770.3634
 -22654214.57448 -17634617.75047  20511230.4774                   20511227.5944
   7503572.73846   5858458.61743  24675194.5234                   24675193.7424
 -13155046.96148 -10236813.73046  21700817.3594                   21700817.3984
 -26081551.59448 -20303299.79746  21761689.6954                   21761684.6484
 11  8 11  2 56 30.0000000  0  8G26G12G29G10G05G15G25G02
    572483.34047    457669.84844  23713312.5944                   23713311.1214
 -18519478.69947 -14412526.62946  21716708.0784                   21716705.2774
  -6305599.70347  -4902994.27345  22483990.2504                   22483987.8794
 -11701956.30947  -9100316.70743  23773143.8754                   23773141.7194
 -22639611.65248 -17623238.83647  20514009.7344                   20514006.6764
   7395466.75046   5774220.35943  24654622.6724                   24654622.1374
 -13162562.82848 -10242670.25846  21699387.3364                   21699386.9104
 -26054963.48847 -20282581.78146  21766749.0004                   21766744.3714
 11  8 11  2 57  0.0000000  0  8G26G12G29G10G05G15G25G02
    463613.56647    372836.31644  23692596.0084                   23692594.2114
 -18465721.74247 -14370638.11746  21726937.6254                   21726934.6334
  -6399375.85247  -4976066.50045  22466144.7894                   22466142.7734
 -11610504.93446  -9029055.90243  23790546.3364                   23790544.4694
 -22624484.58648 -17611451.49647  20516887.8594                   20516884.8554
   7287258.91046   5689902.71943  24634031.6414                   24634030.8094
 -13169490.62548 -10248068.54746  21698068.3834                   21698068.4804
 -26028267.50448 -20261779.70346  21771829.6564                   21771824.4534
 11  8 11  2 57 30.0000000  0  8G26G12G29G10G05G15G25G02
    354846.46947    288082.77044  23671898.0394                   23671896.2544
 -18411546.61747 -14328423.75846  21737246.9144                   21737244.4494
  -6493031.16447  -5049044.58245  22448322.9844                   22448320.4344
 -11518889.29746  -8957667.09443  23807980.3054                   23807978.0234
 -22608832.78548 -17599255.27347  20519866.7034                   20519863.4654
   7178953.23046   5605508.84443  24613421.7194                   24613420.9884
 -13175829.43048 -10253007.88746  21696862.6644                   21696862.6254
 -26001461.83648 -20240892.15246  21776930.0864                   21776925.1254
 11  8 11  2 58  0.0000000  0  8G26G12G29G10G05G15G25G02
    246185.96547    203412.28544  23651220.5784                   23651218.5904
 -18356955.37147 -14285885.14846  21747635.2664                   21747632.5664
  -6586563.49647  -5121926.85545  22430524.0784                   22430521.8714
 -11427111.70347  -8886152.13743  23825445.5474                   23825443.1254
 -22592657.68048 -17586651.28947  20522944.5004                   20522941.3094
   7070553.24646   5521041.44543  24592793.3204                   24592792.8554
 -13181579.44548 -10257488.43446  21695768.6804                   21695768.4064
 -25974546.02348 -20219918.78546  21782052.2194                   21782047.2154
 11  8 11  2 58 30.0000000  0  8G26G12G29G10G05G15G25G02
    137635.78147    118827.76244  23630564.1884                   23630562.3364
 -18301950.16047 -14243023.97346  21758102.3284                   21758100.0204
  -6679970.66447  -5194711.60245  22412749.4844                   22412746.5864
 -11335174.60246  -8814512.84843  23842940.1094                   23842938.2664
 -22575961.03948 -17573640.90647  20526121.8444                   20526118.9774
   6962060.92247   5436502.09844  24572148.3364                   24572147.2664
 -13186741.43048 -10261510.75846  21694786.2974                   21694785.8444
 -25947520.34047 -20198859.79746  21787194.8204                   21787190.0394
 11  8 11  2 59  0.0000000  0  8G26G12G29G10G05G15G25G02
     29200.04347     34332.44544  23609929.5704                   23609927.5314
 -18246533.70747 -14199842.33646  21768648.1484                   21768645.2584
  -6773249.54747  -5267396.37545  22394999.0704                   22394996.6214
 -11243080.10246  -8742750.92643  23860464.5634                   23860463.0904
 -22558743.87148 -17560224.91447  20529398.3914                   20529395.2384
   6853479.78947   5351893.54344  24551485.9144                   24551484.7734
 -13191315.23048 -10265074.77746  21693916.2424                   21693915.8554
 -25920384.12547 -20177714.67246  21792358.5084                   21792353.5984
 11  8 11  2 59 30.0000000  0  8G26G12G29G10G05G15G25G02
    -79119.76247    -50072.53144  23589316.8984                   23589314.9414
 -18190710.69547 -14156343.90246  21779270.7734                   21779268.3444
  -6866400.82847  -5339981.71945  22377272.8204                   22377270.5664
 -11150832.93747  -8670870.05543  23878019.2584                   23878017.2814
 -22541010.03148 -17546406.31647  20532772.7974                   20532769.3204
   6744810.21147   5267216.05944  24530806.5634                   24530805.3984
 -13195304.02348 -10268182.94146  21693156.7194                   21693156.8364
 -25893139.78147 -20156485.29746  21797543.1804                   21797537.6684
 11  8 11  3  0  0.0000000  0  8G26G12G29G10G05G15G25G02
   -187319.55547   -134383.98444  23568727.2664                   23568725.7424
 -18134482.91847 -14112530.07446  21789970.6414                   21789967.5824
  -6959422.11347  -5412465.76245  22359571.5554                   22359569.0474
 -11058434.87547  -8598871.58243  23895601.9144                   23895600.0824
 -22522760.97348 -17532186.25847  20536245.6644                   20536242.0904
   6636055.73047   5182472.40644  24510110.9064                   24510110.0594
 -13198707.87948 -10270835.30546  21692508.8754                   21692509.0274
 -25865786.47347 -20135171.01645  21802748.3284                   21802743.2704
 11  8 11  3  0 30.0000000  0  8G26G12G29G10G05G15G25G02
   -295396.35947   -218599.64144  23548161.0704                   23548159.0704
 -18077853.73047 -14068403.45346  21800746.8204                   21800743.6524
  -7052312.02047  -5484847.40246  22341895.0164                   22341892.4494
 -10965889.18447  -8526758.02744  23913213.0634                   23913210.7854
 -22503998.80548 -17517566.37547  20539815.8444                   20539812.6374
   6527217.84447   5097663.79344  24489399.9384                   24489399.1724
 -13201528.33648 -10273033.08246  21691972.3984                   21691971.9494
 -25838325.23447 -20113772.64546  21807973.8364                   21807968.9454
 11  8 11  3  1  0.0000000  0  8G26G12G29G10G05G15G25G02
   -403345.55547   -302715.82044  23527618.5944                   23527617.1254
 -18020825.14147 -14023965.60546  21811599.0704                   21811595.8244
  -7145066.93447  -5557123.84445  22324243.8594                   22324241.3554
 -10873197.74247  -8454530.91843  23930851.8914                   23930849.6724
 -22484724.46548 -17502547.39847  20543483.7974                   20543480.3554
   6418300.32847   5012793.13744  24468674.0634                   24468672.4144
 -13203765.38348 -10274776.23446  21691546.4384                   21691546.5634
 -25810755.14147 -20092289.43446  21813220.0944                   21813215.0554
 11  8 11  3  1 30.0000000  0  8G26G12G29G10G05G15G25G02
   -511164.00847   -386730.11744  23507101.4224                   23507099.2464
 -17963399.50047 -13979218.37146  21822526.5234                   21822523.8364
  -7237685.18047  -5629293.80145  22306619.5704                   22306616.7974
 -10780363.41447  -8382192.51244  23948517.9144                   23948515.7894
 -22464939.68048 -17487130.67247  20547248.4454                   20547244.9494
   6309305.83247   4927862.50044  24447932.2274                   24447931.0044
 -13205419.84448 -10276065.43746  21691231.9144                   21691231.0394
 -25783076.42247 -20070721.57446  21818487.4224                   21818482.0124
 11  8 11  3  2  0.0000000  0  8G26G12G29G10G05G15G25G02
   -618844.36347   -470636.82044  23486611.1644                   23486609.4024
 -17905576.48447 -13934161.50046  21833530.5784                   21833527.1684
  -7330161.46547  -5701353.11745  22289021.8284                   22289019.1094
 -10687384.89847  -8309741.73043  23966210.8134                   23966208.5234
 -22444642.79348 -17471314.91047  20551110.7584                   20551107.6844
   6200240.18447   4842876.41844  24427177.8284                   24427176.9654
 -13206489.32048 -10276898.80146  21691028.8444                   21691028.2934
 -25755285.68447 -20049066.44146  21823776.2034                   21823770.6374
 11  8 11  3  2 30.0000000  0  8G26G12G29G10G05G15G25G02
   -726385.89147   -554435.33244  23466146.0944                   23466143.8284
 -17847361.63347 -13888799.29346  21844607.8984                   21844605.3554
  -7422496.47747  -5773302.36745  22271450.8364                   22271447.3754
 -10594267.85247  -8237182.98043  23983930.5554                   23983928.2234
 -22423838.48048 -17455103.74247  20555069.8524                   20555066.3984
   6091103.40646   4757834.90643  24406409.3134                   24406407.9774
 -13206977.43048 -10277279.15246  21690935.6414                   21690935.5044
 -25727385.82047 -20027326.27346  21829085.2974                   21829079.7424
 11  8 11  3  3  0.0000000  0  8G26G12G29G10G05G15G25G02
   -833784.96147   -638122.87544  23445708.1954                   23445706.5554
 -17788757.63747 -13843133.85946  21855760.1644                   21855757.2154
  -7514688.41847  -5845140.14545  22253907.3284                   22253904.5634
 -10501014.96146  -8164518.38744  24001675.8134                   24001673.3404
 -22402528.89848 -17438498.85947  20559124.7584                   20559121.5124
   5981898.27346   4672740.12544  24385628.1094                   24385626.8674
 -13206885.23448 -10277207.32046  21690952.7734                   21690953.0204
 -25699376.80947 -20005501.07046  21834414.9144                   21834409.6804
 11  8 11  3  3 30.0000000  0  8G26G12G29G10G05G15G25G02
   -941039.89847   -721698.06244  23425298.7734                   23425296.8204
 -17729769.06647 -13797168.75846  21866985.1884                   21866982.5274
  -7606737.02747  -5916866.25045  22236390.9144                   22236388.1334
 -10407630.64546  -8091751.37543  24019445.9384                   24019443.7934
 -22380717.46148 -17421502.92647  20563275.3204                   20563272.1724
   5872625.17246   4587592.35943  24364834.0084                   24364832.7624
 -13206215.55548 -10276685.49646  21691080.5474                   21691080.0984
 -25671260.35247 -19983592.14146  21839765.1334                   21839760.5824
 11  8 11  3  4  0.0000000  0  8G26G12G29G10G05G15G25G02
  -1048146.51647   -805157.68744  23404917.2274                   23404914.3484
 -17670397.50847 -13750905.22746  21878283.2974                   21878280.4344
  -7698639.55547  -5988478.54746  22218902.1644                   22218899.0084
 -10314116.51646  -8018883.19943  24037240.9454                   24037239.5664
 -22358405.71548 -17404117.14147  20567521.6954                   20567517.9304
   5763287.73846   4502394.49243  24344028.0474                   24344026.7584
 -13204968.77348 -10275713.98846  21691317.9454                   21691317.6414
 -25643036.05548 -19961599.18746  21845136.0164                   21845131.6684
 11  8 11  3  4 30.0000000  0  8G26G12G29G10G05G15G25G02
  -1155100.86747   -888498.66844  23384563.3914                   23384561.9654
 -17610646.38347 -13704345.91846  21889653.5704                   21889650.2734
  -7790393.75047  -6059975.26645  22201442.1254                   22201438.6764
 -10220474.90246  -7945915.72343  24055060.5474                   24055058.7854
 -22335594.87148 -17386342.44947  20571862.1024                   20571858.8054
   5653888.58246   4417148.50043  24323209.9774                   24323208.6884
 -13203145.58248 -10274293.31646  21691665.0474                   21691664.5744
 -25614703.62147 -19939521.96146  21850527.8284                   21850522.9384
 11  8 11  3  5  0.0000000  0  8G26G12G29G10G05G15G25G02
  -1261899.89847   -971718.61744  23364240.8444                   23364238.8164
 -17550518.85547 -13657493.31646  21901095.6414                   21901092.4064
  -7881998.03947  -6131355.19546  22184010.2504                   22184007.7154
 -10126709.23446  -7872851.54343  24072904.0004                   24072901.6134
 -22312287.46948 -17368180.82447  20576296.9064                   20576294.1454
   5544430.24646   4331856.42243  24302380.6564                   24302378.7274
 -13200747.68048 -10272424.82046  21692121.0864                   21692120.9884
 -25586263.76648 -19917361.02745  21855939.7664                   21855934.6484
 11  8 11  3  5 30.0000000  0  8G26G12G29G10G05G15G25G02
  -1368540.40647  -1054815.05144  23343947.7114                   23343945.9734
 -17490017.98048 -13610349.80146  21912608.6174                   21912605.7304
  -7973450.74647  -6202616.99645  22166607.1884                   22166604.7934
 -10032822.27346  -7799692.86343  24090769.3754                   24090767.2704
 -22288486.31648 -17349634.47747  20580826.3284                   20580822.9064
   5434914.72746   4246519.71143  24281540.1484                   24281539.1414
 -13197776.63348 -10270109.72346  21692686.3054                   21692685.7734
 -25557717.07848 -19895116.84846  21861372.4064                   21861367.1724
 11  8 11  3  6  0.0000000  0  8G26G12G29G10G05G15G25G02
  -1475017.39847  -1137784.05944  23323685.3754                   23323683.2774
 -17429144.94148 -13562916.27046  21924192.1024                   21924189.1254
  -8064748.32847  -6273757.93046  22149234.2424                   22149231.5314
  -9938815.42246  -7726440.75443  24108658.6804                   24108656.3444
 -22264191.40648 -17330703.36747  20585449.3364                   20585446.0664
   5325346.42246   4161141.92243  24260690.1954                   24260688.4104
 -13194232.14548 -10267347.77746  21693361.0784                   21693360.4064
 -25529062.03148 -19872788.23446  21866824.9774                   21866819.8484
 11  8 11  3  6 30.0000000  0  8G26G12G29G10G05G15G25G02
  -1581329.52747  -1220624.62544  23303455.0084                   23303453.0824
 -17367905.04348 -13515196.88746  21935845.6254                   21935842.6884
  -8155890.84047  -6344778.03946  22131890.0864                   22131887.5904
  -9844693.27746  -7653098.82443  24126568.8754                   24126567.5234
 -22239407.05948 -17311390.87947  20590165.8984                   20590163.0784
   5215725.46547   4075723.12143  24239830.1094                   24239827.8554
 -13190117.59048 -10264141.63346  21694143.8674                   21694143.8954
 -25500300.69148 -19850376.79346  21872297.9614                   21872293.1724
 11  8 11  3  7  0.0000000  0  8G26G12G29G10G05G15G25G02
  -1687472.08247  -1303333.03944  23283256.9304                   23283254.8324
 -17306300.08648 -13467193.04346  21947568.3444                   21947566.0984
  -8246876.08647  -6415675.59846  22114576.3284                   22114573.9224
  -9750456.98446  -7579667.91843  24144501.6644                   24144499.6804
 -22214134.33648 -17291697.83647  20594975.0554                   20594971.9924
   5106055.77347   3990266.28943  24218960.8834                   24218958.2384
 -13185433.15648 -10260491.42246  21695035.5554                   21695034.9384
 -25471432.32848 -19827881.95346  21877791.4064                   21877786.3754
 11  8 11  3  7 30.0000000  0  8G26G12G29G10G05G15G25G02
  -1793441.28547  -1385906.39844  23263091.9924                   23263089.7194
 -17244332.78148 -13418906.84846  21959360.3054                   21959357.5944
  -8337700.88747  -6486448.14146  22097292.5394                   22097290.6804
  -9656109.34446  -7506150.46543  24162455.1804                   24162452.9184
 -22188374.82448 -17271625.46947  20599877.1954                   20599873.6884
   4996340.31647   3904773.87143  24198082.3914                   24198080.8754
 -13180179.59448 -10256397.74246  21696035.3594                   21696034.2544
 -25442456.62947 -19805303.46946  21883305.0944                   21883300.3284
 11  8 11  3  8  0.0000000  0  8G26G12G29G10G05G15G25G02
  -1899233.47747  -1468341.82844  23242959.3204                   23242958.0204
 -17182006.01648 -13370340.55546  21971220.7504                   21971217.9964
  -8428363.18047  -6557094.05545  22080040.3444                   22080037.4884
  -9561652.60246  -7432547.71143  24180429.8204                   24180428.0514
 -22162130.87148 -17251175.63347  20604871.0784                   20604867.9614
   4886581.69947   3819247.77744  24177196.5004                   24177194.5824
 -13174358.53548 -10251861.84846  21697142.8134                   21697142.2664
 -25413373.68048 -19782641.41846  21888839.4454                   21888834.5784
 11  8 11  3  8 30.0000000  0  8G26G12G29G10G05G15G25G02
  -2004845.83247  -1550637.10944  23222862.4384                   23222860.8134
 -17119323.32048 -13321496.91446  21983148.9614                   21983146.4774
  -8518861.80548  -6627612.44546  22062819.1724                   22062816.1454
  -9467090.19946  -7358862.65243  24198424.8444                   24198422.8554
 -22135405.16848 -17230350.39847  20609956.6954                   20609953.4414
   4776781.86747   3733689.59844  24156301.1954                   24156300.0124
 -13167971.83248 -10246885.19946  21698358.0474                   21698357.4574
 -25384184.18048 -19759896.33246  21894394.5164                   21894389.2194
 11  8 11  3  9  0.0000000  0  8G26G12G29G10G05G15G25G02
  -2110274.14847  -1632788.99244  23202799.7814                   23202798.1374
 -17056286.76248 -13272377.53146  21995144.4384                   21995141.7704
  -8609193.94547  -6698001.10946  22045629.2664                   22045626.1174
  -9372423.86746  -7285096.60943  24216439.4774                   24216437.2464
 -22108199.08248 -17209150.84447  20615133.7424                   20615130.7664
   4666944.27747   3648101.97744  24135399.7584                   24135398.2304
 -13161020.02348 -10241468.20746  21699680.9534                   21699680.3674
 -25354887.60248 -19737067.81646  21899968.7734                   21899963.8484
 11  8 11  3  9 30.0000000  0  8G26G12G29G10G05G15G25G02
  -2215514.37947  -1714794.31644  23182773.8364                   23182771.1524
 -16992899.09048 -13222984.55946  22007206.7274                   22007203.7854
  -8699357.31247  -6768258.26646  22028472.0474                   22028468.6884
  -9277655.85946  -7211251.45743  24234472.8524                   24234470.8014
 -22080514.31648 -17187578.29347  20620401.7894                   20620398.6914
   4557071.78146   3562487.17644  24114492.2974                   24114490.1214
 -13153504.34048 -10235611.82446  21701111.3134                   21701110.8834
 -25325483.69948 -19714155.67646  21905564.1644                   21905559.5784
 11  8 11  3 10  0.0000000  0  8G26G12G29G10G05G15G25G02
  -2320563.72347  -1796650.90644  23162783.3834                   23162781.1644
 -16929163.80947 -13173320.71946  22019335.3984                   22019332.7154
  -8789350.75847  -6838383.00846  22011346.3834                   22011344.0554
  -9182789.25446  -7137329.34443  24252525.5474                   24252523.4184
 -22052353.74248 -17165634.98446  20625761.0084                   20625757.5314
   4447166.27746   3476846.66444  24093577.2194                   24093575.7234
 -13145426.87948 -10229317.69946  21702648.2114                   21702647.6374
 -25295973.14547 -19691160.43045  21911179.9144                   21911174.4694
 11  8 11  3 10 30.0000000  0  8G26G12G29G10G05G15G25G02
  -2425419.47347  -1878356.62144  23142829.6334                   23142827.1174
 -16865085.21548 -13123389.36746  22031529.1094                   22031526.6524
  -8879172.82447  -6908374.20746  21994254.0944                   21994251.0634
  -9087827.86746  -7063333.44543  24270596.1414                   24270593.7384
 -22023720.31648 -17143323.21147  20631209.8754                   20631206.5904
   4337229.82046   3391182.04744  24072657.3444                   24072656.3834
 -13136789.82848 -10222587.53546  21704292.4924                   21704291.5514
 -25266356.73047 -19668082.66446  21916815.7974                   21916810.4104
 11  8 11  3 11  0.0000000  0  8G26G12G29G10G05G15G25G02
  -2530076.65247  -1959907.60944  23122914.4534                   23122912.1174
 -16800664.67648 -13073191.55546  22043787.7584                   22043785.7624
  -8968820.14147  -6978229.23046  21977194.7734                   21977191.1294
  -8992772.58646  -6989264.32443  24288684.3754                   24288682.3164
 -21994614.93448 -17120643.69547  20636748.2114                   20636744.5784
   4227266.31346   3305496.31644  24051731.5004                   24051730.1764
 -13127593.32048 -10215421.43046  21706042.0554                   21706042.0004
 -25236633.19947 -19644921.44546  21922472.0084                   21922466.6644
 11  8 11  3 11 30.0000000  0  8G26G12G29G10G05G15G25G02
  -2634530.40647  -2041300.07444  23103037.3914                   23103035.5474
 -16735903.63348 -13022728.41446  22056111.7814                   22056108.6214
  -9058289.32847  -7047945.44546  21960169.8674                   21960166.2544
  -8897624.83246  -6915123.16843  24306790.4384                   24306788.2194
 -21965038.32048 -17097596.97747  20642376.3754                   20642373.1174
   4117280.08246   3219792.90244  24030800.8674                   24030800.8714
 -13117837.42248 -10207819.44146  21707898.3524                   21707898.1914
 -25206801.29747 -19621675.79745  21928148.7034                   21928143.8954
 11  8 11  3 12  0.0000000  0  8G26G12G29G10G05G15G25G02
  -2738777.41847  -2122531.45344  23083199.8054                   23083198.0204
 -16670805.79348 -12972002.84046  22068499.4614                   22068496.7734
  -9147578.60947  -7117521.48846  21943177.9844                   21943174.8094
  -8802387.31246  -6840912.12144  24324913.2504                   24324911.3984
 -21934993.18448 -17074185.18047  20648093.7424                   20648090.4184
   4007273.19146   3134073.39144  24009868.1174                   24009866.6724
 -13107524.04348 -10199783.04346  21709861.1334                   21709860.5594
 -25176861.53147 -19598346.09445  21933846.2114                   21933841.0394
 11  8 11  3 12 30.0000000  0  8G26G12G29G10G05G15G25G02
  -2842814.88347  -2203599.53944  23063402.0164                   23063400.0004
 -16605374.97348 -12921017.79746  22080950.5084                   22080948.0744
  -9236686.80547  -7186956.40246  21926221.2344                   21926218.2424
  -8707063.49246  -6766633.80143  24343052.9924                   24343050.9024
 -21904482.25048 -17050410.41047  20653899.8204                   20653896.4384
   3897247.52746   3048339.21544  23988930.4064                   23988929.2384
 -13096655.51648 -10191314.05946  21711929.1564                   21711929.2424
 -25146814.74648 -19574932.99645  21939564.0944                   21939559.0124
 11  8 11  3 13  0.0000000  0  8G26G12G29G10G05G15G25G02
  -2946638.79347  -2284501.23444  23043644.6414                   23043643.0394
 -16539613.63348 -12869775.20746  22093464.2114                   22093461.8594
  -9325611.57447  -7256248.39546  21909299.9694                   21909296.7344
  -8611655.28146  -6692289.70743  24361208.4224                   24361206.3794
 -21873507.41448 -17026274.18047  20659793.8754                   20659791.1174
   3787206.40246   2962593.00044  23967990.2274                   23967988.8484
 -13085232.99648 -10182413.39146  21714102.9384                   21714102.6844
 -25116660.49247 -19551436.15645  21945301.9064                   21945296.9654
 11  8 11  3 13 30.0000000  0  8G26G12G29G10G05G15G25G02
  -3050245.35947  -2365233.57044  23023929.1024                   23023927.0204
 -16473524.40648 -12818277.12546  22106040.8524                   22106037.5864
  -9414349.96947  -7325395.16046  21892413.4064                   21892410.3284
  -8516164.90246  -6617881.61343  24379379.9224                   24379377.6994
 -21842070.41448 -17001777.78946  20665776.1484                   20665772.7154
   3677152.73846   2876837.01244  23947048.0944                   23947047.0044
 -13073257.64148 -10173081.94946  21716381.9224                   21716381.2424
 -25086398.23847 -19527855.16045  21951060.6564                   21951055.2274
 11  8 11  3 14  0.0000000  0  9G26G12G29G10G05G15G25G21G02
  -3153631.20347  -2445793.89144  23004255.5164                   23004252.6994
 -16407110.44548 -12766525.99246  22118678.7034                   22118676.1564
  -9502900.64547  -7394395.65246  21875562.7664                   21875559.6844
  -8420595.09046  -6543411.61743  24397565.7194                   24397564.0514
 -21810173.91848 -16976923.36347  20671846.2584                   20671842.9304
   3567089.16846   2791073.30143  23926103.3984                   23926101.5434
 -13060731.40248 -10163321.23446  21718764.8914                   21718765.2384
   7772927.03156   6063953.13353  25177687.9224                   25177685.9064
 -25056028.53547 -19504190.44146  21956839.9694                   21956834.3674
 11  8 11  3 14 30.0000000  0  9G26G12G29G10G05G15G25G21G02
  -3256794.98847  -2526181.19544  22984624.2424                   22984621.4844
 -16340376.92248 -12714525.85945  22131377.7504                   22131375.0314
  -9591263.61747  -7463249.88346  21858747.3284                   21858745.0004
  -8324950.80546  -6468883.62943  24415766.0634                   24415764.2704
 -21777822.44948 -16951714.41447  20678002.4454                   20677999.2774
   3457016.09846   2705302.18844  23905156.7114                   23905155.4184
 -13047658.15648 -10153134.28546  21721252.6954                   21721252.9574
   7702127.81646   6008784.93843  25164215.0314                   25164212.9494
 -25025553.57447 -19480443.69945  21962638.9144                   21962634.0864
 11  8 11  3 15  0.0000000  0  9G26G12G29G10G05G15G25G21G02
  -3359735.32047  -2606394.39544  22965034.9224                   22965032.8094
 -16273329.78147 -12662281.35246  22144136.5084                   22144133.8874
  -9679439.21547  -7531958.10546  21841968.5704                   21841965.7384
  -8229236.35246  -6394300.90643  24433980.0314                   24433977.6954
 -21745020.48048 -16926154.42247  20684244.3524                   20684241.4774
   3346933.98847   2619524.00444  23884209.6884                   23884207.5904
 -13034041.79348 -10142524.13346  21723844.2344                   21723843.6884
   7631351.31346   5953634.55142  25150747.4064                   25150745.3444
 -24994975.61347 -19456616.70345  21968457.5554                   21968452.8484
 11  8 11  3 15 30.0000000  0  9G26G12G29G10G05G15G25G21G02
  -3462449.41847  -2686431.28144  22945489.2664                   22945486.8204
 -16205972.43048 -12609795.11345  22156954.0704                   22156951.4454
  -9767425.83247  -7600519.06246  21825224.9924                   21825222.3794
  -8133455.09046  -6319666.20743  24452206.5474                   24452205.0664
 -21711770.91048 -16900245.65646  20690571.9144                   20690568.4654
   3236844.88347   2533740.36344  23863259.9224                   23863258.4574
 -13019884.65648 -10131492.59446  21726537.8134                   21726537.6764
   7560596.26246   5898500.79342  25137282.5004                   25137280.0204
 -24964295.25447 -19432709.92246  21974296.0634                   21974290.9454
 11  8 11  3 16  0.0000000  0  9G26G12G29G10G05G15G25G21G02
  -3564932.58247  -2766288.23444  22925987.1804                   22925985.0634
 -16138307.00447 -12557068.83246  22169830.6024                   22169828.2034
  -9855220.46548  -7668930.44946  21808518.4534                   21808515.3324
  -8037608.63746  -6244980.71542  24470445.3204                   24470443.7114
 -21678075.16048 -16873989.21147  20696983.2734                   20696980.2854
   3126752.56647   2447954.21144  23842310.3984                   23842307.6174
 -13005187.54348 -10120040.28546  21729334.8284                   21729334.2774
   7489863.03546   5843384.06642  25123823.0004                   25123820.9414
 -24933511.75847 -19408722.77045  21980154.1414                   21980149.0944
 11  8 11  3 16 30.0000000  0  9G26G12G29G10G05G15G25G21G02
  -3667182.70747  -2845963.60244  22906529.8204                   22906527.6374
 -16070337.68048 -12504105.74245  22182764.4384                   22182761.8164
  -9942822.23047  -7737191.50046  21791848.5394                   21791845.0784
  -7941700.34846  -6170247.00442  24488696.0704                   24488694.5514
 -21643936.62548 -16847387.74247  20703479.7194                   20703476.6684
   3016658.42247   2362166.65244  23821359.7814                   23821357.9494
 -12989953.34448 -10108169.47346  21732233.9924                   21732233.6994
   7419149.58246   5788282.81343  25110365.6334                   25110364.1414
 -24902626.20347 -19384656.08245  21986031.6094                   21986026.1724
 11  8 11  3 17  0.0000000  0  9G26G12G29G10G05G15G25G21G02
  -3769193.75847  -2925452.68444  22887117.3284                   22887115.5784
 -16002065.36748 -12450906.55146  22195756.6724                   22195753.8094
 -10030226.71547  -7805298.84846  21775215.5474                   21775212.3594
  -7845730.74246  -6095465.52042  24506959.5554                   24506956.7464
 -21609355.50448 -16820441.39846  20710060.8204                   20710057.2664
   2906567.58647   2276381.69944  23800410.3984                   23800408.1764
 -12974181.66848 -10095879.85946  21735234.8204                   21735235.1374
   7348457.34046   5733198.07043  25096913.2814                   25096912.3594
 -24871636.56647 -19360508.29745  21991928.4844                   21991923.3444
 11  8 11  3 17 30.0000000  0  9G26G12G29G10G05G15G25G21G02
  -3870961.85247  -3004752.43744  22867751.5314                   22867749.1994
 -15933492.79348 -12397473.39146  22208805.5314                   22208802.6334
 -10117431.29348  -7873250.42246  21758620.9774                   21758618.7304
  -7749701.84446  -6020637.82043  24525232.4454                   24525230.2304
 -21574333.78948 -16793151.74247  20716724.8524                   20716721.5164
   2796482.97747   2190601.61344  23779462.5864                   23779460.4844
 -12957873.82848 -10083172.44146  21738338.2664                   21738338.0354
   7277786.31646   5678129.87143  25083465.2344                   25083463.6134
 -24840542.39848 -19336279.06645  21997845.7664                   21997840.6334
 11  8 11  3 18  0.0000000  0  9G26G12G29G10G05G15G25G21G02
  -3972481.44947  -3083858.55944  22848432.8594                   22848430.7974
 -15864621.32448 -12343807.33645  22221911.2504                   22221908.6024
 -10204432.43448  -7941043.46546  21742064.9924                   21742062.2114
  -7653614.34446  -5945764.46943  24543517.0704                   24543515.2814
 -21538871.92248 -16765519.09047  20723473.3134                   20723469.6524
   2686409.30147   2104829.99644  23758515.6094                   23758513.2114
 -12941029.87148 -10070047.29346  21741543.8134                   21741543.5124
   7207137.52346   5623078.98443  25070021.9694                   25070020.3984
 -24809341.65248 -19311966.79745  22003783.0704                   22003777.9184
 11  8 11  3 18 30.0000000  0  9G26G12G29G10G05G15G25G21G02
  -4073750.19147  -3162769.22744  22829162.3284                   22829159.8984
 -15795455.04347 -12289911.54345  22235073.2504                   22235070.1844
 -10291229.05548  -8008677.15646  21725548.3204                   21725545.3244
  -7557471.73046  -5870848.09442  24561813.2424                   24561810.2344
 -21502972.98448 -16737545.87146  20730304.5474                   20730301.1254
   2576348.26246   2019068.23444  23737571.2814                   23737569.5044
 -12923652.72348 -10056506.66046  21744850.0704                   21744849.7424
   7136509.07446   5568043.95743  25056581.9064                   25056579.8674
 -24778035.53947 -19287572.41445  22009740.0164                   22009734.9804
 11  8 11  3 19  0.0000000  0  9G26G12G29G10G05G15G25G21G02
  -4174764.09447  -3241481.30144  22809939.8914                   22809937.7234
 -15725996.61747 -12235788.10545  22248290.5634                   22248288.2464
 -10377818.14848  -8076149.13746  21709071.0314                   21709067.9924
  -7461275.69146  -5795890.19142  24580118.2734                   24580115.7384
 -21466639.10948 -16709233.75046  20737218.3834                   20737214.9844
   2466303.35947   1933319.03544  23716630.5234                   23716628.5784
 -12905743.64848 -10042551.54746  21748258.4454                   21748258.3244
   7065901.15646   5513024.92243  25043145.2734                   25043143.1604
 -24746623.44548 -19263095.45345  22015717.4534                   22015712.7734
 11  8 11  3 19 30.0000000  0  8G26G12G29G05G15G25G21G02
  -4275519.74247  -3319992.16444  22790767.0164                   22790764.7194
 -15656249.31648 -12181439.58645  22261563.0314                   22261560.1024
 -10464197.84448  -8143457.95346  21692633.2114                   21692630.3364
 -21429873.12148 -16680584.92246  20744214.6484                   20744211.3794
   2356276.88347   1847584.19944  23695692.7974                   23695690.8364
 -12887304.83648 -10028183.65646  21751767.0784                   21751767.0594
   6995313.22346   5458021.40243  25029712.8674                   25029711.2074
 -24715105.88348 -19238536.30945  22021715.3134                   22021710.1294
 11  8 11  3 20  0.0000000  0  8G26G12G29G05G15G25G21G02
  -4376012.14547  -3398297.88745  22771643.4694                   22771641.6844
 -15586214.62947 -12126867.11745  22274890.1174                   22274887.8244
 -10550365.18448  -8210601.29346  21676236.7194                   21676233.5474
 -21392675.93048 -16651600.08646  20751293.3444                   20751290.0394
   2246273.00047   1761866.94944  23674759.6334                   23674758.0704
 -12868336.87148 -10013403.42246  21755376.4614                   21755376.4304
   6924745.27046   5403033.48443  25016283.1564                   25016281.7664
 -24683481.29348 -19213893.76645  22027733.1484                   22027727.9964
 11  8 11  3 20 30.0000000  0  8G26G12G29G05G15G25G21G02
  -4476236.19947  -3476394.50045  22752571.9534                   22752569.4884
 -15515894.78948 -12072072.45345  22288271.8364                   22288269.2114
 -10636316.36348  -8277576.21146  21659880.5084                   21659877.9144
 -21355048.32048 -16622279.86346  20758453.3284                   20758449.9574
   2136296.02047   1676170.66444  23653831.8364                   23653829.5234
 -12848840.07848  -9998211.12146  21759086.6884                   21759086.3594
   6854198.29346   5348061.95743  25002859.6644                   25002856.8634
 -24651748.18048 -19189166.66045  22033771.6884                   22033766.4924
 11  8 11  3 21  0.0000000  0  8G26G12G29G05G15G25G21G02
  -4576186.24247  -3554277.62145  22733551.7274                   22733549.5704
 -15445290.42647 -12017056.09045  22301707.2974                   22301704.7934
 -10722046.91448  -8344379.19546  21643566.8754                   21643563.3954
 -21316990.26648 -16592624.23046  20765695.4844                   20765692.0984
   2026351.12946   1590499.37944  23632909.5704                   23632908.2774
 -12828814.18048  -9982606.53946  21762897.3364                   21762897.2304
   6783673.98046   5293108.04743  24989438.9534                   24989436.1724
 -24619904.29748 -19164353.25045  22039831.4144                   22039826.4064
 11  8 11  3 21 30.0000000  0  8G26G12G29G05G15G25G21G02
  -4675857.20347  -3631943.26245  22714585.0164                   22714582.4574
 -15374403.56647 -11961819.60545  22315196.7114                   22315193.9384
 -10807553.43748  -8411007.62946  21627295.0004                   21627291.8094
 -21278502.97348 -16562634.12546  20773019.7274                   20773015.9964
   1916442.25046   1504856.14844  23611994.9774                   23611993.0234
 -12808259.85248  -9966590.18746  21766808.9224                   21766808.4734
   6713173.02746   5238172.31343  24976021.9384                   24976019.7424
 -24587948.11748 -19139452.34045  22045912.3984                   22045907.3244
 11  8 11  3 22  0.0000000  0  8G26G12G29G05G15G25G21G02
  -4775246.68047  -3709389.56644  22695671.5634                   22695669.5204
 -15303238.28947 -11906366.17245  22328738.5554                   22328736.1254
 -10892834.46948  -8477460.35946  21611066.5864                   21611063.4734
 -21239590.01248 -16532312.33246  20780424.3834                   20780420.8404
   1806571.11347   1419242.35244  23591087.8754                   23591085.6604
 -12787180.16048  -9950164.45346  21770820.2424                   21770820.2424
   6642693.62146   5183253.46143  24962610.9224                   24962608.2114
 -24555880.93448 -19114464.93445  22052014.4694                   22052009.6254
 11  8 11  3 22 30.0000000  0  8G26G12G29G05G15G25G21G02
  -4874351.89847  -3786614.36345  22676812.5634                   22676810.4264
 -15231798.31247 -11850698.68445  22342333.5864                   22342330.8134
 -10977888.80148  -8543736.43046  21594881.5474                   21594878.1214
 -21200254.66848 -16501661.41446  20787909.8834                   20787906.0864
   1696740.12547   1333659.82044  23570186.9774                   23570185.2624
 -12765577.84848  -9933331.49646  21774931.1954                   21774930.7304
   6572234.52346   5128350.37143  24949202.5784                   24949200.8634
 -24523703.26648 -19089391.44145  22058137.7114                   22058133.1174
 11  8 11  3 23  0.0000000  0  8G26G12G29G05G15G25G21G02
  -4973169.35247  -3863614.94944  22658008.1174                   22658006.0044
 -15160086.69147 -11794819.52345  22355979.8054                   22355977.3444
 -11062714.78148  -8609834.58246  21578739.2664                   21578736.4614
 -21160499.25848 -16470683.16846  20795475.0394                   20795471.3874
   1586951.57447   1248110.34844  23549295.3364                   23549293.6644
 -12743455.12548  -9916093.02046  21779140.6334                   21779140.6094
   6501794.83246   5073462.38343  24935798.3364                   24935796.5124
 -24491415.34448 -19064232.02745  22064281.9384                   22064276.9924
 11  8 11  3 23 30.0000000  0  8G26G12G29G05G15G25G21G02
  -5071695.60247  -3940388.59845  22639259.2734                   22639256.6884
 -15088107.43747 -11738731.80945  22369676.8754                   22369674.5474
 -11147310.18048  -8675753.03546  21562641.3674                   21562638.4384
 -21120326.46948 -16439379.69146  20803119.7664                   20803116.1484
   1477208.29346   1162596.17244  23528411.7274                   23528409.5164
 -12720814.09448  -9898450.66846  21783449.5394                   21783449.3054
   6431373.61746   5018588.85243  24922398.2584                   24922395.3164
 -24459017.32848 -19038986.82845  22070447.3364                   22070442.3134
 11  8 11  3 24  0.0000000  0  8G26G12G29G05G15G25G21G02
  -5169928.14547  -4016933.40245  22620566.0164                   22620563.5904
 -15015864.44547 -11682438.58645  22383424.4144                   22383421.6724
 -11231673.79348  -8741490.89846  21546587.6174                   21546584.3754
 -21079739.85548 -16407753.76246  20810843.0164                   20810839.5744
   1367511.75046   1077118.39544  23507537.0704                   23507534.9924
 -12697657.97348  -9880406.93446  21787855.9224                   21787855.1524
   6360969.50046   4963728.61743  24909000.2584                   24908998.3634
 -24426510.09848 -19013656.52345  22076633.2974                   22076628.3594
 11  8 11  3 24 30.0000000  0  8G26G12G29G05G15G25G21G02
  -5267863.03147  -4093246.24645  22601929.7664                   22601927.2734
 -14943360.47747 -11625942.01245  22397221.6254                   22397219.5864
 -11315803.07448  -8807046.15246  21530577.9844                   21530575.2504
 -21038741.21948 -16375806.77346  20818644.6484                   20818641.2584
   1257865.69547    991679.99244  23486672.2194                   23486669.0984
 -12673988.44548  -9861963.14846  21792359.9844                   21792359.5514
   6290581.74246   4908881.11743  24895606.1564                   24895603.1294
 -24393893.05148 -18988240.66845  22082839.8914                   22082834.6884
 11  8 11  3 25  0.0000000  0  8G26G12G29G05G15G25G21G02
  -5365497.10947  -4169324.69545  22583350.6094                   22583348.1174
 -14870598.88747 -11569244.68745  22411067.3134                   22411065.3014
 -11399696.19548  -8872417.39846  21514613.7584                   21514610.5864
 -20997333.55948 -16343541.06246  20826524.3754                   20826520.7734
   1148272.59447    906282.85244  23465816.8674                   23465814.4534
 -12649807.92648  -9843121.18746  21796961.3364                   21796961.4804
   6220209.90646   4854045.98843  24882214.4064                   24882211.4924
 -24361166.71548 -18962739.63345  22089067.7114                   22089062.2034
 11  8 11  3 25 30.0000000  0  8G26G12G29G05G15G25G21G02
  -5462827.80147  -4245166.77045  22564828.8674                   22564826.9654
 -14797584.05147 -11512350.02745  22424962.1884                   22424959.0044
 -11483352.18048  -8937603.84046  21498694.4774                   21498691.7074
 -20955520.70748 -16310959.62146  20834481.1644                   20834477.6954
   1038734.18847    820928.34844  23444972.3594                   23444970.3714
 -12625119.58248  -9823883.50846  21801659.7424                   21801659.1374
   6149852.46146   4799222.10543  24868825.7814                   24868822.8204
 -24328331.93448 -18937154.09845  22095315.7504                   22095310.8754
 11  8 11  3 26  0.0000000  0  8G26G12G29G05G15G25G21G02
  -5559850.45747  -4320768.80945  22546365.9924                   22546363.8754
 -14724317.81647 -11455259.47745  22438904.2974                   22438901.6254
 -11566767.98848  -9002603.14146  21482820.7424                   21482817.9494
 -20913303.41848 -16278063.03147  20842514.9064                   20842511.1764
    929254.02347    735619.24644  23424138.9694                   23424136.8914
 -12599924.57448  -9804251.03546  21806454.3984                   21806453.5234
   6079509.19546   4744409.27743  24855439.3594                   24855437.0554
 -24295387.60948 -18911483.20745  22101584.5234                   22101579.7974
 11  8 11  3 26 30.0000000  0  8G26G12G29G05G15G25G21G02
  -5656562.28547  -4396128.62145  22527962.9064                   22527959.8164
 -14650804.35547 -11397976.27745  22452893.5234                   22452890.5944
 -11649941.82848  -9067413.89546  21466993.5704                   21466990.8444
 -20870685.10548 -16244853.96146  20850624.8054                   20850621.4804
    819834.61347    650357.48444  23403316.9064                   23403314.2664
 -12574225.80148  -9784226.02746  21811344.5634                   21811343.8484
   6009178.80146   4689606.48843  24842056.5314                   24842053.7584
 -24262334.23848 -18885727.35545  22107874.7584                   22107869.9534
 11  8 11  3 27  0.0000000  0  8G26G12G29G05G15G25G21G02
  -5752958.43747  -4471242.48045  22509619.1644                   22509616.6094
 -14577045.62947 -11340501.95745  22466928.7814                   22466927.1374
 -11732870.01648  -9132033.22346  21451212.6024                   21451210.0554
 -20827667.03548 -16211333.38746  20858810.8204                   20858807.3404
    710479.93847    565146.14144  23382507.5164                   23382504.9924
 -12548024.08248  -9763809.10246  21816330.3364                   21816329.6844
   5938862.15246   4634814.38343  24828675.5784                   24828672.7544
 -24229170.50848 -18859885.49245  22114186.2504                   22114180.8164
 11  8 11  3 27 30.0000000  0  8G26G12G29G05G15G25G21G02
  -5849036.39147  -4546108.37945  22491336.0004                   22491333.4454
 -14503045.60947 -11282839.63345  22481010.9694                   22481008.7234
 -11815551.96948  -9196460.67246  21435478.9064                   21435475.8484
 -20784252.93748 -16177504.21146  20867072.2274                   20867069.1254
    601191.66047    479986.52344  23361710.1484                   23361708.5944
 -12521322.82048  -9743002.91846  21821411.9064                   21821410.7114
   5868557.19146   4580031.40643  24815296.4614                   24815293.9964
 -24195897.68048 -18833958.63345  22120516.8914                   22120512.5664
 11  8 11  3 28  0.0000000  0  8G26G12G29G05G15G25G21G02
  -5944791.62547  -4620722.81245  22473114.5084                   22473111.8914
 -14428806.85247 -11224991.26645  22495137.9224                   22495135.4924
 -11897983.99648  -9260693.37546  21419792.6334                   21419789.7274
 -20740444.05548 -16143367.40646  20875408.8594                   20875405.5984
    491973.84847    394881.78944  23340927.2734                   23340924.7344
 -12494123.06648  -9721808.31646  21826587.4384                   21826586.9454
   5798264.96546   4525258.34042  24801920.3134                   24801917.3364
 -24162514.46548 -18807945.73845  22126870.2034                   22126864.9844
 11  8 11  3 28 30.0000000  0  8G26G12G29G05G15G25G21G02
  -6040221.47347  -4695083.69545  22454954.6334                   22454951.8364
 -14354333.46947 -11166960.06645  22509309.4924                   22509306.7504
 -11980165.17248  -9324730.61746  21404153.7114                   21404150.9574
 -20696244.00048 -16108925.79346  20883819.8674                   20883816.8364
    382828.45347    309833.45744  23320156.9844                   23320154.5434
 -12466428.18448  -9700227.88346  21831857.4304                   21831857.2234
   5727983.16446   4470493.38343  24788545.7274                   24788543.3484
 -24129021.71548 -18781847.51245  22133243.3914                   22133238.1414
 11  8 11  3 29  0.0000000  0  8G26G12G29G05G15G25G21G02
  -6135322.93447  -4769188.68745  22436857.3674                   22436855.0824
 -14279628.72747 -11108748.59045  22523525.4694                   22523523.3204
 -12062093.64148  -9388570.93046  21388563.2894                   21388560.2664
 -20651655.59448 -16074181.56646  20892304.6024                   20892301.2544
    273757.74647    224843.34444  23299401.7584                   23299400.0594
 -12438240.79348  -9678263.68046  21837221.3834                   21837220.5474
   5657711.10546   4415736.03543  24775173.7114                   24775170.8794
 -24095419.78148 -18755664.18745  22139637.4384                   22139631.9774
 11  8 11  3 29 30.0000000  0  8G26G12G29G05G15G25G21G02
  -6230091.23047  -4843034.06245  22418823.3914                   22418821.0124
 -14204694.61347 -11050358.38745  22537785.0944                   22537782.8054
 -12143766.07048  -9452211.75046  21373021.4454                   21373018.8204
 -20606680.08648 -16039135.68746  20900863.0704                   20900859.5084
    164766.20347    139914.90244  23278660.7344                   23278658.9924
 -12409561.93448  -9655916.52046  21842678.7584                   21842678.8484
   5587449.58646   4360986.90643  24761803.8364                   24761801.0434
 -24061707.39147 -18729394.82045  22146052.8284                   22146047.5554
 11  8 11  3 30  0.0000000  0  8G26G12G29G05G15G25G21G02
  -6324521.99647  -4916616.43045  22400853.9614                   22400851.4344
 -14129533.61347 -10991791.38745  22552087.6954                   22552084.9024
 -12225179.23448  -9515650.53946  21357529.1884                   21357526.4924
 -20561319.18748 -16003789.51646  20909494.8984                   20909491.7344
     55857.11747     55050.70345  23257936.5554                   23257934.9494
 -12380393.19148  -9633187.61346  21848229.2584                   21848229.0004
   5517198.48046   4306245.87943  24748434.3754                   24748432.7774
 -24027883.53547 -18703038.57045  22152489.2974                   22152484.0434
 11  8 11  3 30 30.0000000  0  8G26G12G29G05G15G25G21G02
  -6418612.22347  -4989933.43745  22382949.0634                   22382946.3754
 -14054148.92647 -10933050.08245  22566432.7194                   22566430.2664
 -12306331.96148  -9578886.39546  21342086.2734                   21342083.6724
 -20515575.90648 -15968145.36746  20918200.1254                   20918196.4534
    -52967.10547    -29747.39144  23237227.7974                   23237225.4574
 -12350737.52348  -9610079.28946  21853872.9614                   21853872.4734
   5446956.47746   4251511.95743  24735067.7344                   24735065.8244
 -23993948.73847 -18676595.85945  22158947.0164                   22158941.5744
 11  8 11  3 31  0.0000000  0  8G26G12G29G05G15G25G21G02
  -6512358.44147  -5062982.40245  22365109.2344                   22365107.4574
 -13978545.34447 -10874138.21145  22580820.0634                   22580816.8444
 -12387221.63348  -9641917.28546  21326693.7034                   21326690.5204
 -20469453.10548 -15932205.47746  20926976.3524                   20926973.2274
   -161703.02347   -114476.66844  23216536.3984                   23216534.2894
 -12320597.13748  -9586593.27046  21859608.2344                   21859607.9184
   5376723.05946   4196784.72343  24721702.6954                   24721700.1454
 -23959902.68748 -18650066.48045  22165425.6484                   22165420.7074
 11  8 11  3 31 30.0000000  0  8G26G12G29G05G15G25G21G02
  -6605757.11747  -5135760.55545  22347336.5554                   22347334.3164
 -13902725.07447 -10815057.48845  22595248.3594                   22595244.9024
 -12467846.27048  -9704741.65246  21311351.2274                   21311348.1724
 -20422953.16448 -15895971.71946  20935825.1644                   20935821.9184
   -270348.29747   -199135.32045  23195862.2194                   23195859.6954
 -12289974.55948  -9562731.51246  21865435.6334                   21865435.5744
   5306497.80946   4142063.84443  24708339.2584                   24708336.6994
 -23925745.39147 -18623450.41045  22171925.4064                   22171920.4884
 11  8 11  3 32  0.0000000  0  8G26G12G29G05G15G25G21G02
  -6698805.12147  -5208265.46145  22329630.0944                   22329627.7584
 -13826691.44147 -10755810.50845  22609716.3754                   22609714.0084
 -12548203.78148  -9767357.86746  21296059.4534                   21296056.2934
 -20376078.65248 -15859446.09046  20944745.1174                   20944741.5664
   -378900.26247   -283721.25444  23175205.2274                   23175203.1134
 -12258872.34048  -9538496.02346  21871353.6094                   21871353.4534
   5236279.61346   4087348.48043  24694977.4224                   24694975.2154
 -23891477.10248 -18596747.85945  22178446.8054                   22178441.7854
 11  8 11  3 32 30.0000000  0  8G26G12G29G05G15G25G21G02
  -6791497.85947  -5280493.53545  22311990.8754                   22311988.9494
 -13750446.74247 -10696399.06245  22624225.7274                   22624223.0314
 -12628291.15648  -9829763.59446  21280819.8134                   21280816.3984
 -20328831.26248 -15822629.90246  20953736.1564                   20953732.5204
   -487354.91047   -368231.35244  23154566.5394                   23154564.3014
 -12227291.92648  -9513887.89846  21877363.2504                   21877363.4224
   5166068.84846   4032638.86743  24681616.7504                   24681614.5354
 -23857096.66847 -18569957.92645  22184988.8674                   22184984.0664
 11  8 11  3 33  0.0000000  0  8G26G12G29G05G15G25G21G02
  -6883832.66847  -5352442.70345  22294420.5634                   22294418.2584
 -13673995.32847 -10636826.53545  22638774.5164                   22638771.7464
 -12708106.93748  -9891957.69546  21265631.0234                   21265627.5864
 -20281214.61348 -15785525.99246  20962797.2114                   20962793.1844
   -595710.37547   -452664.10244  23133947.2424                   23133944.5394
 -12195236.63748  -9488909.74646  21883463.5784                   21883463.5044
   5095863.87146   3977933.80943  24668256.4454                   24668254.5744
 -23822604.82047 -18543081.17245  22191552.9224                   22191547.7424
 11  8 11  3 33 30.0000000  0  8G26G12G29G05G15G25G21G02
  -6975806.56647  -5424110.65245  22276918.4064                   22276916.3244
 -13597340.56247 -10577095.56245  22653360.7894                   22653357.9264
 -12787649.36348  -9953938.79746  21250494.3754                   21250491.9884
 -20233231.43747 -15748136.45346  20971927.8524                   20971924.3484
   -703963.83247   -537017.36344  23113347.3134                   23113344.6484
 -12162709.29748  -9463563.75846  21889653.4534                   21889652.6684
   5025663.95346   3923232.67243  24654898.2274                   24654896.5084
 -23788001.96547 -18516117.94545  22198137.4384                   22198132.2854
 11  8 11  3 34  0.0000000  0  8G26G12G29G05G15G25G21G02
  -7067414.38347  -5495493.32045  22259485.4304                   22259483.4384
 -13520484.03547 -10517207.36745  22667985.9384                   22667983.5664
 -12866914.67648 -10015703.97746  21235410.6254                   21235407.6214
 -20184882.94148 -15710462.27346  20981128.3754                   20981124.9884
   -812110.82847   -621287.65644  23092767.5314                   23092764.8284
 -12129710.78548  -9437850.61746  21895932.3134                   21895932.2074
   4955469.94546   3868536.12944  24641541.3674                   24641538.6454
 -23753286.15247 -18489066.65645  22204743.3204                   22204738.4734
 11  8 11  3 34 30.0000000  0  8G26G12G29G05G15G25G21G02
  -7158652.93447  -5566588.25445  22242124.1024                   22242121.5554
 -13443429.34447 -10457164.75045  22682649.3134                   22682646.4304
 -12945900.90248 -10077251.67246  21220380.5164                   21220377.1524
 -20136172.01248 -15672505.68046  20990397.4844                   20990393.9884
   -920148.92647   -705473.10244  23072208.4924                   23072206.1024
 -12096243.90648  -9411772.53146  21902301.0314                   21902301.0084
   4885280.75846   3813843.34443  24628184.4534                   24628180.9964
 -23718457.85248 -18461927.73045  22211371.1174                   22211366.2304
 11  8 11  3 35  0.0000000  0  8G26G12G29G05G15G25G21G02
  -7249518.01647  -5637392.17645  22224832.8284                   22224830.3404
 -13366179.02747 -10396969.69945  22697349.3284                   22697346.9924
 -13024604.97348 -10138579.50846  21205403.1094                   21205400.5554
 -20087100.20748 -15634267.90246  20999735.8444                   20999732.5004
  -1028074.14547   -789570.63744  23051670.2344                   23051668.1484
 -12062310.19948  -9385330.66446  21908758.2664                   21908757.9534
   4815096.81346   3759154.65643  24614828.9614                   24614826.0354
 -23683515.78148 -18434700.14145  22218020.6174                   22218014.9844
 11  8 11  3 35 30.0000000  0  8G26G12G29G05G15G25G21G02
  -7340007.18447  -5707903.17645  22207613.3134                   22207610.1524
 -13288737.43447 -10336625.59445  22712086.4454                   22712083.4534
 -13103026.19948 -10199686.94546  21190480.2584                   21190477.0944
 -20037671.20748 -15595751.80146  21009141.5784                   21009138.1374
  -1135885.10547   -873579.14844  23031154.8914                   23031152.9264
 -12027913.58648  -9358528.10946  21915303.9844                   21915303.6334
   4744916.20346   3704468.60243  24601473.2814                   24601471.2544
 -23648461.00448 -18407384.73845  22224691.1024                   22224685.8444
 11  8 11  3 36  0.0000000  0  8G26G12G29G05G15G25G21G02
  -7430116.31647  -5778118.05545  22190465.8674                   22190463.2584
 -13211106.76247 -10276134.15645  22726858.9694                   22726856.2544
 -13181160.95748 -10260571.15646  21175611.5634                   21175608.7664
 -19987886.50848 -15556958.53946  21018615.1804                   21018611.6374
  -1243577.55147   -957495.31244  23010661.7974                   23010659.3324
 -11993055.52748  -9331365.97746  21921937.0164                   21921936.4414
   4674739.31646   3649785.40243  24588119.4774                   24588116.2194
 -23613292.59047 -18379980.79745  22231383.8754                   22231378.3094
 11  8 11  3 36 30.0000000  0  8G26G12G29G05G15G25G21G02
  -7519843.42647  -5848035.23445  22173391.3364                   22173388.8914
 -13133292.02347 -10215499.28945  22741666.2584                   22741664.1054
 -13259008.93048 -10321231.89146  21160797.8054                   21160794.4264
 -19937750.80148 -15517891.74246  21028156.0634                   21028152.7664
  -1351150.61347  -1041318.41045  22990191.3594                   22990189.0824
 -11957740.37548  -9303847.68046  21928657.1334                   21928656.6684
   4604563.78146   3595103.25843  24574765.2034                   24574762.5744
 -23578012.16847 -18352489.55145  22238097.1174                   22238091.8284
 11  8 11  3 37  0.0000000  0  8G26G12G29G05G15G25G21G02
  -7609183.96147  -5917651.19945  22156390.5554                   22156388.2584
 -13055295.05147 -10154722.43745  22756508.4694                   22756506.1334
 -13336566.69548 -10381666.48846  21146038.8834                   21146035.6724
 -19887265.41448 -15478552.48446  21037762.7194                   21037759.2114
  -1458599.91047  -1125045.06645  22969744.3754                   22969742.6454
 -11921969.48048  -9275974.24246  21935464.3594                   21935464.0274
   4534390.08246   3540422.55143  24561411.2664                   24561408.6604
 -23542618.01247 -18324909.69545  22244832.3984                   22244827.3484
 11  8 11  3 37 30.0000000  0  8G26G12G29G05G15G25G21G02
  -7698133.26247  -5986962.28945  22139464.0234                   22139461.2074
 -12977117.78947 -10093805.10245  22771385.4224                   22771382.6914
 -13413831.09048 -10441872.49646  21131336.3444                   21131333.0044
 -19836431.71148 -15438941.82046  21047436.0554                   21047432.6564
  -1565921.69547  -1208672.37145  22949321.9064                   22949319.4924
 -11885744.12948  -9247746.69546  21942358.0554                   21942357.3874
   4464218.87146   3485743.73843  24548058.3524                   24548055.2664
 -23507109.21547 -18297240.50445  22251589.0394                   22251584.4024
 11  8 11  3 38  0.0000000  0  8G26G12G29G05G15G25G21G02
  -7786688.10947  -6055966.02045  22122612.4924                   22122609.8554
 -12898764.07047 -10032750.25045  22786295.3284                   22786292.8364
 -13490799.91848 -10501848.18446  21116689.2274                   21116686.1024
 -19785252.28548 -15399061.77746  21057175.4924                   21057171.9024
  -1673112.66047  -1292197.75845  22928923.8134                   22928921.7074
 -11849067.13348  -9219167.21146  21949336.9924                   21949336.6134
   4394049.53946   3431066.40643  24534705.6804                   24534702.3284
 -23471485.60947 -18269481.85945  22258368.7584                   22258363.4804
 11  8 11  3 38 30.0000000  0  8G26G12G29G05G15G25G21G02
  -7874845.91847  -6124660.36745  22105836.5634                   22105834.1334
 -12820237.79747  -9971560.96545  22801238.6954                   22801235.9844
 -13567471.71148 -10561592.40246  21102099.1024                   21102096.1764
 -19733730.68748 -15358915.09846  21066979.8594                   21066976.1094
  -1780171.13347  -1375619.91845  22908551.1954                   22908549.1024
 -11811942.02048  -9190238.53146  21956401.8204                   21956401.6884
   4323880.51946   3376389.32143  24521352.6174                   24521349.3914
 -23435748.04347 -18241634.40645  22265168.6644                   22265163.9494
 11  8 11  3 39  0.0000000  0  8G26G12G29G05G15G25G21G02
  -7962602.89847  -6193042.39145  22089136.5944                   22089134.1564
 -12741541.56247  -9910239.23045  22816214.0314                   22816211.8484
 -13643843.72748 -10621103.03546  21087566.1484                   21087562.7074
 -19681868.77048 -15318503.21946  21076848.7114                   21076845.1844
  -1887093.16847  -1458935.75045  22888204.9694                   22888202.9104
 -11774370.80947  -9160962.24646  21963551.4694                   21963551.0514
   4253711.65646   3321712.42243  24508000.4064                   24507997.0944
 -23399895.71947 -18213697.53945  22271991.3524                   22271986.4884
 11  8 11  3 39 30.0000000  0  8G26G12G29G05G15G25G21G02
  -8049955.88747  -6261109.60245  22072514.0784                   22072511.6334
 -12662678.75847  -9848787.69945  22831221.1094                   22831218.6564
 -13719914.25048 -10680378.73046  21073090.0394                   21073087.0784
 -19629669.80948 -15277828.69946  21086781.8594                   21086778.3244
  -1993876.82047  -1542143.73445  22867884.7034                   22867882.1254
 -11736356.75047  -9131340.89146  21970785.0784                   21970784.6764
   4183541.78546   3267034.71143  24494647.3134                   24494643.8524
 -23363928.91047 -18185671.44545  22278835.5704                   22278830.6454
 11  8 11  3 40  0.0000000  0  8G26G12G29G05G15G25G21G02
  -8136901.94547  -6328859.73045  22055968.6094                   22055966.3404
 -12583653.53147  -9787209.62145  22846259.1954                   22846256.6844
 -13795681.67648 -10739418.25846  21058672.2814                   21058668.8954
 -19577136.93048 -15236893.98446  21096778.5004                   21096774.7894
  -2100519.34847  -1625241.76245  22847591.1564                   22847589.2704
 -11697902.75448  -9101376.71546  21978102.7424                   21978102.5634
   4113370.03146   3212355.48043  24481293.3134                   24481290.6884
 -23327847.90647 -18157556.38745  22285701.5944                   22285697.0944
 11  8 11  3 40 30.0000000  0  9G26G12G29G18G05G15G25G21G02
  -8223436.91447  -6396289.53145  22039501.6024                   22039498.7624
 -12504468.21147  -9725506.79345  22861327.6414                   22861325.0234
 -13871142.91448 -10798219.21146  21044312.2974                   21044309.6094
   7727883.30156   6032856.19153  24550738.4844                   24550736.2974
 -19524271.88348 -15195700.44946  21106838.2274                   21106834.6294
  -2207016.91047  -1708226.84845  22827325.3754                   22827322.8984
 -11659010.84848  -9071071.32046  21985503.7974                   21985503.6214
   4043196.44146   3157674.84043  24467940.4224                   24467936.8914
 -23291651.57847 -18129351.45345  22292589.7814                   22292584.7704
 11  8 11  3 41  0.0000000  0  9G26G12G29G18G05G15G25G21G02
  -8309559.26247  -6463397.80145  22023113.0864                   22023110.8914
 -12425127.74647  -9663683.07445  22876425.5554                   22876422.9804
 -13946297.59048 -10856781.28946  21030010.9694                   21030007.4454
   7625920.91046   5953405.06643  24531335.9844                   24531332.4694
 -19471078.81248 -15154251.32446  21116960.6174                   21116957.3014
  -2313368.37947  -1791098.08245  22807086.9224                   22807084.8524
 -11619685.45748  -9040428.14146  21992986.9304                   21992986.6954
   3973018.91446   3102991.11343  24454585.6334                   24454582.5234
 -23255341.59047 -18101057.93745  22299499.1644                   22299494.4804
 11  8 11  3 41 30.0000000  0  9G26G12G29G18G05G15G25G21G02
  -8395266.59047  -6530182.69945  22006803.3284                   22006801.0354
 -12345636.19547  -9601741.60945  22891552.2274                   22891549.6564
 -14021144.48848 -10915103.53546  21015768.0864                   21015765.1174
   7524130.28946   5874087.89843  24511966.8594                   24511963.4064
 -19417561.52748 -15112549.55146  21127144.6724                   21127141.0704
  -2419571.78547  -1873853.94945  22786878.2114                   22786875.0864
 -11579930.34048  -9009450.11346  22000552.2814                   22000551.5594
   3902835.71146   3048302.97343  24441230.6484                   24441227.8524
 -23218918.81247 -18072676.53945  22306430.3444                   22306425.3244
 11  8 11  3 42  0.0000000  0  9G26G12G29G18G05G15G25G21G02
  -8480557.30947  -6596642.96145  21990572.9614                   21990570.5474
 -12265998.76247  -9539686.46545  22906706.7344                   22906703.8754
 -14095683.19548 -10973185.60546  21001583.7194                   21001580.7234
   7422510.59846   5794903.87143  24492627.3754                   24492626.0704
 -19363724.46948 -15070598.60946  21137389.6484                   21137386.0164
  -2525626.14547  -1956493.66044  22766696.1724                   22766693.6684
 -11539750.10248  -8978140.82046  22008198.3444                   22008197.7504
   3832644.56646   2993608.68043  24427873.5634                   24427870.3954
 -23182385.17247 -18044208.77045  22313382.5234                   22313377.4344
